[[{"header":{"parameterUnit":"m.s-1","parameterCategory":1,"la1":30.6,"la2":29.2853,"lo1":-89.7004,"lo2":-87.6739,"dy":0.0162,"dx":0.0183,"nx":112,"ny":82,"refTime":"2024-07-05T18:00:00:Z","depth":0,"parameterNumber":2,"parameterNumberName":"U-component_of_WINDS"},"data":[0.0,0.0,0.0,0.0,0.0,0.0,0.0,0.0,0.0,0.0,0.0,0.0,0.0,0.0,0.0,0.0,0.0,0.0,0.0,0.0,0.0,0.0,0.0,0.0,0.0,0.0,0.0,0.0,0.0,0.0,0.0,0.0,0.0,0.0,0.0,0.0,0.0,0.0,0.0,0.0,0.0,0.0,0.0,0.0,0.0,0.0,0.0,0.0,0.0,0.0,0.0,0.0,0.0,0.0,0.0,0.0,0.0,0.0,0.0,0.0,0.0,0.0,0.0,0.0,0.0,0.0,0.0,0.0,0.0,0.0,0.0,0.0,0.0,0.0,0.0,0.0,0.0,0.0,0.0,0.0,0.0,0.0,0.0,0.0,0.0,0.0,0.0,0.0,0.0,0.0,-2.6929,-3.0206,-3.3436,-3.548,-3.5661,-3.495,-3.3085,-2.9791,0.0,0.0,0.0,0.0,0.0,0.0,0.0,0.0,0.0,0.0,0.0,0.0,0.0,0.0,0.0,0.0,0.0,0.0,0.0,0.0,0.0,0.0,0.0,0.0,0.0,0.0,0.0,0.0,0.0,0.0,0.0,0.0,0.0,0.0,0.0,0.0,0.0,0.0,0.0,0.0,0.0,0.0,0.0,0.0,0.0,0.0,0.0,0.0,0.0,0.0,0.0,0.0,0.0,0.0,0.0,0.0,0.0,0.0,0.0,0.0,0.0,0.0,0.0,0.0,0.0,0.0,0.0,0.0,0.0,0.0,0.0,0.0,0.0,0.0,0.0,0.0,0.0,0.0,0.0,0.0,0.0,0.0,0.0,0.0,0.0,0.0,0.0,0.0,0.0,0.0,0.0,0.0,0.0,0.0,0.0,0.0,0.0,0.0,0.0,0.0,0.0,0.0,0.0,0.0,-2.793,-3.2945,-3.5062,-3.6035,-3.5696,-3.4676,-3.2747,-2.9769,0.0,0.0,0.0,0.0,0.0,0.0,0.0,0.0,0.0,0.0,0.0,0.0,0.0,0.0,0.0,0.0,0.0,0.0,0.0,0.0,0.0,0.0,0.0,0.0,0.0,0.0,0.0,0.0,0.0,0.0,0.0,0.0,0.0,0.0,0.0,0.0,0.0,0.0,0.0,0.0,0.0,0.0,0.0,0.0,0.0,0.0,0.0,0.0,0.0,0.0,0.0,0.0,0.0,0.0,0.0,0.0,0.0,0.0,0.0,0.0,0.0,0.0,0.0,0.0,0.0,0.0,0.0,0.0,0.0,0.0,0.0,0.0,0.0,0.0,0.0,0.0,0.0,0.0,0.0,0.0,0.0,0.0,0.0,0.0,0.0,0.0,0.0,0.0,0.0,0.0,0.0,0.0,0.0,0.0,0.0,0.0,0.0,0.0,0.0,0.0,0.0,0.0,0.0,-2.7596,-3.0144,-3.4268,-3.5663,-3.6208,-3.6047,-3.4796,-3.2809,-2.9925,-2.7282,0.0,0.0,0.0,0.0,0.0,0.0,0.0,0.0,0.0,0.0,0.0,0.0,0.0,0.0,0.0,0.0,0.0,0.0,0.0,0.0,0.0,0.0,0.0,0.0,0.0,0.0,0.0,0.0,0.0,0.0,0.0,0.0,0.0,0.0,0.0,0.0,0.0,0.0,0.0,0.0,0.0,0.0,0.0,0.0,0.0,0.0,0.0,0.0,0.0,0.0,0.0,0.0,0.0,0.0,0.0,0.0,0.0,0.0,0.0,0.0,0.0,0.0,0.0,0.0,0.0,0.0,0.0,0.0,0.0,0.0,0.0,0.0,0.0,0.0,0.0,0.0,0.0,0.0,0.0,0.0,0.0,0.0,0.0,0.0,0.0,0.0,0.0,0.0,0.0,0.0,0.0,0.0,0.0,0.0,0.0,0.0,0.0,0.0,0.0,0.0,0.0,0.0,-3.0524,-3.2317,-3.5145,-3.5973,-3.6284,-3.6284,-3.4673,-3.2627,-3.0145,-2.6943,0.0,0.0,0.0,0.0,0.0,0.0,0.0,0.0,0.0,0.0,0.0,0.0,0.0,0.0,0.0,0.0,0.0,0.0,0.0,0.0,0.0,0.0,0.0,0.0,0.0,0.0,0.0,0.0,0.0,0.0,0.0,0.0,0.0,0.0,0.0,0.0,0.0,0.0,0.0,0.0,0.0,0.0,0.0,0.0,0.0,0.0,0.0,0.0,0.0,0.0,0.0,0.0,0.0,0.0,0.0,0.0,0.0,0.0,0.0,0.0,0.0,0.0,0.0,0.0,0.0,0.0,0.0,0.0,0.0,0.0,0.0,0.0,0.0,0.0,0.0,0.0,0.0,0.0,0.0,0.0,0.0,0.0,0.0,0.0,0.0,0.0,0.0,0.0,0.0,0.0,0.0,0.0,0.0,0.0,0.0,0.0,0.0,0.0,0.0,0.0,0.0,0.0,-3.1386,-3.3628,-3.5973,-3.6284,-3.6284,-3.6284,-3.3919,-3.1807,-3.0344,-2.6081,0.0,0.0,0.0,0.0,0.0,0.0,0.0,0.0,0.0,0.0,0.0,0.0,0.0,0.0,0.0,0.0,0.0,0.0,0.0,0.0,0.0,0.0,0.0,0.0,0.0,0.0,0.0,0.0,0.0,0.0,0.0,0.0,0.0,0.0,0.0,0.0,0.0,0.0,0.0,0.0,0.0,0.0,0.0,0.0,0.0,0.0,0.0,0.0,0.0,0.0,0.0,0.0,0.0,0.0,0.0,0.0,0.0,0.0,0.0,0.0,0.0,0.0,0.0,0.0,0.0,0.0,0.0,0.0,0.0,0.0,0.0,0.0,0.0,0.0,0.0,0.0,0.0,0.0,0.0,0.0,0.0,0.0,0.0,0.0,0.0,0.0,0.0,0.0,0.0,0.0,0.0,0.0,0.0,0.0,0.0,0.0,0.0,0.0,0.0,0.0,0.0,0.0,-3.1076,-3.3248,-3.6008,-3.6284,-3.6284,-3.6284,-3.4525,-3.2384,-2.9965,0.0,0.0,0.0,0.0,0.0,0.0,0.0,0.0,0.0,0.0,0.0,0.0,0.0,0.0,0.0,0.0,0.0,0.0,0.0,0.0,0.0,0.0,0.0,0.0,0.0,0.0,0.0,0.0,0.0,0.0,0.0,0.0,0.0,0.0,0.0,0.0,0.0,0.0,0.0,0.0,0.0,0.0,0.0,0.0,0.0,0.0,0.0,0.0,0.0,0.0,0.0,0.0,0.0,0.0,0.0,0.0,0.0,0.0,0.0,0.0,0.0,0.0,0.0,0.0,0.0,0.0,0.0,0.0,0.0,0.0,0.0,0.0,0.0,0.0,0.0,0.0,0.0,0.0,0.0,0.0,0.0,0.0,0.0,0.0,0.0,0.0,0.0,0.0,0.0,0.0,0.0,0.0,0.0,0.0,0.0,0.0,0.0,0.0,0.0,0.0,0.0,0.0,-2.8972,-3.1282,-3.349,-3.6042,-3.6284,-3.6284,-3.6284,-3.4283,-3.2044,-2.9781,0.0,0.0,0.0,0.0,0.0,0.0,0.0,0.0,0.0,0.0,0.0,0.0,0.0,0.0,0.0,0.0,0.0,0.0,0.0,0.0,0.0,0.0,0.0,0.0,0.0,0.0,0.0,0.0,0.0,0.0,0.0,0.0,0.0,0.0,0.0,0.0,0.0,0.0,0.0,0.0,0.0,0.0,0.0,0.0,0.0,0.0,0.0,0.0,0.0,0.0,0.0,0.0,0.0,0.0,0.0,0.0,0.0,0.0,0.0,0.0,0.0,0.0,0.0,0.0,0.0,0.0,0.0,0.0,0.0,0.0,0.0,0.0,0.0,0.0,0.0,0.0,0.0,0.0,0.0,0.0,0.0,0.0,0.0,0.0,0.0,0.0,0.0,0.0,0.0,0.0,0.0,0.0,0.0,0.0,0.0,0.0,0.0,0.0,0.0,0.0,0.0,0.0,-2.911,-3.2179,-3.4683,-3.6146,-3.6284,-3.6284,-3.6284,-3.2869,-3.0474,0.0,0.0,0.0,0.0,0.0,0.0,0.0,0.0,0.0,0.0,0.0,0.0,0.0,0.0,0.0,0.0,0.0,0.0,0.0,0.0,0.0,0.0,0.0,0.0,0.0,0.0,0.0,0.0,0.0,0.0,0.0,0.0,0.0,0.0,0.0,0.0,0.0,0.0,0.0,0.0,0.0,0.0,0.0,0.0,0.0,0.0,0.0,0.0,0.0,0.0,0.0,0.0,0.0,0.0,0.0,0.0,0.0,0.0,0.0,0.0,0.0,0.0,0.0,0.0,0.0,0.0,0.0,0.0,0.0,0.0,0.0,0.0,0.0,0.0,0.0,0.0,0.0,0.0,0.0,0.0,0.0,0.0,0.0,0.0,0.0,0.0,0.0,0.0,0.0,0.0,0.0,0.0,0.0,0.0,0.0,0.0,0.0,0.0,0.0,0.0,0.0,0.0,0.0,-2.911,-3.2179,-3.4683,-3.6146,-3.6284,-3.6284,-3.6284,-3.38,-3.1491,-2.9729,0.0,0.0,0.0,0.0,0.0,0.0,0.0,0.0,0.0,0.0,0.0,0.0,0.0,0.0,0.0,0.0,0.0,0.0,0.0,0.0,0.0,0.0,0.0,0.0,0.0,0.0,0.0,0.0,0.0,0.0,0.0,0.0,0.0,0.0,0.0,0.0,0.0,0.0,0.0,0.0,0.0,0.0,0.0,0.0,0.0,0.0,0.0,0.0,0.0,0.0,0.0,0.0,0.0,0.0,0.0,0.0,0.0,0.0,0.0,0.0,0.0,0.0,0.0,0.0,0.0,0.0,0.0,0.0,0.0,0.0,0.0,0.0,0.0,0.0,0.0,0.0,0.0,0.0,0.0,0.0,0.0,0.0,0.0,0.0,0.0,0.0,0.0,0.0,0.0,0.0,0.0,0.0,0.0,0.0,0.0,0.0,0.0,0.0,0.0,0.0,0.0,0.0,-2.9144,-3.2455,-3.4973,-3.618,-3.6284,-3.6284,-3.6284,-3.4214,-3.1938,-2.9661,0.0,0.0,0.0,0.0,0.0,0.0,0.0,0.0,0.0,0.0,0.0,0.0,0.0,0.0,0.0,0.0,0.0,0.0,0.0,0.0,0.0,0.0,0.0,0.0,0.0,0.0,0.0,0.0,0.0,0.0,0.0,0.0,0.0,0.0,0.0,0.0,0.0,0.0,0.0,0.0,0.0,0.0,0.0,0.0,0.0,0.0,0.0,0.0,0.0,0.0,0.0,0.0,0.0,0.0,0.0,0.0,0.0,0.0,0.0,0.0,0.0,0.0,0.0,0.0,0.0,0.0,0.0,0.0,0.0,0.0,0.0,0.0,0.0,0.0,0.0,0.0,0.0,0.0,0.0,0.0,0.0,0.0,0.0,0.0,0.0,0.0,0.0,0.0,0.0,0.0,0.0,0.0,0.0,0.0,0.0,0.0,0.0,0.0,0.0,0.0,0.0,0.0,-2.9213,-3.2904,-3.5594,-3.6318,-3.6422,-3.6422,-3.6422,-3.4249,-3.1972,-2.9765,0.0,0.0,0.0,0.0,0.0,0.0,0.0,0.0,0.0,0.0,0.0,0.0,0.0,0.0,0.0,0.0,0.0,0.0,0.0,0.0,0.0,0.0,0.0,0.0,0.0,0.0,0.0,0.0,0.0,0.0,0.0,0.0,0.0,0.0,0.0,0.0,0.0,0.0,0.0,0.0,0.0,0.0,0.0,0.0,0.0,0.0,0.0,0.0,0.0,0.0,0.0,0.0,0.0,0.0,0.0,0.0,0.0,0.0,0.0,0.0,-2.8007,-2.5675,0.0,0.0,0.0,0.0,0.0,0.0,0.0,0.0,0.0,0.0,0.0,0.0,0.0,0.0,0.0,0.0,0.0,0.0,0.0,0.0,0.0,0.0,0.0,0.0,0.0,0.0,0.0,0.0,0.0,0.0,0.0,0.0,0.0,0.0,0.0,0.0,0.0,0.0,0.0,0.0,-2.9282,-3.3352,-3.6353,-3.7167,-3.7236,-3.7236,-3.7236,-3.4559,-3.2214,-3.0558,-2.6266,0.0,0.0,0.0,0.0,0.0,0.0,0.0,0.0,0.0,0.0,0.0,0.0,0.0,0.0,0.0,0.0,0.0,0.0,0.0,0.0,0.0,0.0,0.0,0.0,0.0,0.0,0.0,0.0,0.0,0.0,0.0,0.0,0.0,0.0,0.0,0.0,0.0,0.0,0.0,0.0,0.0,0.0,0.0,0.0,0.0,0.0,0.0,0.0,0.0,0.0,0.0,0.0,0.0,0.0,0.0,0.0,0.0,0.0,0.0,-3.2151,-3.0251,0.0,0.0,0.0,0.0,0.0,0.0,0.0,0.0,0.0,0.0,0.0,0.0,0.0,0.0,0.0,0.0,0.0,0.0,0.0,0.0,0.0,0.0,0.0,0.0,0.0,0.0,0.0,0.0,0.0,0.0,0.0,0.0,0.0,0.0,0.0,0.0,0.0,0.0,0.0,0.0,-3.0386,-3.4283,-3.7146,-3.7961,-3.7719,-3.7512,-3.7512,-3.5352,-3.3214,-3.1351,-2.7937,0.0,0.0,0.0,0.0,0.0,0.0,0.0,0.0,0.0,0.0,0.0,0.0,0.0,0.0,0.0,0.0,0.0,0.0,0.0,0.0,0.0,0.0,0.0,0.0,0.0,0.0,0.0,0.0,0.0,0.0,0.0,0.0,0.0,0.0,0.0,0.0,0.0,0.0,0.0,0.0,0.0,0.0,0.0,0.0,0.0,0.0,0.0,0.0,0.0,0.0,0.0,0.0,0.0,-3.6408,-3.663,-3.7201,-3.735,-3.7795,-3.8353,-3.7015,-3.5826,-3.4661,-3.2407,0.0,0.0,0.0,0.0,0.0,0.0,0.0,0.0,0.0,0.0,0.0,0.0,0.0,0.0,0.0,0.0,0.0,0.0,0.0,0.0,0.0,0.0,-3.1412,-3.2178,-3.3352,-3.3031,-2.85,0.0,0.0,0.0,0.0,0.0,0.0,0.0,0.0,0.0,0.0,0.0,-3.1731,-3.5338,-3.7996,-3.8698,-3.8272,-3.7823,-3.7719,-3.6284,-3.449,-3.2317,-3.0075,-2.7592,0.0,0.0,0.0,0.0,0.0,0.0,0.0,0.0,0.0,0.0,0.0,0.0,0.0,0.0,0.0,0.0,0.0,0.0,0.0,0.0,0.0,0.0,0.0,0.0,0.0,0.0,0.0,0.0,0.0,0.0,0.0,0.0,-2.4587,-2.6415,0.0,0.0,0.0,0.0,0.0,0.0,0.0,0.0,0.0,0.0,0.0,0.0,0.0,-3.6621,-3.7264,-4.0239,-4.1415,-4.0828,-4.3578,-4.4581,-4.4023,-4.4729,-4.5101,-4.5212,-4.4989,0.0,-3.7262,-3.5566,0.0,0.0,0.0,0.0,0.0,0.0,0.0,0.0,0.0,0.0,0.0,0.0,0.0,0.0,0.0,0.0,0.0,0.0,0.0,0.0,0.0,0.0,-3.7106,-3.6088,-3.5998,-3.5774,-3.4349,-3.1249,-2.837,-2.7182,-2.54,-2.3951,0.0,0.0,0.0,0.0,0.0,0.0,-3.2559,-3.6077,-3.8732,-3.9491,-3.9457,-3.9146,-3.8491,-3.7042,-3.549,-3.3923,-3.168,-2.9903,-2.8782,-2.6143,0.0,0.0,0.0,0.0,0.0,0.0,0.0,0.0,0.0,0.0,0.0,0.0,0.0,0.0,0.0,0.0,0.0,0.0,0.0,0.0,0.0,0.0,0.0,0.0,0.0,0.0,0.0,0.0,0.0,-2.3832,-2.6626,-2.7159,-2.7789,-2.8025,0.0,0.0,0.0,0.0,0.0,0.0,0.0,0.0,0.0,-3.8836,-4.0193,-4.1272,-4.2054,-4.4395,-4.5361,-4.5064,-4.6958,-4.7664,-4.733,-4.7218,-4.7181,-4.7144,-4.6698,-4.5064,-4.2537,-3.9974,-3.7671,-3.559,0.0,0.0,0.0,0.0,-3.4191,-3.4575,-3.5853,-3.6066,-3.5703,-3.5151,0.0,0.0,0.0,0.0,0.0,0.0,0.0,-3.3979,-3.4624,-3.645,-3.8199,-3.8374,-3.8693,-3.8753,-3.7936,-3.5972,-3.3656,-3.1098,-3.0126,-2.9019,-2.678,-2.6714,0.0,0.0,0.0,-3.3145,-3.4628,-3.7387,-3.9526,-4.0308,-3.9974,-3.9388,-3.8663,-3.7594,-3.6339,-3.48,-3.3406,-3.2041,-3.0834,-2.8696,-2.6419,0.0,0.0,0.0,0.0,0.0,0.0,0.0,0.0,0.0,0.0,0.0,0.0,0.0,0.0,0.0,0.0,0.0,0.0,0.0,0.0,0.0,0.0,0.0,0.0,0.0,0.0,0.0,0.0,-2.6546,-2.8666,-2.8615,-3.0349,-3.1195,0.0,0.0,0.0,0.0,0.0,0.0,-3.8264,-3.93,-4.0828,-4.3095,-4.4729,-4.5881,-4.6513,-4.7924,-4.8667,-4.8667,-4.9262,-4.9559,-4.9522,-4.8927,-4.8667,-4.863,-4.7999,-4.7627,-4.7181,-4.3912,-4.1311,-3.9305,-3.7931,-3.7015,-3.6606,-3.7833,-3.8167,-3.8275,-4.0206,-4.0288,-3.9475,-3.9051,-3.8026,-3.6737,-3.5426,0.0,0.0,0.0,0.0,-3.5634,-3.6603,-3.779,-3.8968,-3.9915,-4.0527,-4.0756,-4.0146,-3.956,-3.8146,-3.4731,-3.4249,-3.3455,-3.0627,-3.0455,0.0,-3.0179,-3.2697,-3.518,-3.6697,-3.8525,-4.0008,-4.0825,-4.0377,-3.9698,-3.8939,-3.8203,-3.7202,-3.587,-3.4924,-3.3766,-3.2421,-3.0903,-2.8765,-2.5937,0.0,0.0,0.0,0.0,0.0,0.0,0.0,0.0,0.0,0.0,0.0,0.0,0.0,0.0,0.0,0.0,0.0,0.0,0.0,0.0,0.0,0.0,0.0,0.0,0.0,0.0,0.0,0.0,0.0,-3.2604,-3.4884,0.0,0.0,0.0,0.0,-3.6519,-3.7267,-3.9059,-4.2329,-4.4039,-4.5695,-4.733,-4.8964,-4.9819,-4.9856,-5.0748,-5.1193,-5.1193,-5.1268,-5.1268,-5.1268,-5.1231,-5.1193,-5.1193,-5.1156,-5.0711,-4.9745,-4.6475,-4.4544,-4.3615,-4.276,-4.2389,-4.2389,-4.2463,-4.3466,-4.4692,-4.4045,-4.3769,-4.3632,-4.3232,-4.1264,-3.903,-3.892,-3.7802,0.0,0.0,-3.8113,-3.9373,-3.9643,-4.0319,-4.0897,-4.0849,-4.0894,-4.0894,-4.086,-4.0825,-4.0101,-3.7719,-3.6132,-3.5076,-3.4869,0.0,-3.4096,-3.4766,-3.5628,-3.6732,-3.8284,-3.9181,-4.0008,-4.0825,-4.086,-4.0515,-3.9698,-3.8974,-3.8215,-3.7443,-3.5994,-3.48,-3.4027,-3.249,-3.0593,-2.8282,-2.604,0.0,0.0,0.0,0.0,0.0,0.0,0.0,0.0,0.0,0.0,0.0,0.0,0.0,0.0,0.0,0.0,0.0,0.0,0.0,0.0,0.0,0.0,0.0,0.0,0.0,0.0,0.0,0.0,-3.5318,-3.7573,0.0,-3.7577,-3.838,-3.9928,-4.2143,-4.3029,-4.4618,-4.7367,-4.8073,-4.8927,-5.0042,-5.0636,-5.0933,-5.0933,-5.1751,-5.2159,-5.2197,-5.2717,-5.294,-5.294,-5.2419,-5.2159,-5.2159,-5.1602,-5.1231,-5.0896,-4.9707,-4.8407,-4.707,-4.6252,-4.5955,-4.5881,-4.5361,-4.5547,-4.603,-4.5732,-4.5436,-4.5161,-4.4748,-4.3902,-4.2895,-4.2139,-4.1243,-4.0411,-4.001,-4.0232,-4.059,-4.0734,-4.0851,-4.1,-4.1023,-4.0976,-4.0894,-4.0894,-4.0894,-4.0653,-3.9859,-3.8836,-3.7801,-3.6857,-3.6857,-3.6732,-3.6008,-3.7387,-3.8698,-3.925,-3.9974,-4.0584,-4.086,-4.0894,-4.0377,-3.9077,-3.8732,-3.7836,-3.6111,-3.549,-3.4628,-3.3386,-3.28,-3.1214,-2.8454,-2.7592,-2.5212,0.0,0.0,0.0,0.0,0.0,0.0,0.0,0.0,0.0,0.0,0.0,0.0,0.0,0.0,0.0,0.0,0.0,0.0,0.0,0.0,0.0,0.0,0.0,0.0,0.0,-3.4967,-3.7429,-3.792,-4.062,-4.2129,-4.1274,-4.2686,-4.4544,-4.6735,-4.7441,-4.8556,-5.045,-5.1045,-5.1602,-5.2197,-5.2754,-5.3051,-5.3051,-5.3571,-5.3868,-5.3868,-5.4388,-5.4648,-5.4648,-5.4091,-5.3868,-5.3831,-5.3274,-5.2902,-5.2605,-5.2605,-5.1788,-5.045,-4.9373,-4.8964,-4.889,-4.8333,-4.7961,-4.7664,-4.7107,-4.6626,-4.6214,-4.5659,-4.5394,-4.5088,-4.4304,-4.3679,-4.3145,-4.2527,-4.2149,-4.1903,-4.1892,-4.1773,-4.1712,-4.1784,-4.1529,-4.1274,-4.1274,-4.1101,-4.0894,-4.0894,-4.048,-3.9767,-3.8824,-3.9065,-3.9031,-3.8008,-3.9146,-4.0077,-4.0077,-4.0584,-4.0894,-4.0894,-4.0894,-4.0377,-3.9077,-3.8491,-3.756,-3.6077,-3.5249,-3.4352,-3.3352,-3.28,-3.1351,-2.8834,-2.7764,-2.5626,-2.2337,0.0,0.0,0.0,0.0,0.0,0.0,0.0,0.0,0.0,0.0,0.0,0.0,0.0,0.0,0.0,0.0,0.0,0.0,0.0,0.0,0.0,0.0,0.0,-3.584,-3.8523,-4.0494,-4.062,-4.4135,-4.629,-4.5509,-4.6884,-4.8481,-5.0079,-5.0265,-5.0673,-5.1528,-5.3051,-5.3868,-5.3868,-5.5466,-5.632,-5.632,-5.632,-5.632,-5.632,-5.632,-5.632,-5.632,-5.632,-5.632,-5.632,-5.632,-5.5837,-5.5057,-5.5057,-5.4574,-5.3683,-5.2085,-5.1454,-5.1416,-5.1416,-5.0896,-5.0005,-4.837,-4.7514,-4.7077,-4.6268,-4.5753,-4.5368,-4.5332,-4.5009,-4.4563,-4.4272,-4.3875,-4.3433,-4.3247,-4.3207,-4.3207,-4.3207,-4.262,-4.2068,-4.2068,-4.1481,-4.0929,-4.0929,-4.0929,-4.0894,-4.0894,-4.0894,-4.0894,-4.0894,-4.0894,0.0,-4.0894,-4.0894,-4.0894,-4.0894,-4.0894,-4.0584,-3.9767,-3.8375,-3.7512,-3.7443,-3.5338,-3.4096,-3.4061,-3.2628,-3.111,-2.9592,-2.6626,-2.4715,-2.3922,0.0,0.0,0.0,0.0,0.0,0.0,0.0,0.0,0.0,0.0,0.0,0.0,0.0,0.0,0.0,0.0,0.0,0.0,0.0,0.0,0.0,-3.6964,-3.9252,-3.9264,-4.0896,-4.302,-4.5398,-4.7218,-4.8407,-4.8816,-4.9782,-5.1045,-5.2679,-5.2791,-5.346,-5.4871,-5.5354,-5.5614,-5.5614,-5.606,-5.632,-5.632,-5.632,-5.632,-5.632,-5.632,-5.632,-5.632,-5.632,-5.632,-5.632,-5.632,-5.6172,-5.5949,-5.5949,-5.5429,-5.45,-5.2902,-5.2271,-5.2197,-5.1602,-5.1268,-5.1008,-5.0525,-4.9914,-4.9231,-4.9009,-4.803,-4.6851,-4.6271,-4.5501,-4.4659,-4.4027,-4.3626,-4.3395,-4.3296,-4.3222,-4.3207,-4.3207,-4.3034,-4.2861,-4.2861,-4.224,-4.1723,-4.1723,-4.1274,-4.0894,-4.0894,-4.0894,-4.0894,-4.0894,-4.0894,-4.0894,-4.0894,-4.0894,-4.0894,-4.0894,-4.0894,-4.0584,-3.9767,-3.8836,-3.7616,-3.5939,-3.4752,-3.3835,-3.3248,-3.2835,-3.2145,-3.1179,-2.873,-2.7109,0.0,0.0,0.0,0.0,0.0,0.0,0.0,0.0,0.0,0.0,0.0,0.0,0.0,0.0,0.0,0.0,0.0,0.0,0.0,0.0,0.0,0.0,-4.0238,-4.252,-4.3886,-4.4808,-4.6067,-4.7999,-4.9224,-5.0413,-5.1602,-5.2122,-5.3088,-5.4723,-5.4871,-5.528,-5.6246,-5.6617,-5.6803,-5.6803,-5.7138,-5.7323,-5.7323,-5.7323,-5.7323,-5.7323,-5.7323,-5.7323,-5.7323,-5.7323,-5.7323,-5.7323,-5.7323,-5.71,-5.6803,-5.6803,-5.632,-5.5429,0.0,0.0,0.0,0.0,-5.1899,-5.1862,-5.1528,-5.1082,-5.0636,-5.0636,-5.0009,-4.9035,-4.8192,-4.7289,-4.6351,-4.5501,-4.4882,-4.4491,-4.4356,-4.4291,-4.4215,-4.4215,-4.3922,-4.3655,-4.3655,-4.3069,-4.2413,-4.2068,-4.1654,0.0,-4.0963,-4.0894,-4.0894,-4.0894,-4.0894,-4.0894,-4.0894,-4.0894,-4.0894,-4.0894,-4.0894,-4.0584,-3.9767,-3.9008,0.0,0.0,0.0,-3.4042,-3.2938,-3.2904,0.0,0.0,0.0,0.0,0.0,0.0,0.0,0.0,-2.6937,-2.693,0.0,0.0,0.0,0.0,0.0,0.0,0.0,0.0,0.0,0.0,0.0,0.0,0.0,0.0,0.0,0.0,-4.2947,-4.5584,-4.8481,-4.915,-4.9336,-4.9336,-5.0711,-5.2271,-5.3794,-5.4017,-5.476,-5.632,-5.6432,-5.6469,-5.658,-5.7249,0.0,0.0,0.0,-5.8698,-5.8698,-5.8698,-5.8698,-5.8698,-5.8698,-5.8698,-5.8698,-5.8698,-5.8698,-5.8698,-5.8698,-5.8289,-5.7658,-5.7658,-5.7175,-5.6357,-5.5391,-5.4574,-5.3831,-5.3051,-5.2754,-5.2642,-5.1936,0.0,0.0,-5.1528,-5.1399,-5.1102,-5.0305,-4.9455,-4.8562,-4.7637,-4.6779,-4.6095,-4.5838,-4.571,-4.5607,-4.5607,-4.501,-4.4414,-4.4414,-4.3828,-4.3103,-4.2413,-4.2137,-4.1792,-4.1136,-4.0963,-4.0894,-4.0894,-4.0894,-4.0894,-4.0894,-4.0894,-4.0894,-4.0894,-4.0894,0.0,-3.9905,-3.9146,-3.8387,-3.7685,-3.6249,-3.48,-3.3352,-3.3283,-3.2938,-3.2179,-3.211,-3.2386,-3.3041,-3.3041,-3.3076,-3.3076,-2.9661,-2.9213,0.0,0.0,0.0,0.0,0.0,0.0,0.0,0.0,0.0,0.0,0.0,0.0,0.0,0.0,0.0,-4.2313,-4.5631,-4.8184,-4.8816,-5.0636,-5.1899,-5.1899,-5.2754,-5.372,-5.4686,-5.5391,-5.6209,-5.7212,-5.7286,-5.7546,-5.8215,-5.8401,-5.8475,-5.8475,-5.8624,-5.8698,-5.8698,-5.8698,-5.8698,-5.8698,-5.8698,0.0,-5.8698,-5.8698,-5.8698,-5.8698,-5.8698,-5.8624,-5.8475,-5.8475,-5.7992,-5.7138,-5.5614,-5.4909,-5.4686,-5.3868,-5.3571,-5.3571,-5.3385,-5.2902,-5.2382,-5.2382,-5.1423,-5.0241,-5.0059,-4.9323,0.0,-4.7477,-4.7126,-4.6784,-4.6003,-4.571,-4.5607,-4.5607,-4.5399,-4.519,-4.519,-4.4596,-4.4035,-4.3897,-4.2861,-4.194,-4.1826,-4.1309,-4.0894,-4.0894,-4.0894,-4.0894,-4.0894,-4.0894,-4.0894,-4.0894,-4.0894,-4.086,-4.0687,-3.9939,-3.9146,-3.8422,-3.7547,-3.665,-3.5663,-3.5628,-3.5283,-3.4559,-3.3958,-3.3751,-3.3889,-3.3889,-3.4145,-3.4731,-3.3386,-3.2693,0.0,0.0,0.0,0.0,0.0,0.0,0.0,0.0,0.0,0.0,0.0,-3.7257,-3.9232,0.0,-4.3741,-4.5677,-4.8008,-4.9819,-5.0636,-5.2159,-5.32,-5.32,-5.3905,-5.4909,-5.6134,-5.6655,-5.7249,-5.8029,-5.8103,-5.8289,-5.8698,-5.8698,-5.8698,-5.8698,-5.8698,-5.8698,-5.8698,-5.8698,-5.8698,-5.8698,-5.8698,-5.8698,-5.8698,-5.8698,-5.8698,-5.8698,-5.8698,-5.8698,-5.8698,-5.8698,-5.8475,-5.7992,-5.6729,-5.6023,-5.554,-5.4723,-5.4426,-5.4351,-5.3943,-5.3534,-5.32,-5.32,-5.2597,-5.1773,-5.1119,-5.0426,-4.9626,-4.8502,-4.7975,-4.7552,-4.6733,-4.6343,-4.6091,-4.571,-4.5502,-4.5397,-4.5397,-4.5087,-4.4734,-4.438,-4.369,-4.3034,-4.2654,-4.1964,-4.1343,-4.0963,-4.0894,-4.0894,-4.0894,-4.0894,-4.0894,-4.0894,-4.0894,-4.0894,-4.0894,-4.0146,-3.9526,-3.9146,-3.8479,-3.787,-3.7456,-3.7456,-3.7284,-3.6904,-3.6546,-3.6374,-3.6374,-3.6374,-3.6546,-3.687,-3.6546,-3.5799,0.0,0.0,0.0,0.0,0.0,0.0,0.0,-3.5461,-3.5874,-3.7928,-3.9266,-4.0666,-4.2674,-4.4774,-4.6903,-4.8813,-5.0005,-5.1156,-5.2642,-5.3534,-5.4166,-5.45,-5.5094,-5.6023,-5.736,-5.7658,-5.7992,-5.8661,-5.8698,-5.8698,-5.8698,-5.8698,-5.8698,-5.8698,-5.8698,-5.8698,-5.8698,-5.8698,-5.8698,-5.8698,-5.8698,-5.8698,-5.8698,-5.8698,-5.8698,-5.8698,-5.8698,-5.8698,-5.8698,-5.8698,-5.8698,-5.8661,-5.7992,-5.736,-5.6655,-5.5652,-5.5243,-5.5131,-5.4314,-5.4054,-5.4017,-5.3868,-5.3737,-5.3452,-5.2447,-5.1791,-5.1122,-4.9794,-4.9068,-4.853,-4.7691,-4.7178,-4.6664,-4.604,-4.5632,-4.5397,-4.5397,-4.5397,-4.5225,-4.463,-4.4414,-4.4104,-4.3517,-4.2758,-4.1999,-4.124,-4.0998,-4.0894,-4.0894,-4.0894,-4.0894,-4.0894,-4.0894,-4.0894,-4.0894,-4.0308,-3.9939,-3.9939,-3.9376,-3.8974,-3.8801,-3.8801,-3.8732,-3.8594,-3.8594,-3.8594,-3.8594,-3.8594,-3.8594,-3.8594,-3.8732,-3.8208,-2.994,-3.139,-3.3412,-3.6618,-3.5854,-3.6122,0.0,-4.2318,-4.1201,-4.4677,-4.5509,-4.5887,-4.6859,-4.7847,-4.885,-4.9819,-5.1305,-5.2642,-5.3534,-5.4351,-5.5429,-5.6915,-5.7175,-5.7286,-5.7472,-5.8141,-5.8624,-5.8698,-5.8698,-5.8698,-5.8698,-5.8698,-5.8698,-5.8698,-5.8698,-5.8698,-5.8698,-5.8698,-5.8698,-5.8698,-5.8698,-5.8698,-5.8698,-5.8698,-5.8698,-5.8698,-5.8698,-5.8698,-5.8698,-5.8698,-5.8698,-5.8698,-5.8624,-5.8512,-5.8252,-5.6729,-5.6172,-5.6023,-5.5169,-5.4871,-5.476,-5.4054,-5.3504,-5.3141,-5.3025,-5.2594,-5.1917,-5.0629,-5.0196,-4.9906,-4.8729,-4.7692,-4.6952,-4.6882,-4.6091,-4.5397,-4.5397,-4.5397,-4.5363,-4.5294,-4.4734,-4.4276,-4.4207,-4.3552,-4.2792,-4.1999,-4.1343,-4.0894,-4.0894,-4.0894,-4.0894,-4.0894,-4.0894,-4.0894,-4.0894,-4.0825,-4.0791,-4.0791,-4.0687,-4.0342,-3.9595,-3.956,-3.925,-3.8594,-3.8594,-3.8594,-3.8594,-3.8594,-3.8594,-3.8594,-3.925,-3.9158,-3.556,-3.663,-3.7462,-4.0331,-4.1012,-4.1763,-4.4874,-4.4741,-4.4512,-4.633,-4.735,-4.7999,-4.8333,-4.9856,-5.1342,-5.2122,-5.3237,-5.4314,-5.5131,-5.554,-5.6023,-5.6729,-5.7212,-5.7695,-5.8141,-5.8512,-5.8698,-5.8698,-5.8698,-5.8698,-5.8698,-5.8698,-5.8698,-5.8698,-5.8698,-5.8698,-5.8698,-5.8698,-5.8698,-5.8698,-5.8698,-5.8698,-5.8698,-5.8698,-5.8698,-5.8698,-5.8698,-5.8698,-5.8698,-5.8698,-5.8698,-5.8698,-5.8698,-5.8698,-5.8549,-5.7435,-5.6989,-5.6878,-5.606,-5.5429,-5.4946,-5.4611,-5.4049,-5.3444,-5.3162,-5.274,-5.2134,-5.1321,-5.0825,-5.0286,-4.9346,-4.8714,-4.8127,-4.7222,-4.6665,-4.6152,-4.5632,-4.5528,-4.5502,-4.5423,-4.5121,-4.4941,-4.4941,-4.432,-4.3724,-4.3379,-4.2309,-4.1378,-4.0963,-4.0894,-4.0894,-4.0894,-4.0894,-4.0894,-4.0894,-4.0894,-4.0894,-4.0894,-4.0894,-4.0756,-4.0388,-4.0411,-4.0273,-3.9963,-3.9963,-3.9963,-3.9963,-3.9963,-3.9963,-3.9963,-4.0273,-4.0239,-3.8729,-3.9876,-4.0668,-4.2941,-4.4738,-4.5964,-4.6097,-4.6437,-4.6896,-4.7365,-4.8322,-4.9084,-4.9242,-5.0896,-5.2605,-5.3645,-5.45,-5.5391,-5.6469,-5.6432,-5.6395,-5.6617,-5.6952,-5.7509,-5.8289,-5.8586,-5.8698,-5.8698,-5.8698,-5.8698,-5.8698,-5.8698,-5.8698,-5.8698,-5.8698,-5.8698,-5.8698,-5.8698,-5.8698,-5.8698,-5.8698,-5.8698,-5.8698,-5.8698,-5.8698,-5.8698,-5.8698,-5.8698,-5.8698,-5.8698,-5.8698,-5.8698,-5.8698,-5.8698,-5.8624,-5.8066,-5.7843,-5.7732,-5.6915,-5.6209,-5.5614,-5.5169,-5.4611,-5.4033,-5.3477,-5.2999,-5.2571,-5.1958,-5.1439,-5.0894,-5.0082,-4.9614,-4.9087,-4.7971,-4.7352,-4.6786,-4.6074,-4.5745,-4.5554,-4.5423,-4.5397,-4.5397,-4.5397,-4.4975,-4.4527,-4.4345,-4.3345,-4.2309,-4.1343,-4.1032,-4.0894,-4.0894,-4.0894,-4.0894,-4.0894,-4.0894,-4.0894,-4.0894,-4.0894,-4.0894,-4.0894,-4.0894,-4.0894,-4.0894,-4.0894,-4.0894,-4.0894,-4.0894,-4.0894,-4.0894,-4.0894,-4.0894,-3.7207,-3.9425,-4.2328,-4.3944,-4.5417,-4.6795,-4.8124,-4.8426,-4.8513,-4.8783,-4.9139,-4.9551,-5.0075,-5.0859,-5.1974,-5.3534,-5.45,-5.5577,-5.7249,-5.6803,-5.658,-5.736,-5.6803,-5.6655,-5.7472,-5.8252,-5.8698,-5.8698,-5.8698,-5.8698,-5.8698,-5.8698,-5.8698,-5.8698,-5.8698,-5.8698,-5.8698,-5.8698,-5.8698,-5.8698,-5.8698,-5.8698,-5.8698,-5.8698,-5.8698,-5.8698,-5.8698,-5.8698,-5.8698,-5.8698,-5.8698,-5.8698,-5.8698,-5.8698,-5.8698,-5.8661,-5.8661,-5.8549,-5.7732,-5.7472,-5.7175,-5.554,-5.4983,-5.4815,-5.4035,-5.3756,-5.3543,-5.2549,-5.2276,-5.2042,-5.1096,-5.0196,-4.9493,-4.9423,-4.8198,-4.696,-4.6794,-4.6152,-4.5554,-4.5423,-4.5397,-4.5397,-4.5397,-4.5363,-4.5147,-4.4414,-4.4276,-4.369,-4.2171,-4.1343,-4.0894,-4.0894,-4.0894,-4.0894,-4.0894,-4.0894,-4.0894,-4.0894,-4.0894,-4.0894,-4.0894,-4.0894,-4.0894,-4.0894,-4.0894,-4.0894,-4.0894,-4.0894,-4.0894,-4.0894,-4.0894,-4.0894,-4.1983,-4.3178,-4.4253,-4.7067,-4.8095,-4.8631,-4.9449,-4.9617,-4.953,-4.9293,-4.9321,-4.938,-4.9368,-5.0042,-5.1305,-5.346,-5.45,-5.5763,-5.7992,-5.7621,-5.6989,-5.6729,-5.6952,-5.6989,-5.6729,-5.7435,-5.8141,-5.8661,-5.8698,-5.8698,-5.8698,-5.8698,-5.8698,-5.8698,-5.9218,-5.9494,-5.9494,-6.0072,-6.037,-6.037,-5.9775,-5.9218,-5.8698,-5.8698,-5.8698,-5.8698,-5.8698,-5.8698,-5.8698,-5.8698,-5.8698,-5.8698,-5.8698,-5.8698,-5.8698,-5.8698,-5.8698,-5.8661,-5.8401,-5.7955,-5.7398,-5.684,-5.5912,-5.4946,-5.4686,-5.4007,-5.3244,-5.295,-5.2549,-5.2229,-5.1934,-5.1362,-5.0774,-5.0206,-4.944,-4.8444,-4.7195,-4.6726,-4.63,-4.5553,-4.5397,-4.5397,-4.5397,-4.5397,-4.5328,-4.5079,-4.3733,-4.2585,-4.2068,-4.1378,-4.0894,-4.0894,-4.0894,-4.0894,-4.0894,-4.0894,-4.0894,-4.0894,-4.0894,-4.0894,-4.0894,-4.0894,-4.0894,-4.0894,-4.0894,-4.0894,-4.0894,-4.0894,-4.0894,-4.0894,-4.0894,-4.0894,-4.4358,-4.5333,-4.6028,-4.8822,-4.9625,-4.9803,-5.0126,-4.9907,-4.9493,-4.9032,-4.8777,-4.8544,-4.812,-4.8807,-5.0219,-5.2549,-5.3868,-5.5466,-5.7918,-5.7843,-5.7323,-5.6803,-5.6952,-5.6989,-5.6766,-5.7212,-5.7843,-5.8661,-5.8698,-5.8698,-5.8698,-5.8995,-5.9144,-5.9144,-5.9924,-6.037,-6.037,-6.0927,-6.1038,-6.0741,-6.0184,-5.9478,-5.8698,-5.8698,-5.8698,-5.8698,-5.8698,-5.8698,-5.8698,-5.8698,-5.8698,-5.8698,-5.8698,-5.8698,-5.8698,-5.8698,-5.8698,-5.8698,-5.8698,-5.8364,-5.7881,-5.7583,-5.658,-5.5429,-5.5094,-5.4229,-5.3322,-5.3178,-5.2827,-5.2526,-5.2345,-5.2065,-5.1705,-5.1008,-5.0388,-4.9546,-4.8129,-4.7605,-4.7082,-4.6002,-4.5811,-4.5742,-4.5432,-4.5397,-4.5397,-4.5397,-4.394,-4.2723,-4.2482,-4.1757,-4.1205,-4.0929,-4.0894,-4.0894,-4.0894,-4.0894,-4.0894,-4.0894,-4.0894,-4.0894,-4.0894,-4.0894,-4.0894,-4.0894,-4.0894,-4.0894,-4.0894,-4.0894,-4.0894,-4.0894,-4.0894,-4.0799,-4.4513,-4.6005,-4.7681,-4.9255,-5.0008,-5.0336,-5.018,-4.934,-4.8513,-4.8077,-4.7555,-4.6979,-4.6376,-4.7211,-4.8674,-5.0856,-5.2679,-5.4686,-5.7138,-5.7546,-5.7546,-5.7509,-5.6878,-5.6729,-5.7435,-5.7546,-5.7918,-5.8698,-5.8772,-5.8772,-5.8772,-5.9552,-5.9998,-5.9998,-6.0815,-6.1261,-6.1261,-6.1298,-6.089,-6.0035,-5.9977,-5.9552,-5.8772,-5.8735,-5.8698,-5.8698,-5.8698,-5.8698,-5.8698,-5.8698,-5.8698,-5.8698,-5.8698,-5.8698,-5.8698,-5.8698,-5.8698,-5.8698,-5.8698,-5.8698,-5.8586,-5.7806,-5.7026,-5.6209,-5.5354,-5.45,-5.3735,-5.3281,-5.3157,-5.3014,-5.2504,-5.2368,-5.2229,-5.1799,-5.1044,-5.0261,-4.9493,-4.8719,-4.7846,-4.6857,-4.6631,-4.6355,-4.5535,-4.5397,-4.5397,-4.5397,-4.4803,-4.4104,-4.3345,-4.2516,-4.1723,-4.1032,-4.0929,-4.0894,-4.0894,-4.0894,-4.0894,-4.0894,-4.0894,-4.0894,-4.0894,-4.0894,-4.0894,-4.0894,-4.0894,-4.0894,-4.0894,-4.0894,-4.0894,-4.0894,-4.0894,-4.0597,-4.7558,-4.907,-5.0109,-5.1096,-5.1443,-5.109,-4.9652,-4.9114,-4.845,-4.6858,-4.595,-4.5004,-4.3566,-4.4899,-4.681,-4.8595,-5.1654,0.0,-5.7138,-5.8029,-5.8178,-5.7583,-5.7843,-5.7918,-5.7546,-5.8029,-5.8735,-5.9531,-5.9568,-5.9568,-5.9568,-6.0407,-6.089,-6.089,-6.167,-6.2116,-6.2116,-6.271,-6.2599,-6.1781,-6.115,-6.0444,-5.9589,-5.8995,-5.8698,-5.8698,-5.8698,-5.8698,-5.8698,-5.8698,-5.8698,-5.8698,-5.8698,-5.8698,-5.8698,-5.8698,-5.8698,-5.8698,-5.8698,-5.8698,-5.8661,-5.8475,-5.7843,-5.7063,-5.6209,-5.5391,-5.4535,-5.3807,-5.3639,-5.3563,-5.3464,-5.3162,-5.2886,-5.2755,-5.1981,-5.1037,-5.0002,-4.9398,-4.868,-4.7617,-4.6975,-4.6355,-4.5535,-4.5397,-4.5397,-4.5397,-4.5225,-4.4872,-4.4104,-4.2861,-4.193,-4.1757,-4.124,-4.0894,-4.0894,-4.0894,-4.0894,-4.0894,-4.0894,-4.0894,-4.0894,-4.0894,-4.0894,-4.0894,-4.0894,-4.0894,-4.0894,-4.0894,-4.0894,-4.0894,-4.0894,-4.0823,-4.9542,-5.0975,-5.1913,-5.1953,-5.1645,-5.0788,-4.8593,-4.7378,-4.6238,-4.4357,-4.3335,-4.2394,-4.1203,-4.3013,-4.5251,0.0,0.0,0.0,-5.6617,-5.7992,-5.8549,-5.8103,-5.8735,-5.9069,-5.8624,-5.9329,-5.9998,-6.0444,-6.0147,-6.0072,-6.0444,-6.1261,-6.1744,-6.1744,-6.2524,-6.2933,-6.2933,-6.3379,-6.3193,-6.2413,-6.1596,-6.0741,-5.9865,-5.9069,-5.8698,-5.8698,-5.8698,-5.8698,-5.8698,-5.8698,-5.8698,-5.8698,-5.8698,-5.8698,-5.8698,-5.8698,-5.8698,-5.8698,-5.8698,-5.8698,-5.8698,-5.8698,-5.8178,-5.7435,-5.6952,-5.5986,-5.4909,-5.4463,-5.4091,-5.3794,-5.3794,-5.3583,-5.3363,-5.3141,-5.2688,-5.1946,-5.0779,-5.0321,-4.9641,-4.8017,-4.7086,-4.6355,-4.5535,-4.5397,-4.5397,-4.5397,-4.5397,-4.5225,-4.4837,-4.3733,-4.2896,-4.2551,-4.1861,-4.1378,-4.1378,-4.1101,-4.0894,-4.0894,-4.0894,-4.0894,-4.0894,-4.0894,-4.0894,-4.0894,-4.0894,-4.0894,-4.0894,-4.0894,-4.0894,-4.0894,-4.0894,-4.0776,-5.1069,-5.2355,-5.3262,-5.2309,-5.1471,-5.0125,-4.7328,-4.5141,-4.3194,-4.1284,-4.0282,-3.9594,-3.8991,-4.1227,-4.3831,-4.5923,0.0,-5.3237,-5.5912,-5.7583,-5.8624,-5.8846,-5.9478,-5.9961,-6.0072,-6.0778,-6.1261,-6.1373,-6.0667,-6.0555,-6.1336,-6.2116,-6.2562,-6.2562,-6.3267,-6.3602,-6.3602,-6.3602,-6.3267,-6.2562,-6.1633,-6.0815,-6.0035,-5.9144,-5.8698,-5.8698,-5.8698,-5.8698,-5.8698,-5.8698,-5.8698,-5.8698,-5.8698,-5.8698,-5.8698,-5.8698,-5.8698,-5.8698,-5.8698,-5.8698,-5.8698,-5.8698,-5.8252,-5.7658,-5.7546,-5.6506,-5.528,-5.5057,-5.45,-5.3943,-5.3831,-5.3794,-5.3698,-5.3302,-5.3178,-5.2777,-5.154,-5.114,-5.0408,-4.8252,-4.7251,-4.6493,-4.5707,-4.5466,-4.5397,-4.5397,-4.5397,-4.5397,-4.5397,-4.4768,-4.4069,-4.3414,-4.262,-4.2171,-4.2171,-4.1481,-4.1067,-4.1067,-4.0963,-4.0894,-4.0894,-4.0894,-4.0894,-4.0894,-4.0894,-4.0894,-4.0894,-4.0894,-4.0894,-4.0894,-4.0894,-4.0621,-5.3421,-5.4196,-5.415,-5.3282,-5.2386,-5.0624,-4.6492,-4.4172,0.0,-3.8973,-3.8173,-3.7647,-3.6411,-3.9079,-4.2181,-4.4557,-4.8114,-5.1936,-5.5763,-5.71,-5.8215,0.0,-5.9812,-6.0163,-6.089,-6.1113,-6.1484,-6.2153,-6.2041,-6.2041,-6.219,-6.297,-6.3416,-6.3416,-6.3527,-6.3602,-6.3602,-6.3602,-6.3527,-6.3379,-6.1893,-6.1113,-6.0927,-5.9404,-5.8698,-5.8698,-5.8698,-5.8698,-5.8698,-5.8698,-5.8698,-5.8698,-5.8698,-5.8698,-5.8698,-5.8698,-5.8698,-5.8698,-5.8698,-5.8698,-5.8698,-5.8698,-5.8624,-5.8364,-5.7695,-5.7323,-5.6803,-5.5391,-5.4909,-5.4648,-5.398,-5.3794,-5.3775,-5.3698,-5.3383,-5.2886,-5.1994,-5.0947,-4.9872,-4.8803,-4.8017,-4.7258,-4.65,-4.5845,-4.5397,-4.5397,-4.5397,-4.5397,-4.5397,-4.4768,-4.4242,-4.4104,-4.3448,-4.3,-4.3,-4.2275,-4.1826,-4.1826,-4.124,-4.0894,-4.0894,-4.0894,-4.0894,-4.0894,-4.0894,-4.0894,-4.0894,-4.0894,-4.0894,-4.0894,-4.0894,-4.0847,-5.37,-5.4648,-5.4997,-5.3649,-5.2154,-4.9872,-4.5188,0.0,0.0,-3.655,-3.5522,-3.5085,-3.4733,-3.7062,0.0,-4.2748,-4.6044,-4.9856,-5.4351,-5.5689,-5.7138,-5.9627,-6.0295,-6.0927,-6.1744,-6.219,-6.2636,-6.3007,-6.3044,-6.3044,-6.3044,-6.3416,-6.3602,-6.3602,-6.3602,-6.3602,-6.3602,-6.3602,-6.3602,-6.3602,-6.1967,-6.1187,-6.115,-5.9478,-5.8698,-5.8698,-5.8698,-5.8698,-5.8698,-5.8698,-5.8698,-5.8698,-5.8698,-5.8698,-5.8698,-5.8698,-5.8698,-5.8698,-5.8698,-5.8698,-5.8698,-5.8698,-5.8698,-5.8624,-5.8252,-5.7843,-5.7249,-5.6023,-5.5354,-5.4834,-5.4017,-5.3794,-5.3794,-5.3794,-5.3306,-5.2718,-5.2029,-5.1131,-5.0105,-4.9004,-4.8499,-4.8017,-4.732,-4.6535,-4.6017,-4.6017,-4.5673,-4.5397,-4.5397,-4.5113,-4.4872,-4.4872,-4.4207,-4.3759,-4.3759,-4.3069,-4.2447,-4.2033,-4.1688,-4.1309,-4.0929,-4.0894,-4.0894,-4.0894,-4.0894,-4.0894,-4.0894,-4.0894,-4.0894,-4.0894,-4.0894,-4.0894,-5.3593,-5.4821,-5.5557,-5.3745,-5.1836,-4.9122,-4.4234,-4.0836,0.0,-3.4616,-3.3293,-3.2936,-3.3554,-3.5397,-3.798,0.0,-4.4123,-4.7673,-5.3107,-5.439,-5.6097,0.0,-6.0778,0.0,-6.2562,-6.323,0.0,-6.3602,-6.3602,-6.3602,-6.3602,-6.3602,-6.3602,-6.3602,-6.3602,-6.3602,-6.3602,-6.3602,-6.3602,-6.3602,-6.2153,-6.1373,-6.115,-5.9664,-5.8884,-5.8698,-5.8698,-5.8698,-5.8698,-5.8698,-5.8698,-5.8698,-5.8698,-5.8698,-5.8698,-5.8698,-5.8698,-5.8698,-5.8698,-5.8698,-5.8698,-5.8698,-5.8698,-5.8698,-5.8698,-5.8252,-5.7583,-5.6766,-5.5949,-5.5094,-5.4277,-5.3943,-5.3794,-5.3794,-5.3244,-5.2607,-5.2006,-5.1327,-5.0492,-4.9296,-4.8913,-4.8603,-4.8017,-4.732,-4.6803,-4.6631,-4.6052,-4.5604,-4.5432,-4.5397,-4.5397,-4.5397,-4.4872,-4.4552,-4.4552,-4.3862,-4.3172,-4.2551,-4.2344,-4.1999,-4.1412,-4.124,-4.1136,-4.1136,-4.0998,-4.0894,-4.0894,-4.0894,-4.0894,-4.0894,-4.0894,-4.0894,-5.4207,-5.5284,-5.548,-5.3744,-5.1963,-4.9365,-4.4322,0.0,-3.7126,-3.3786,-3.2424,-3.2042,-3.284,-3.4267,-3.6907,-4.1736,-4.3014,-4.5941,0.0,0.0,0.0,-6.0518,0.0,0.0,-6.3342,-6.3565,-6.3602,-6.3602,-6.3602,-6.3602,-6.3602,-6.3602,-6.3602,-6.3602,-6.3602,-6.3602,-6.3602,-6.3602,-6.3602,-6.3579,-6.271,-6.193,-6.1187,-6.0221,-5.9404,-5.8698,-5.8698,-5.8698,-5.8698,-5.8698,-5.8698,-5.8698,-5.8698,-5.8698,-5.8698,-5.8698,-5.8698,-5.8698,-5.8698,-5.8698,-5.8698,-5.8698,-5.8698,-5.8698,-5.8698,-5.8661,-5.8438,-5.7621,-5.6803,-5.5986,-5.5131,-5.4351,-5.3794,-5.3794,-5.3343,-5.2696,-5.2029,-5.1368,-5.067,-5.0017,-4.9292,-4.8775,-4.8706,-4.8086,-4.7389,-4.67,-4.6562,-4.6251,-4.55,-4.5397,-4.5397,-4.5397,-4.5328,-4.5294,-4.5294,-4.463,-4.4173,-4.4104,-4.3448,-4.3069,-4.3,-4.2309,-4.1895,-4.1895,-4.124,-4.0894,-4.0894,-4.0894,-4.0894,-4.0894,-4.0894,-4.0894,-5.2901,-5.4555,-5.5555,-5.3799,-5.1953,-4.9288,-4.4322,-4.0446,-3.6962,-3.3732,-3.1951,-3.1383,-3.2736,-3.3314,-3.5081,-3.9643,-4.0254,-4.2468,-4.9054,0.0,0.0,-5.8477,-5.9492,0.0,0.0,0.0,-6.3602,-6.3602,-6.3602,-6.3602,-6.3602,-6.3602,-6.3602,-6.3602,-6.3602,-6.3602,-6.3602,-6.3602,-6.3602,-6.3602,-6.2301,-6.1521,-6.115,-5.9812,-5.8995,-5.8698,-5.8698,-5.8698,-5.8698,-5.8698,-5.8698,-5.8698,-5.8698,-5.8698,-5.8698,-5.8698,-5.8698,-5.8698,-5.8698,-5.8698,-5.8698,-5.8698,-5.8698,-5.8698,-5.8698,-5.8698,-5.8549,-5.7732,-5.7286,-5.6729,-5.5354,-5.4426,-5.3794,-5.3794,-5.3541,-5.3115,-5.2504,-5.1825,-5.1131,-5.0592,-4.9957,-4.9528,-4.9528,-4.8879,-4.8258,-4.7948,-4.7534,-4.6983,-4.6224,-4.6121,-4.5914,-4.5466,-4.5397,-4.5397,-4.5397,-4.5121,-4.4768,-4.4345,-4.4035,-4.3655,-4.3207,-4.2896,-4.2723,-4.2723,-4.2413,-4.2275,-4.2275,-4.2275,-4.2275,-4.2275,-4.2275,-4.2275,-5.1439,-5.3489,-5.4817,-5.3091,-5.1248,-4.8632,-4.3936,-4.0275,-3.7053,-3.4085,-3.2276,-3.167,-3.3088,-3.321,-3.4374,-3.8376,-3.8847,-4.0847,-4.6872,-4.8054,0.0,0.0,0.0,-5.9268,-6.2227,-6.3193,-6.3602,-6.3602,-6.3602,-6.3602,-6.3602,-6.3602,-6.3602,-6.3602,-6.3602,-6.3602,-6.3602,-6.3602,-6.3602,-6.3602,-6.2227,-6.1447,-6.115,-5.9701,-5.8958,-5.8698,-5.8698,-5.8698,-5.8698,-5.8698,-5.8698,-5.8698,-5.8698,-5.8698,-5.8698,-5.8698,-5.8698,-5.8698,-5.8698,-5.8698,-5.8698,-5.8698,-5.8698,-5.8698,-5.8698,-5.8698,-5.8586,-5.8029,-5.7695,-5.71,-5.5466,-5.4574,-5.4091,-5.3868,-5.3696,-5.34,-5.2806,-5.2149,-5.1475,-5.091,-5.0341,-5.0011,-5.0011,-4.9528,-4.9051,-4.8844,-4.8361,-4.7741,-4.7044,-4.6734,-4.6389,-4.5811,-4.5535,-4.5397,-4.5397,-4.5397,-4.5156,-4.4665,-4.463,-4.4389,-4.3871,-4.3655,-4.3517,-4.3517,-4.331,-4.3207,-4.3207,-4.3207,-4.3207,-4.3207,-4.3207,-4.3207,-5.0233,-5.2142,-5.3005,-5.1344,-4.9611,-4.7224,-4.2985,-3.9972,-3.7372,-3.4812,-3.3572,-3.3201,-3.4026,-3.4205,-3.5315,-3.8738,-3.9721,-4.2133,-4.8064,-4.9416,0.0,0.0,-5.6215,-5.7566,-5.9722,-6.2153,-6.3602,-6.3602,-6.3602,-6.3602,-6.3602,-6.3602,-6.3602,-6.3602,-6.3602,-6.3602,-6.3602,-6.3602,-6.3602,-6.3579,-6.2784,-6.1967,-6.1187,-6.0295,-5.9478,-5.8698,-5.8698,-5.8698,-5.8698,-5.8698,-5.8698,-5.8698,-5.8698,-5.8698,-5.8698,-5.8698,-5.8698,-5.8698,-5.8698,-5.8698,-5.8698,-5.8698,-5.8698,-5.8698,-5.8698,-5.8698,-5.8698,-5.8698,-5.8103,-5.71,-5.5466,-5.4983,-5.4797,-5.398,-5.3735,-5.3518,-5.2827,-5.2183,-5.153,-5.0937,-5.0341,-5.0011,-5.0011,-5.0011,-4.9735,-4.8913,-4.8775,-4.8499,-4.7775,-4.7052,-4.6596,-4.6596,-4.588,-4.5397,-4.5397,-4.5397,-4.5397,-4.5397,-4.5397,-4.5397,-4.5363,-4.4665,-4.4276,-4.4276,-4.3552,-4.3207,-4.3207,-4.3207,-4.3207,-4.3207,-4.3207,-4.3207,-4.5483,-4.7796,-4.9452,-4.717,-4.6189,-4.4798,-4.1139,-3.9206,-3.746,-3.4908,-3.3639,-3.3251,-3.4115,-3.4231,-3.5612,-3.9974,-4.0845,-4.2659,-4.74,0.0,0.0,-5.5357,-5.9101,-6.1688,-6.2376,-6.3156,-6.3602,-6.3602,-6.3602,-6.3602,-6.3602,-6.3602,-6.3602,-6.3602,-6.3602,-6.3602,-6.3602,-6.3602,-6.3602,-6.3602,-6.2227,-6.1447,-6.115,-5.9738,-5.8958,-5.8698,-5.8698,-5.8698,-5.8698,-5.8698,-5.8698,-5.8698,-5.8698,-5.8698,-5.8698,-5.8698,-5.8698,-5.8698,-5.8698,-5.8698,-5.8698,-5.8698,-5.8698,-5.8698,-5.8698,-5.8698,-5.8698,-5.8698,-5.8141,-5.7249,-5.6172,-5.5466,-5.4797,-5.398,-5.3696,-5.3518,-5.3281,-5.2381,-5.1601,-5.1373,-5.062,-5.0011,-5.0011,-5.0011,-4.9907,-4.9666,-4.9631,-4.9355,-4.8534,-4.8224,-4.7707,-4.6734,-4.6362,-4.5983,-4.5432,-4.5397,-4.5397,-4.5397,-4.5397,-4.5397,-4.5397,-4.5156,-4.5044,-4.5044,-4.4837,-4.4699,-4.4699,-4.4699,-4.4699,-4.4699,-4.4699,-4.4699,-4.1932,-4.4369,-4.6032,-4.4098,-4.3401,-4.2434,-3.9649,-3.8334,-3.7168,-3.5267,-3.4384,-3.4156,-3.4667,-3.4713,-3.5842,-3.9356,-4.0577,-4.246,-4.6496,-4.8983,-5.1865,-5.5755,-5.9751,-6.2317,-6.2673,-6.3267,-6.3602,-6.3602,-6.3602,-6.3602,-6.3602,-6.3602,-6.3602,-6.3602,-6.3602,-6.3602,-6.3602,-6.3602,-6.3453,-6.3156,-6.1819,-6.1038,-6.0667,-5.9329,-5.8698,-5.8698,-5.8698,-5.8698,0.0,-5.8698,-5.8698,-5.8698,-5.8698,-5.8698,-5.8698,-5.8698,-5.8698,-5.8698,-5.8698,-5.8698,-5.8698,-5.8698,-5.8698,-5.8698,-5.8698,-5.8698,-5.8698,-5.8698,-5.8364,-5.7769,-5.6952,-5.6134,-5.528,-5.4463,-5.3918,-5.3558,-5.3501,-5.2688,-5.1861,-5.1651,-5.091,-5.0235,-5.004,-5.0011,-5.0011,-5.0011,-5.0011,-4.9838,-4.9292,-4.8982,-4.843,-4.7534,-4.6941,-4.6424,-4.588,-4.5569,-4.5397,-4.5397,-4.5397,-4.5397,-4.5397,-4.5397,-4.5397,-4.5397,-4.5397,-4.5397,-4.5397,-4.5397,-4.5397,-4.5397,-4.5397,-4.5397,0.0,-4.1429,-4.255,-4.1583,-4.0848,-3.9881,-3.8212,-3.7245,0.0,-3.567,-3.551,-3.5525,-3.5657,-3.5644,-3.6154,-3.7959,-3.9704,-4.2132,-4.5823,-4.8846,-5.2261,-5.6514,-5.8865,-6.0481,-6.1298,-6.2747,-6.3602,-6.3602,-6.3602,-6.3602,-6.3602,-6.3602,-6.3602,-6.3602,-6.3602,-6.3602,-6.3602,-6.3602,-6.3193,-6.2413,-6.1596,-6.0741,-5.9865,-5.9069,-5.8698,-5.8698,-5.8698,-5.8698,-5.8698,-5.8698,-5.8698,-5.8698,-5.8698,-5.8698,-5.8698,-5.8698,-5.8698,-5.8698,-5.8698,-5.8698,-5.8698,-5.8698,-5.8698,-5.8698,-5.8698,-5.8698,-5.8698,-5.8698,-5.8698,-5.8512,-5.7732,-5.6952,-5.6172,-5.5243,-5.4365,-5.3711,-5.3538,-5.2972,-5.2335,-5.1725,-5.1175,-5.0647,-5.0063,-5.0011,-5.0011,-5.0011,-5.0011,-5.0011,-5.0011,-4.9355,-4.8844,-4.881,-4.7569,-4.6734,-4.67,-4.588,-4.5397,-4.5397,-4.5397,-4.5397,-4.5397,-4.5397,-4.5397,-4.5397,-4.5397,-4.5397,-4.5397,-4.5397,-4.5397,-4.5397,-4.5397,-4.5397,-3.3654,0.0,-3.7135,-3.5582,-3.5549,-3.5632,0.0,-3.4659,-3.493,-3.4731,-3.4638,-3.5183,-3.7148,-3.6922,-3.8016,-4.2611,-4.3943,-4.5659,-4.9286,-5.3428,-5.7057,-5.9814,-6.1676,-6.2822,-6.3044,-6.3379,-6.3602,-6.3602,-6.3602,-6.3602,-6.3602,-6.3602,-6.3602,-6.3602,-6.3602,-6.3602,-6.3602,-6.3602,-6.3193,-6.2413,-6.1596,-6.0741,-5.9865,-5.9069,-5.8698,-5.8698,-5.8698,-5.8698,-5.8698,-5.8698,-5.8698,-5.8698,-5.8698,-5.8698,-5.8698,-5.8698,-5.8698,-5.8698,-5.8698,-5.8698,-5.8698,-5.8698,-5.8698,-5.8698,-5.8698,-5.8698,-5.8698,-5.8698,-5.8698,-5.8512,-5.7732,-5.736,-5.684,-5.5354,-5.481,-5.4415,-5.3649,-5.2972,-5.2335,-5.1725,-5.1175,-5.0647,-5.0063,-5.0011,-5.0011,-5.0011,-5.0011,-5.0011,-5.0011,-4.9838,-4.9493,-4.8844,-4.8465,-4.8051,-4.7465,-4.619,-4.5397,-4.5397,-4.5397,-4.5397,-4.5397,-4.5397,-4.5397,-4.5397,-4.5397,-4.5397,-4.5397,-4.5397,-4.5397,-4.5397,-4.5397,-4.5397,-3.1255,-3.3692,-3.6013,-3.5079,-3.551,-3.6013,-3.5544,-3.5201,-3.5013,-3.5013,-3.4958,-3.557,-3.7553,-3.7509,-3.8673,-4.3096,-4.4582,-4.6961,-5.1987,-5.6045,-5.9234,-6.1205,-6.2529,-6.3376,-6.3565,-6.3764,-6.3894,-6.3894,-6.4009,-6.4111,-6.4111,-6.3963,-6.3894,-6.3894,-6.3341,-6.3044,-6.3044,-6.3044,-6.245,-6.1261,-6.0815,-6.0184,-5.9329,-5.8921,-5.8698,-5.8698,-5.8698,-5.8698,-5.8698,-5.8698,-5.8698,-5.8698,-5.8698,-5.8698,-5.8698,-5.8698,-5.8698,-5.8698,-5.8698,-5.8698,-5.8698,-5.8698,-5.8698,-5.8698,-5.8698,-5.8698,-5.8698,-5.8698,-5.8698,-5.8624,-5.8178,-5.7769,-5.7286,-5.6357,-5.5518,-5.4771,-5.4186,-5.3477,-5.2777,-5.209,-5.1525,-5.0991,-5.0453,-5.0149,-5.0011,-5.0011,-5.0011,-5.0011,-5.0011,-5.0011,-4.9838,-4.9424,-4.9016,-4.8637,-4.8224,-4.7121,-4.6293,-4.5949,-4.5604,-4.5397,-4.5397,-4.5397,-4.5397,-4.5397,-4.5397,-4.5397,-4.5397,-4.5397,-4.5397,-4.5397,-4.5397,-4.5397,-3.1062,-3.4079,-3.698,-3.6439,-3.7168,-3.798,-3.7864,-3.6709,-3.5742,-3.5858,-3.5897,-3.6369,-3.7961,-3.8388,-3.9582,-4.2818,-4.4978,-4.8283,-5.4193,-5.7386,-5.9759,-6.1426,-6.2306,-6.3065,-6.3661,-6.3984,-6.4212,-6.4271,-6.4557,-6.4699,-6.4699,-6.4256,-6.3984,-6.3984,-6.2838,-6.2153,-6.2041,-6.2153,-6.1447,-5.9903,-5.9903,-5.9478,-5.8698,-5.8698,-5.8698,-5.8698,-5.8698,-5.8698,-5.8698,-5.8698,-5.8698,-5.8698,-5.8698,-5.8698,-5.8698,-5.8698,-5.8698,-5.8698,-5.8698,-5.8698,-5.8698,-5.8698,-5.8698,-5.8698,-5.8698,-5.8698,-5.8698,-5.8698,-5.8698,-5.8698,-5.8698,-5.8215,-5.7658,-5.7546,-5.6432,-5.5258,-5.4818,-5.4166,-5.3424,-5.2477,-5.1922,-5.1398,-5.0776,-5.032,-5.0011,-5.0011,-5.0011,-5.0011,-5.0011,-5.0011,-5.0011,-5.0011,-4.9361,-4.8982,-4.8982,-4.8293,-4.7603,-4.6975,-4.6086,-4.5535,-4.5397,-4.5397,-4.5397,-4.5397,-4.5397,-4.5397,-4.5397,-4.5397,-4.5397,-4.5397,-4.5397,-4.5397,-3.3233,-3.5858,-3.7323,-3.4422,-3.5427,-3.6903,-3.6245,-3.5897,-3.5897,-3.6593,-3.6725,-3.7572,-4.0415,-4.1673,-4.3525,-4.7352,-5.0886,-5.3936,-5.6093,-5.7752,-5.9376,-6.1071,-6.198,-6.2891,-6.4012,-6.4169,-6.433,-6.4592,-6.4681,-6.4699,-6.4699,-6.3691,-6.3083,-6.3083,-6.1981,-6.1038,-6.0274,-6.1038,-6.089,-5.9903,-5.9903,-5.9478,-5.8698,-5.8698,-5.8698,-5.8698,-5.8698,-5.8698,-5.8698,-5.8698,-5.8698,-5.8698,-5.8698,-5.8698,-5.8698,-5.8698,-5.8698,-5.8698,-5.8698,-5.8698,-5.8698,-5.8698,-5.8698,-5.8698,-5.8698,-5.8698,-5.8698,-5.8698,-5.8698,-5.8698,-5.8698,-5.8624,-5.8364,-5.7658,-5.7323,-5.6689,-5.5195,-5.4687,-5.3986,-5.2162,-5.169,-5.1305,-5.0291,-5.0068,-5.0011,-5.0011,-5.0011,-5.0011,-5.0011,-5.0011,-5.0011,-5.0011,-4.9907,-4.9838,-4.9838,-4.9085,-4.8568,-4.8465,-4.7155,-4.6086,-4.5432,-4.5397,-4.5397,-4.5397,-4.5397,-4.5397,-4.5397,-4.5397,-4.5397,-4.5397,-4.5397,-4.5397,-3.257,-3.5201,-3.7245,-3.6124,-3.8035,-4.0097,-3.9711,-3.894,-3.8362,-3.8709,-3.8923,-3.9764,-4.2183,-4.3385,-4.554,-5.0183,-5.3688,-5.6161,-5.7263,-5.8334,-5.9494,-6.0905,-6.1412,-6.2015,-6.3031,-6.3323,-6.3512,-6.3676,-6.3848,-6.3953,-6.3953,-6.3264,-6.2752,-6.252,-6.1428,-6.0526,-5.9924,-5.9887,-5.9664,-5.9255,-5.9255,-5.9069,-5.8698,-5.8698,-5.8698,-5.8698,-5.8698,-5.8698,-5.8698,-5.8698,-5.8698,-5.8698,-5.8698,-5.8698,-5.8698,-5.8698,-5.8698,-5.8698,-5.8698,-5.8698,-5.8698,-5.8698,-5.8698,-5.8698,-5.8698,-5.8698,-5.8698,-5.8698,-5.8698,-5.8698,-5.8698,-5.8698,-5.8624,-5.8252,-5.7843,-5.7245,-5.6364,-5.541,-5.4407,-5.3462,-5.2591,-5.1775,-5.1017,-5.0647,-5.0313,-5.0068,-5.0011,-5.0011,-5.0011,-5.0011,-5.0011,-5.0011,-5.0011,-5.0011,-5.0011,-4.9666,-4.9085,-4.8258,-4.7569,-4.7017,-4.6638,-4.6259,-4.6052,-4.6052,-4.5604,-4.5397,-4.5397,-4.5397,-4.5397,-4.5397,-4.5397,-4.5397,-3.2338,-3.4775,-3.7251,-3.8715,-4.0949,-4.2941,-4.3519,-4.2439,-4.1467,-4.2036,-4.2247,-4.2774,-4.4178,-4.5796,-4.8369,-5.2963,-5.5731,-5.749,-5.8072,-5.8784,-5.9626,-6.076,-6.0955,-6.1342,-6.2243,-6.2612,-6.283,-6.2901,-6.3156,-6.3308,-6.3308,-6.2779,-6.2353,-6.2064,-6.0934,-6.0135,-5.9736,-5.9102,-5.8801,-5.8698,-5.8698,-5.8698,-5.8698,-5.8698,-5.8698,-5.8698,-5.8698,-5.8698,-5.8698,-5.8698,-5.8698,-5.8698,-5.8698,-5.8698,-5.8698,-5.8698,-5.8698,-5.8698,-5.8698,-5.8698,-5.8698,-5.8698,-5.8698,-5.8698,-5.8698,-5.8698,-5.8698,-5.8698,-5.8698,-5.8698,-5.8698,-5.8698,-5.8698,-5.8698,-5.8252,-5.7711,-5.7406,-5.6245,-5.5175,-5.4801,-5.3608,-5.245,-5.1811,-5.1202,-5.062,-5.0097,-5.0011,-5.0011,-5.0011,-5.0011,-5.0011,-5.0011,-5.0011,-5.0011,-5.0011,-5.0011,-4.9493,-4.8321,-4.8051,-4.7879,-4.7734,-4.7182,-4.6872,-4.6872,-4.6259,-4.5949,-4.5949,-4.5949,-4.5949,-4.5949,-4.5949,-4.5949,-3.4543,-3.6129,-3.7677,-4.0926,-4.1886,-4.2692,-4.5051,-4.4715,-4.4545,-4.681,-4.7089,-4.6934,-4.7024,-5.0299,-5.3836,-5.655,-5.813,-5.8934,-5.8689,-5.8968,-5.9515,-6.0436,-6.08,-6.1479,-6.2627,-6.2786,-6.2929,-6.3232,-6.3308,-6.3308,-6.3308,-6.2218,-6.1593,-6.154,-6.0447,-5.9668,-5.9234,-5.9197,-5.9006,-5.8698,-5.8698,-5.8698,-5.8698,-5.8698,-5.8698,-5.8698,-5.8698,-5.8698,-5.8698,-5.8698,-5.8698,-5.8698,-5.8698,-5.8698,-5.8698,-5.8698,-5.8698,-5.8698,-5.8698,-5.8698,-5.8698,-5.8698,-5.8698,-5.8698,-5.8698,-5.8698,-5.8698,-5.8698,-5.8698,-5.8698,-5.8698,-5.8698,-5.8698,-5.8698,-5.8661,-5.8401,-5.7637,-5.7249,-5.6639,-5.5313,-5.4213,-5.3207,-5.2156,-5.1314,-5.062,-5.0097,-5.0011,-5.0011,-5.0011,-5.0011,-5.0011,-5.0011,-5.0011,-5.0011,-5.0011,-5.0011,-4.9942,-4.9838,-4.912,-4.8396,-4.7707,-4.7638,-4.7603,-4.7603,-4.7534,-4.7534,-4.7534,-4.7534,-4.7534,-4.7534,-4.7534,-4.7534,-3.3455,-3.5853,-3.8295,-4.0655,-4.2821,-4.4667,-4.5896,-4.6674,-4.7712,-4.9685,-5.0388,-5.0774,-5.1243,-5.3119,-5.5119,-5.6731,-5.8214,-5.9159,-5.9045,-5.9325,-5.977,-6.0323,-6.0487,-6.0848,-6.148,-6.1557,-6.1594,-6.1731,-6.1743,-6.1743,-6.1743,-6.1312,-6.098,-6.0766,-6.0346,-5.982,-5.9215,-5.9215,-5.9045,-5.8698,-5.8698,-5.8698,-5.8698,-5.8698,-5.8698,-5.8698,-5.8698,-5.8698,-5.8698,-5.8698,-5.8698,-5.8698,-5.8698,-5.8698,-5.8698,-5.8698,-5.8698,-5.8698,-5.8698,-5.8698,-5.8698,-5.8698,-5.8698,-5.8698,-5.8698,-5.8698,-5.8698,-5.8698,-5.8698,-5.8698,-5.8698,-5.8698,-5.8698,-5.8698,-5.8698,-5.8624,-5.8326,-5.7719,-5.7069,-5.6536,-5.5625,-5.4464,-5.2798,-5.2244,-5.1573,-5.0189,-5.0011,-5.0011,-5.0011,-5.0011,-5.0011,-5.0011,-5.0011,-5.0011,-5.0011,-5.0011,-5.0011,-5.0011,-4.9735,-4.9424,-4.9148,-4.8637,-4.8361,-4.8361,-4.7913,-4.7672,-4.7672,-4.7672,-4.7672,-4.7672,-4.7672,-4.7672,-3.3532,-3.6439,-3.9417,-4.1158,-4.3863,-4.6433,-4.7679,-4.8876,-5.0338,-5.2563,-5.3263,-5.3773,-5.469,-5.5163,-5.5873,-5.7201,-5.842,-5.9252,-5.9379,-5.9723,-6.0061,-6.0279,-6.0376,-6.0546,-6.0769,-6.0781,-6.0781,-6.0781,-6.0781,-6.0781,-6.0781,-6.0781,-6.071,-6.0481,-6.0468,-6.0156,-5.9534,-5.945,-5.9197,-5.8865,-5.876,-5.8698,-5.8698,-5.8698,-5.8698,-5.8698,-5.8698,-5.8698,-5.8698,-5.8698,-5.8698,-5.8698,-5.8698,-5.8698,-5.8698,-5.8698,-5.8698,-5.8698,-5.8698,-5.8698,-5.8698,-5.8698,-5.8698,-5.8698,-5.8698,-5.8698,-5.8698,-5.8698,-5.8698,-5.8698,-5.8698,-5.8698,-5.8698,-5.8698,-5.8698,-5.8698,-5.8698,-5.8169,-5.7656,-5.7602,-5.683,-5.5668,-5.4082,-5.3253,-5.2315,-5.085,-5.0293,-5.0011,-5.0011,-5.0011,-5.0011,-5.0011,-5.0011,-5.0011,-5.0011,-5.0011,-5.0011,-5.0011,-5.0011,-5.0011,-5.0011,-4.9465,-4.9154,-4.9154,-4.8672,-4.8459,-4.8459,-4.8459,-4.8459,-4.8459,-4.8459,-4.8459,-3.5477,-3.8185,-4.1203,-4.2899,-4.5024,-4.7577,-5.0706,-5.1446,-5.2361,-5.5655,-5.5861,-5.5772,-5.6898,-5.6519,-5.6603,-5.8418,-5.9005,-5.9361,-5.9777,-6.0106,-6.0307,-6.0307,-6.0585,-6.0781,-6.0781,-6.0781,-6.0781,-6.0781,-6.0781,-6.0781,-6.0781,-6.0781,-6.0781,-6.0781,-6.0781,-6.0622,-6.0293,-5.9984,-5.9588,-5.9197,-5.8865,-5.8698,-5.8698,-5.8698,-5.8698,-5.8698,-5.8698,-5.8698,-5.8698,-5.8698,-5.8698,-5.8698,-5.8698,-5.8698,-5.8698,-5.8698,-5.8698,-5.8698,-5.8698,-5.8698,-5.8698,-5.8698,-5.8698,-5.8698,-5.8698,-5.8698,-5.8698,-5.8698,-5.8698,-5.8698,-5.8698,-5.8698,-5.8698,-5.8698,-5.8698,-5.8698,-5.8698,-5.8593,-5.8486,-5.8415,-5.7641,-5.6822,-5.6104,-5.4223,-5.265,-5.2064,-5.0856,-5.0011,-5.0011,-5.0011,-5.0011,-5.0011,-5.0011,-5.0011,-5.0011,-5.0011,-5.0011,-5.0011,-5.0011,-5.0011,-5.0011,-5.0011,-5.0011,-5.0011,-5.0011,-5.0011,-5.0011,-5.0011,-5.0011,-5.0011,-5.0011,-5.0011,-3.4897,-3.7721,-4.1358,-4.3634,-4.7268,-5.0873,-5.3009,-5.3819,-5.4955,-5.8106,-5.8311,-5.7974,-5.8044,-5.7889,-5.793,-5.8644,-5.9496,-6.0097,-6.0223,-6.0494,-6.0634,-6.0634,-6.0734,-6.0781,-6.0781,-6.0781,-6.0781,-6.0781,-6.0781,-6.0781,-6.0781,-6.0781,-6.0781,-6.0781,-6.0781,-6.0622,-6.0293,-5.9984,-5.9588,-5.9197,-5.8865,-5.8698,-5.8698,-5.8698,-5.8698,-5.8698,-5.8698,-5.8698,-5.8698,-5.8698,-5.8698,-5.8698,-5.8698,-5.8698,-5.8698,-5.8698,-5.8698,-5.8698,-5.8698,-5.8698,-5.8698,-5.8698,-5.8698,-5.8698,-5.8698,-5.8698,-5.8698,-5.8698,-5.8698,-5.8698,-5.8698,-5.8698,-5.8698,-5.8698,-5.8698,-5.8698,-5.8698,-5.8656,-5.8593,-5.8437,-5.8186,-5.7559,-5.6237,-5.5485,-5.4338,-5.2322,-5.1668,-5.1046,-5.0138,-5.0011,-5.0011,-5.0011,-5.0011,-5.0011,-5.0011,-5.0011,-5.0011,-5.0011,-5.0011,-5.0011,-5.0011,-5.0011,-5.0011,-5.0011,-5.0011,-5.0011,-5.0011,-5.0011,-5.0011,-5.0011,-5.0011,-5.0011,-3.7715,-4.081,-4.4394,-4.6854,-5.0182,-5.3451,-5.5818,-5.6629,-5.7442,-5.9374,-5.9455,-5.9125,-5.9017,-5.878,-5.8768,-5.9428,-5.9993,-6.0443,-6.0585,-6.0722,-6.0781,-6.0781,-6.0781,-6.0781,-6.0781,-6.0781,-6.0781,-6.0781,-6.0781,-6.0781,-6.0781,-6.0781,-6.0781,-6.0781,-6.0781,-6.071,-6.0507,-6.0179,-5.9804,-5.9432,-5.9083,-5.8825,-5.8698,-5.8698,-5.8698,-5.8698,-5.8698,-5.8698,-5.8698,-5.8698,-5.8698,-5.8698,-5.8698,-5.8698,-5.8698,-5.8698,-5.8698,-5.8698,-5.8698,-5.8698,-5.8698,-5.8698,-5.8698,-5.8698,-5.8698,-5.8698,-5.8698,-5.8698,-5.8698,-5.8698,-5.8698,-5.8698,-5.8698,-5.8698,-5.8698,-5.8698,-5.8698,-5.8698,-5.8635,-5.8465,-5.8415,-5.8076,-5.7045,-5.6394,-5.5458,-5.3813,-5.2696,-5.1598,-5.0446,-5.012,-5.0011,-5.0011,-5.0011,-5.0011,-5.0011,-5.0011,-5.0011,-5.0011,-5.0011,-5.0011,-5.0011,-5.0011,-5.0011,-5.0011,-5.0011,-5.0011,-5.0011,-5.0011,-5.0011,-5.0011,-5.0011,-5.0011,-4.2125,-4.549,-4.8732,-5.1203,-5.3367,-5.5696,-5.8803,-5.9557,-5.9622,-5.9855,-5.9712,-5.9587,-5.9779,-5.9376,-5.9327,-6.043,-6.0521,-6.0572,-6.0888,-6.0866,-6.0781,-6.0781,-6.0781,-6.0781,-6.0781,-6.0781,-6.0781,-6.0781,-6.0781,-6.0781,-6.0781,-6.0781,-6.0781,-6.0781,-6.0781,-6.0781,-6.0781,-6.0481,-6.0135,-5.9809,-5.9397,-5.9025,-5.8698,-5.8698,-5.8698,-5.8698,-5.8698,-5.8698,-5.8698,-5.8698,-5.8698,-5.8698,-5.8698,-5.8698,-5.8698,-5.8698,-5.8698,-5.8698,-5.8698,-5.8698,-5.8698,-5.8698,-5.8698,-5.8698,-5.8698,-5.8698,-5.8698,-5.8698,-5.8698,-5.8698,-5.8698,-5.8698,-5.8698,-5.8698,-5.8698,-5.8698,-5.8698,-5.8698,-5.8656,-5.8551,-5.8443,-5.8349,-5.8201,-5.7081,-5.6128,-5.6006,-5.3813,-5.186,-5.1013,-5.0474,-5.0138,-5.0011,-5.0011,-5.0011,-5.0011,-5.0011,-5.0011,-5.0011,-5.0011,-5.0011,-5.0011,-5.0011,-5.0011,-5.0011,-5.0011,-5.0011,-5.0011,-5.0011,-5.0011,-5.0011,-5.0011,-5.0011,-4.012,-4.3253,-4.7301,-5.1167,-5.5448,-5.9003,-6.0173,-6.059,-6.0671,-6.0531,-6.0479,-6.0378,-6.0151,-6.02,-6.039,-6.0642,-6.0777,-6.0922,-6.0965,-6.0888,-6.0781,-6.0781,-6.0781,-6.0781,-6.0781,-6.0781,-6.0781,-6.0781,-6.0781,-6.0781,-6.0781,-6.0781,-6.0781,-6.0781,-6.0781,-6.0781,-6.0781,-6.0481,-6.0135,-5.9809,-5.9397,-5.9025,-5.8698,-5.8698,-5.8698,-5.8698,-5.8698,-5.8698,-5.8698,-5.8698,-5.8698,-5.8698,-5.8698,-5.8698,-5.8698,-5.8698,-5.8698,-5.8698,-5.8698,-5.8698,-5.8698,-5.8698,-5.8698,-5.8698,-5.8698,-5.8698,-5.8698,-5.8698,-5.8698,-5.8698,-5.8698,-5.8698,-5.8698,-5.8698,-5.8698,-5.8698,-5.8698,-5.8698,-5.8656,-5.8551,-5.8443,-5.8349,-5.8201,-5.785,-5.7204,-5.6164,-5.4615,-5.3123,-5.1896,-5.166,-5.1172,-5.0103,-5.0011,-5.0011,-5.0011,-5.0011,-5.0011,-5.0011,-5.0011,-5.0011,-5.0011,-5.0011,-5.0011,-5.0011,-5.0011,-5.0011,-5.0011,-5.0011,-5.0011,-5.0011,-5.0011,-5.0011,-4.0771,-4.4446,-4.8894,-5.4009,-5.7795,-6.038,-6.0794,-6.1002,-6.1051,-6.0941,-6.0784,-6.0669,-6.0482,-6.0582,-6.0739,-6.086,-6.0941,-6.099,-6.0997,-6.0922,-6.0854,-6.0793,-6.0781,-6.0781,-6.0781,-6.0781,-6.0781,-6.0781,-6.0781,-6.0781,-6.0781,-6.0781,-6.0781,-6.0781,-6.0781,-6.0781,-6.0781,-6.061,-6.0362,-6.0007,-5.9673,-5.9215,-5.8698,-5.8698,-5.8698,-5.8698,-5.8698,-5.8698,-5.8698,-5.8698,-5.8698,-5.8698,-5.8698,-5.8698,-5.8698,-5.8698,-5.8698,-5.8698,-5.8698,-5.8698,-5.8698,-5.8698,-5.8698,-5.8698,-5.8698,-5.8698,-5.8698,-5.8698,-5.8698,-5.8698,-5.8698,-5.8698,-5.8698,-5.8698,-5.8698,-5.8698,-5.8698,-5.8698,-5.8677,-5.8614,-5.8508,-5.8437,-5.8327,-5.8111,-5.7634,-5.6572,-5.557,-5.4323,-5.2608,-5.2463,-5.2011,-5.0655,-5.0528,-5.0528,-5.0528,-5.0218,-5.0011,-5.0011,-5.0011,-5.0011,-5.0011,-5.0011,-5.0011,-5.0011,-5.0011,-5.0011,-5.0011,-5.0011,-5.0011,-5.0011,-5.0011,-5.0011,-4.0965,-4.5761,-5.1099,-5.6902,-5.9485,-6.0663,-6.1003,-6.1118,-6.1118,-6.1118,-6.0941,-6.0762,-6.0762,-6.0762,-6.0828,-6.1051,-6.1041,-6.0982,-6.0997,-6.0944,-6.0888,-6.0793,-6.0781,-6.0781,-6.0781,-6.0781,-6.0781,-6.0781,-6.0781,-6.0781,-6.0781,-6.0781,-6.0781,-6.0781,-6.0781,-6.0781,-6.0781,-6.0781,-6.061,-6.0293,-5.9884,-5.9363,-5.8698,-5.8698,-5.8698,-5.8698,-5.8698,-5.8698,-5.8698,-5.8698,-5.8698,-5.8698,-5.8698,-5.8698,-5.8698,-5.8698,-5.8698,-5.8698,-5.8698,-5.8698,-5.8698,-5.8698,-5.8698,-5.8698,-5.8698,-5.8698,-5.8698,-5.8698,-5.8698,-5.8698,-5.8698,-5.8698,-5.8698,-5.8698,-5.8698,-5.8698,-5.8698,-5.8698,-5.8698,-5.8698,-5.8593,-5.8486,-5.8393,-5.8156,-5.7799,-5.7116,-5.6645,-5.5631,-5.3605,-5.3496,-5.3064,-5.1592,-5.1464,-5.1336,-5.1114,-5.0562,-5.0149,-5.0011,-5.0011,-5.0011,-5.0011,-5.0011,-5.0011,-5.0011,-5.0011,-5.0011,-5.0011,-5.0011,-5.0011,-5.0011,-5.0011,-5.0011,-3.6361,-4.3053,-5.0945,-5.6158,-5.874,-6.02,-6.0915,-6.1118,-6.1118,-6.1118,-6.106,-6.1041,-6.1041,-6.1041,-6.1051,-6.107,-6.1041,-6.0982,-6.0997,-6.0944,-6.0888,-6.0793,-6.0781,-6.0781,-6.0781,-6.0781,-6.0781,-6.0781,-6.0781,-6.0781,-6.0781,-6.0781,-6.0781,-6.0781,-6.0781,-6.0781,-6.0781,-6.0781,-6.061,-6.0293,-5.9622,-5.9083,-5.8698,-5.8698,-5.8698,-5.8698,-5.8698,-5.8698,-5.8698,-5.8698,-5.8698,-5.8698,-5.8698,-5.8698,-5.8698,-5.8698,-5.8698,-5.8698,-5.8698,-5.8698,-5.8698,-5.8698,-5.8698,-5.8698,-5.8698,-5.8698,-5.8698,-5.8698,-5.8698,-5.8698,-5.8698,-5.8698,-5.8698,-5.8698,-5.8698,-5.8698,-5.8698,-5.8698,-5.8698,-5.8698,-5.8593,-5.8465,-5.8246,-5.8215,-5.8097,-5.7873,-5.7767,-5.7227,-5.574,-5.558,-5.4896,-5.3008,-5.2825,-5.2352,-5.1178,-5.1011,-5.07,-5.0045,-5.0011,-5.0011,-5.0011,-5.0011,-5.0011,-5.0011,-5.0011,-5.0011,-5.0011,-5.0011,-5.0011,-5.0011,-5.0011,-5.0011,-3.8566,-4.4369,-5.021,-5.5307,-5.7869,-5.9377,-6.0228,-6.077,-6.1118,-6.1118,-6.1118,-6.1118,-6.1118,-6.1118,-6.1118,-6.1118,-6.1099,-6.1051,-6.1008,-6.0976,-6.0922,-6.0793,-6.0781,-6.0781,-6.0781,-6.0781,-6.0781,-6.0781,-6.0781,-6.0781,-6.0781,-6.0781,-6.0781,-6.0781,-6.0781,-6.0781,-6.0781,-6.0781,-6.061,-6.0293,-5.9788,-5.9343,-5.8967,-5.8801,-5.8698,-5.8698,-5.8698,-5.8698,-5.8698,-5.8698,-5.8698,-5.8698,-5.8698,-5.8698,-5.8698,-5.8698,-5.8698,-5.8698,-5.8698,-5.8698,-5.8698,-5.8698,-5.8698,-5.8698,-5.8698,-5.8698,-5.8698,-5.8698,-5.8698,-5.8698,-5.8698,-5.8698,-5.8698,-5.8698,-5.8698,-5.8698,-5.8698,-5.8698,-5.8698,-5.8698,-5.8593,-5.8449,-5.84,-5.8268,-5.8156,-5.8111,-5.8042,-5.7504,-5.6164,-5.6344,-5.6006,-5.4393,-5.3908,-5.3315,-5.2323,-5.1528,-5.0804,-5.0045,-5.0011,-5.0011,-5.0011,-5.0011,-5.0011,-5.0011,-5.0011,-5.0011,-5.0011,-5.0011,-5.0011,-5.0011,-5.0011,-5.0011,-3.9495,0.0,-4.7463,-5.3033,-5.6012,-5.7907,0.0,0.0,-6.0809,-6.0809,-6.0963,-6.1118,-6.1118,-6.1118,-6.1118,-6.1118,-6.1118,-6.109,-6.1029,-6.0997,-6.0955,-6.0854,-6.0793,-6.0781,-6.0781,-6.0781,-6.0781,-6.0781,-6.0781,-6.0781,-6.0781,-6.0781,-6.0781,-6.0781,-6.0781,-6.0781,-6.0781,-6.0781,-6.061,-6.0293,-6.0061,-5.9673,-5.9197,-5.8927,-5.8801,-5.8698,-5.8698,-5.8698,-5.8698,-5.8698,-5.8698,-5.8698,-5.8698,-5.8698,-5.8698,-5.8698,-5.8698,-5.8698,-5.8698,-5.8698,-5.8698,-5.8698,-5.8698,-5.8698,-5.8698,-5.8698,-5.8698,-5.8698,-5.8698,-5.8698,-5.8698,-5.8698,-5.8698,-5.8698,-5.8698,-5.8698,-5.8698,-5.8698,-5.8698,-5.8698,-5.8614,-5.8551,-5.8529,-5.8356,-5.826,-5.8215,-5.8088,-5.7661,-5.6648,-5.7012,-5.6899,-5.5737,-5.5213,-5.4436,-5.3212,-5.2196,-5.1153,-5.008,-5.0011,-5.0011,-5.0011,-5.0011,-5.0011,-5.0011,-5.0011,-5.0011,-5.0011,-5.0011,-5.0011,-5.0011,-5.0011,-5.0011,-3.535,-3.8566,0.0,-4.8353,-5.2531,-5.5432,0.0,0.0,-5.9957,-5.9957,-6.0576,-6.1118,-6.1118,-6.1118,-6.1118,-6.1118,-6.1118,-6.1099,-6.1012,-6.099,-6.0965,-6.0911,-6.0854,-6.0781,-6.0781,-6.0781,-6.0781,-6.0781,-6.0781,-6.0781,-6.0781,-6.0781,-6.0781,-6.0781,-6.0781,-6.0781,-6.0781,-6.0781,-6.061,-6.0293,-6.0279,-5.9899,-5.9215,-5.9178,-5.9006,-5.8698,-5.8698,-5.8698,-5.8698,-5.8698,-5.8698,-5.8698,-5.8698,-5.8698,-5.8698,-5.8698,-5.8698,-5.8698,-5.8698,-5.8698,-5.8698,-5.8698,-5.8698,-5.8698,-5.8698,-5.8698,-5.8698,-5.8698,-5.8698,-5.8698,-5.8698,-5.8698,-5.8698,-5.8698,-5.8698,-5.8698,-5.8698,-5.8698,-5.8698,-5.8698,-5.8677,-5.8656,-5.8492,-5.8422,-5.8349,-5.8238,-5.8088,-5.796,-5.79,-5.7937,-5.769,-5.7043,-5.6968,-5.5907,-5.3331,-5.3015,-5.2129,-5.0109,-5.0011,-5.0011,-5.0011,-5.0011,-5.0011,-5.0011,-5.0011,-5.0011,-5.0011,-5.0011,-5.0011,-5.0011,-5.0011,-5.0011,-3.3648,0.0,0.0,-4.5258,-4.901,-5.1989,-5.3652,-5.6205,-5.8217,-5.8217,-5.8913,-5.9493,-5.9493,-6.0383,-6.1118,-6.1118,-6.1118,-6.106,-6.1012,-6.099,-6.0976,-6.0911,-6.0854,-6.0781,-6.0781,-6.0781,-6.0781,-6.0781,-6.0781,-6.0781,-6.0781,-6.0781,-6.0781,-6.0781,-6.0781,-6.0781,-6.0781,-6.0781,-6.0734,-6.061,-6.0194,-5.982,-5.9571,-5.9102,-5.8805,-5.8698,-5.8698,-5.8698,-5.8698,-5.8698,-5.8698,-5.8698,-5.8698,-5.8698,-5.8698,-5.8698,-5.8698,-5.8698,-5.8698,-5.8698,-5.8698,-5.8698,-5.8698,-5.8698,-5.8698,-5.8698,-5.8698,-5.8698,-5.8698,-5.8698,-5.8698,-5.8698,-5.8698,-5.8698,-5.8698,-5.8698,-5.8698,-5.8698,-5.8698,-5.8698,-5.8698,-5.8677,-5.8635,-5.8529,-5.8443,-5.84,-5.8246,-5.8111,-5.8111,-5.8042,-5.7927,-5.7703,-5.6879,-5.5609,-5.3833,-5.2843,-5.1675,-5.0109,-5.0011,-5.0011,-5.0011,-5.0011,-5.0011,-5.0011,-5.0011,-5.0011,-5.0011,-5.0011,-5.0011,-5.0011,-5.0011,-5.0011,-3.2024,0.0,0.0,0.0,-4.5645,-4.8275,-5.1138,-5.3768,-5.5741,-5.636,-5.7366,-5.8255,-5.8535,-5.9493,-6.0344,-6.0654,-6.0925,-6.107,-6.1032,-6.1021,-6.0959,-6.0944,-6.0888,-6.0804,-6.0781,-6.0781,-6.0781,-6.0781,-6.0781,-6.0781,-6.0781,-6.0781,-6.0781,-6.0781,-6.0781,-6.0781,-6.0781,-6.0781,-6.0781,-6.0781,-6.0335,-6.003,-5.9793,-5.9397,-5.9102,-5.8865,-5.8865,-5.8784,-5.8698,-5.8698,-5.8698,-5.8698,-5.8698,-5.8698,-5.8698,-5.8698,-5.8698,-5.8698,-5.8698,-5.8698,-5.8698,-5.8698,-5.8698,-5.8698,-5.8698,-5.8698,-5.8698,-5.8698,-5.8698,-5.8698,-5.8698,-5.8698,-5.8698,-5.8698,-5.8698,-5.8698,-5.8698,-5.8698,-5.8698,-5.8698,-5.8698,-5.8698,-5.8698,-5.8593,-5.8492,-5.8492,-5.8356,-5.826,-5.8215,-5.8111,-5.8042,-5.7997,-5.6925,-5.5668,-5.4378,-5.2998,-5.1638,-5.0354,-5.0092,-5.0011,-5.0011,-5.0011,-5.0011,-5.0011,-5.0011,-5.0011,-5.0011,-5.0011,-5.0011,-5.0011,-5.0011,-5.0011,0.0,0.0,0.0,0.0,0.0,0.0,-4.9506,0.0,-5.2492,-5.4271,-5.5935,-5.7366,-5.8294,-5.8497,-5.8797,-5.9687,-6.0538,-6.1079,-6.1079,-6.1032,-6.0982,-6.0997,-6.0944,-6.0888,-6.0831,-6.0781,-6.0781,-6.0781,-6.0781,-6.0781,-6.0781,-6.0781,-6.0781,-6.0781,-6.0781,-6.0781,-6.0781,-6.0781,-6.0781,-6.0781,-6.0781,-6.0455,-5.9826,-6.015,-5.9899,-5.9215,-5.9215,-5.9025,-5.8719,-5.8698,-5.8698,-5.8698,-5.8698,-5.8698,-5.8698,-5.8698,-5.8698,-5.8698,-5.8698,-5.8698,-5.8698,-5.8698,-5.8698,-5.8698,-5.8698,-5.8698,-5.8698,-5.8698,-5.8698,-5.8698,-5.8698,-5.8698,-5.8698,-5.8698,-5.8698,-5.8698,-5.8698,-5.8698,-5.8698,-5.8698,-5.8698,-5.8698,-5.8698,-5.8593,-5.8529,-5.8529,-5.8443,-5.8371,-5.8238,-5.8179,-5.8133,-5.802,-5.7262,-5.6214,-5.4906,-5.3526,-5.2216,-5.0838,-5.0291,-5.0011,-5.0011,-5.0011,-5.0011,-5.0011,-5.0011,-5.0011,-5.0011,-5.0011,-5.0011,-5.0011,-5.0011,-5.0011,-3.1217,0.0,0.0,0.0,0.0,0.0,0.0,0.0,-4.754,-5.0519,-5.1486,-5.2647,-5.5354,-5.6321,-5.7018,-5.7869,-5.9261,-6.0228,-6.0228,-6.0693,-6.0982,-6.0997,-6.0944,-6.0888,-6.0831,-6.0781,-6.0781,0.0,-6.0781,-6.0781,-6.0781,-6.0781,-6.0781,-6.0781,-6.0781,-6.0781,-6.0781,-6.0781,-6.0781,-6.0781,-6.0559,-6.0223,-5.9809,-5.9906,-5.9673,-5.9234,-5.9502,-5.9415,-5.9064,-5.8784,-5.8698,-5.8698,-5.8698,-5.8698,-5.8698,-5.8698,-5.8698,-5.8698,-5.8698,-5.8698,-5.8698,-5.8698,-5.8698,-5.8698,-5.8698,-5.8698,-5.8698,-5.8698,-5.8698,-5.8698,-5.8698,-5.8698,-5.8698,-5.8698,-5.8698,-5.8698,-5.8698,-5.8698,-5.8698,-5.8698,-5.8698,-5.8698,-5.8698,-5.8656,-5.8635,-5.8635,-5.8551,-5.8465,-5.8443,-5.829,-5.8215,-5.8133,-5.6816,-5.5477,-5.4306,-5.2799,-5.144,-5.0291,-5.0097,-5.0011,-5.0011,-5.0011,-5.0011,-5.0011,-5.0011,-5.0011,-5.0011,-5.0011,-5.0011,-5.0011,-5.0011,-5.0011,-3.3886,-3.5278,-3.7599,-3.8179,0.0,0.0,-4.286,-4.3827,-4.5026,0.0,-4.9436,-5.0403,-5.2724,-5.3846,-5.4697,-5.5586,-5.7134,-5.8526,-5.9261,-5.9746,-5.9969,-5.9917,-5.9886,-5.9832,-5.9754,-5.9742,-5.9742,-5.9742,-5.9742,-5.9896,-6.0242,-6.0589,-6.0781,-6.0781,-6.0781,-6.0781,-6.0781,-6.0781,-6.0781,-6.0781,-6.0597,-6.0321,-6.003,-6.0165,-6.0007,-5.9652,-5.9899,-5.9788,-5.9432,-5.9064,-5.8825,-5.8698,-5.8698,-5.8698,-5.8698,-5.8698,-5.8698,-5.8698,-5.8698,-5.8698,-5.8698,-5.8698,-5.8698,-5.8698,-5.8698,-5.8698,-5.8698,-5.8698,-5.8698,-5.8698,-5.8698,-5.8698,-5.8698,-5.8698,-5.8698,-5.8698,-5.8698,-5.8698,-5.8698,-5.8698,-5.8698,-5.8698,-5.8698,-5.8698,-5.8698,-5.8698,-5.8635,-5.8572,-5.8529,-5.84,-5.829,-5.8201,-5.6698,-5.5313,-5.4406,-5.2645,-5.1254,-5.0369,-5.012,-5.0011,-5.0011,-5.0011,-5.0011,-5.0011,-5.0011,-5.0011,-5.0011,-5.0011,-5.0011,-5.0011,-5.0011,-5.0011,-3.7483,-3.7947,-3.9256,-4.1235,-4.0307,0.0,-4.402,-4.402,-4.402,0.0,-4.8314,-4.9165,-5.0279,-5.1177,-5.2066,-5.2956,-5.4581,-5.636,-5.8178,-5.8526,-5.8528,-5.8422,-5.8412,-5.8361,-5.8303,-5.8319,-5.8319,-5.8319,-5.8319,-5.8627,-5.9319,-6.0204,-6.0666,-6.0666,-6.0742,-6.0742,-6.0666,-6.0742,-6.0742,-6.0666,-6.0742,-6.061,-6.0307,-6.0673,-6.061,-6.0293,-6.0335,-6.0179,-5.9804,-5.9432,-5.9045,-5.8698,-5.8698,-5.8698,-5.8698,-5.8698,-5.8698,-5.8698,-5.8698,-5.8698,-5.8698,-5.8698,-5.8698,-5.8698,-5.8698,-5.8698,-5.8698,-5.8698,-5.8698,-5.8698,-5.8698,-5.8698,-5.8698,-5.8698,-5.8698,-5.8698,-5.8698,-5.8698,-5.8698,-5.8698,-5.8698,-5.8698,-5.8698,-5.8698,-5.8698,-5.8698,-5.8698,-5.8656,-5.8551,-5.8529,-5.8443,-5.8246,-5.6721,-5.5463,-5.481,-5.2745,-5.127,-5.0749,-5.0263,-5.0011,-5.0011,-5.0011,-5.0011,-5.0011,-5.0011,-5.0011,-5.0011,-5.0011,-5.0011,-5.0011,-5.0011,-5.0011,-3.981,-4.0616,-4.1932,-4.039,-4.1661,0.0,-4.023,-4.1003,-4.2434,0.0,-4.3363,-4.4407,-4.7308,-4.8546,-4.9436,-5.0287,-5.2453,-5.4813,-5.7211,-5.8178,-5.8586,-5.8472,-5.8432,-5.8382,-5.8308,-5.8303,-5.8319,-5.8319,-5.8319,-5.8357,-5.855,-5.9319,-5.9742,-5.9742,-6.0435,-6.0473,-5.9742,-6.0435,-6.0435,-5.9742,-6.0473,-6.061,-6.0307,-6.0673,-6.061,-6.0307,-6.0585,-6.052,-6.0179,-5.982,-5.9308,-5.8698,-5.8698,-5.8698,-5.8698,-5.8698,-5.8698,-5.8698,-5.8698,-5.8698,-5.8698,-5.8698,-5.8698,-5.8698,-5.8698,-5.8698,-5.8698,-5.8698,-5.8698,-5.8698,-5.8698,-5.8698,-5.8698,-5.8698,-5.8698,-5.8698,-5.8698,-5.8698,-5.8698,-5.8698,-5.8698,-5.8698,-5.8698,-5.8698,-5.8698,-5.8698,-5.8698,-5.8677,-5.8656,-5.8572,-5.8471,-5.8465,-5.6469,-5.4953,-5.4345,-5.2261,-5.0721,-5.0178,-5.0068,-5.0011,-5.0011,-5.0011,-5.0011,-5.0011,-5.0011,-5.0011,-5.0011,-5.0011,-5.0011,-5.0011,-5.0011,-5.0011,-4.286,-4.2976,-4.3827,-4.3408,-4.3634,0.0,0.0,-4.2318,-4.2473,-4.4175,-4.3208,-4.2899,-4.5877,-4.6496,-4.6922,-4.8198,-5.021,-5.2182,-5.3876,-5.5625,-5.6536,-5.6018,-5.5913,-5.6059,-5.6365,-5.641,-5.6571,-5.6973,-5.7396,-5.7665,-5.7665,-5.8434,-5.8896,-5.8896,-5.9319,-5.9358,-5.8896,-5.9319,-5.955,-5.9511,-5.9935,-6.0299,-6.0559,-6.0722,-6.071,-6.0559,-6.0734,-6.0597,-6.0279,-6.0135,-5.9723,-5.9215,-5.8825,-5.8698,-5.8698,-5.8698,-5.8698,-5.8698,-5.8698,-5.8698,-5.8698,-5.8698,-5.8698,-5.8698,-5.8698,-5.8698,-5.8698,-5.8698,-5.8698,-5.8698,-5.8698,-5.8698,-5.8698,-5.8698,-5.8698,-5.8698,-5.8698,-5.8698,-5.8698,-5.8698,-5.8698,-5.8698,-5.8698,-5.8698,-5.8698,-5.8698,-5.8698,-5.8698,-5.8698,-5.8635,-5.8445,-5.7937,-5.6513,-5.5139,-5.4146,-5.2344,-5.0999,-5.0467,-5.0178,-5.0011,-5.0011,-5.0011,-5.0011,-5.0011,-5.0011,-5.0011,-5.0011,-5.0011,-5.0011,-5.0011,-5.0011,-5.0011,-4.6489,-4.6063,-4.6457,-4.696,-4.6187,-4.5413,0.0,0.0,0.0,-4.5684,-4.4059,0.0,0.0,0.0,0.0,0.0,0.0,0.0,0.0,-5.195,0.0,-5.2983,-5.2928,-5.3202,-5.3947,-5.3889,-5.4167,-5.5126,-5.5703,-5.6175,-5.6522,-5.7473,-5.805,-5.805,-5.8204,-5.8204,-5.805,-5.8204,-5.8627,-5.9281,-5.9435,-5.9973,-6.0781,-6.0781,-6.0781,-6.0781,-6.0781,-6.066,-6.0376,-6.0321,-6.015,-5.9842,-5.9159,-5.8845,-5.8821,-5.8821,-5.876,-5.8698,-5.8698,-5.8698,-5.8698,-5.8698,-5.8698,-5.8698,-5.8698,-5.8698,-5.8698,-5.8698,-5.8698,-5.8698,-5.8698,-5.8698,-5.8698,-5.8698,-5.8698,-5.8698,-5.8698,-5.8698,-5.8698,-5.8698,-5.8698,-5.8698,-5.8698,-5.8698,-5.8698,-5.8698,-5.8698,-5.8698,-5.8698,-5.8549,-5.8174,-5.7423,-5.6356,-5.5238,-5.404,-5.251,-5.1404,-5.0938,-5.0363,-5.004,-5.0011,-5.0011,-5.0011,-5.0011,-5.0011,-5.0011,-5.0011,-5.0011,-5.0011,-5.0011,-5.0011,-5.0011,-5.0898,-5.1331,-5.1602,-4.8005,-4.9745,-5.0635,-4.4059,0.0,-4.5761,-4.3131,0.0,0.0,0.0,0.0,0.0,0.0,0.0,0.0,-4.5522,-4.754,-4.9629,-5.1006,-5.1175,-5.1511,-5.2307,-5.1616,-5.1789,-5.3356,-5.2856,-5.3164,-5.4703,-5.6291,-5.7137,-5.7137,-5.7896,-5.7934,-5.7176,-5.7896,-5.8357,-5.8434,-5.9165,-5.9973,-6.0781,-6.0781,-6.0781,-6.0781,-6.0781,-6.0769,-6.0722,-6.0403,-6.0279,-6.0208,-5.9804,-5.945,-5.914,-5.914,-5.8947,-5.8698,-5.8698,-5.8698,-5.8698,-5.8698,-5.8698,-5.8698,-5.8698,-5.8698,-5.8698,-5.8698,-5.8698,-5.8698,-5.8698,-5.8698,-5.8698,-5.8698,-5.8698,-5.8698,-5.8698,-5.8698,-5.8698,-5.8698,-5.8698,-5.8698,-5.8698,-5.8698,-5.8698,-5.8698,-5.8698,-5.8698,-5.8698,-5.8103,-5.7621,-5.7489,-5.557,-5.4254,-5.4078,-5.2316,-5.1131,-5.0911,-5.0446,-5.012,-5.0011,-5.0011,-5.0011,-5.0011,-5.0011,-5.0011,-5.0011,-5.0011,-5.0011,-5.0011,-5.0011,-5.0011,-5.1594,-5.1796,-5.2182,-4.99,-5.0326,-5.0326,-4.6573,-4.5684,-4.5529,-4.5065,0.0,0.0,0.0,0.0,0.0,0.0,-4.4214,0.0,0.0,0.0,-4.5684,0.0,0.0,0.0,-4.977,-4.9958,-5.049,-5.1674,-5.1414,-5.1953,-5.3664,-5.4895,-5.5742,-5.6252,-5.6588,-5.6626,-5.6252,-5.6626,-5.7319,-5.8319,-5.8627,-5.9511,-6.0781,-6.0781,-6.0781,-6.0781,-6.0781,-6.0781,-6.0781,-6.0673,-6.0585,-6.0572,-6.0455,-6.0038,-5.9554,-5.9554,-5.9307,-5.8986,-5.8986,-5.8865,-5.8698,-5.8698,-5.8698,-5.8698,-5.8698,-5.8698,-5.8698,-5.8698,-5.8698,-5.8698,-5.8698,-5.8698,-5.8698,-5.8698,-5.8698,-5.8698,-5.8698,-5.8698,-5.8698,-5.8698,-5.8698,-5.8698,-5.8698,-5.8698,-5.8698,-5.8698,-5.8698,-5.8698,-5.8698,-5.7992,-5.7323,-5.684,-5.5488,-5.4421,-5.3978,-5.2585,-5.1679,-5.1593,-5.0714,-5.0149,-5.0011,-5.0011,-5.0011,-5.0011,-5.0011,-5.0011,-5.0011,-5.0011,-5.0011,-5.0011,-5.0011,-5.0011,-5.3296,-5.3304,-5.3459,-5.1401,-5.0635,-4.99,-4.8082,-4.6612,-4.5838,-4.6573,-4.5142,0.0,0.0,0.0,-4.286,-4.3247,0.0,-4.2937,0.0,0.0,0.0,0.0,0.0,0.0,0.0,-4.7563,-4.8291,-4.9576,-4.9441,-5.024,-5.2395,-5.3549,-5.4511,-5.5357,-5.5588,-5.5703,-5.5703,-5.5703,-5.6472,-5.7934,-5.8204,-5.905,-6.0435,-6.0704,-6.0781,-6.0781,-6.0781,-6.0781,-6.0781,-6.0781,-6.0781,-6.0781,-6.0781,-6.0507,-6.0076,-5.9984,-5.9689,-5.9361,-5.9252,-5.8986,-5.8698,-5.8698,-5.8698,-5.8698,-5.8698,-5.8698,-5.8698,-5.8698,-5.8698,-5.8698,-5.8698,-5.8698,-5.8698,-5.8698,-5.8698,-5.8698,-5.8698,-5.8698,-5.8698,-5.8698,-5.8698,-5.8698,-5.8698,-5.8698,-5.8698,-5.8698,-5.8698,-5.8624,-5.8401,-5.7695,-5.6878,-5.6023,-5.5169,-5.4367,-5.3676,-5.274,-5.2042,-5.1703,-5.0741,-5.0178,-5.0034,-5.004,-5.0011,-5.0011,-5.0011,-5.0011,-5.0011,-5.0011,-5.0011,-5.0011,-5.0011,-5.0011,-5.7589,-5.7714,-5.7172,-5.2174,-5.1525,-5.103,-4.6851,-4.7115,-4.7811,-4.6194,-4.7115,-4.7695,-4.6116,-4.5104,-4.4246,-4.344,-4.3285,0.0,0.0,0.0,0.0,0.0,0.0,0.0,0.0,-4.3882,-4.4415,0.0,-4.6301,-4.7285,-5.0596,-5.2356,-5.3626,-5.4511,-5.528,-5.5703,-5.5703,-5.5703,-5.6126,-5.706,-5.7896,-5.8742,-5.9588,-6.0435,-6.0781,-6.0781,-6.0781,-6.0781,-6.0781,-6.0781,-6.0781,-6.0781,-6.0781,-6.0769,-6.0734,-6.039,-6.0091,-5.9744,-5.9343,-5.8986,-5.8698,-5.8698,-5.8698,-5.8698,-5.8698,-5.8698,-5.8698,-5.8698,-5.8698,-5.8698,-5.8698,-5.8698,-5.8698,-5.8698,-5.8698,-5.8698,-5.8698,-5.8698,-5.8698,-5.8698,-5.8698,-5.8698,-5.8698,-5.8698,-5.8698,-5.8698,-5.8698,-5.8438,-5.7658,-5.684,-5.6023,-5.5131,-5.4314,-5.3639,-5.3141,-5.2593,-5.1825,-5.0721,-5.0369,-5.0171,-5.0171,-5.0063,-5.0011,-5.0011,-5.0011,-5.0011,-5.0011,-5.0011,-5.0011,-5.0011,-5.0011,-5.0011,-5.8333,-5.8797,-5.8488,-5.4465,-5.3265,-5.2105,-4.8353,-4.843,-4.8585,-4.6271,-4.7657,-4.8546,-4.6232,-4.5142,-4.4516,-4.4207,-4.3208,-4.1854,0.0,0.0,0.0,0.0,0.0,0.0,0.0,0.0,0.0,-4.4345,-4.5248,0.0,-4.9758,-5.2021,-5.3666,-5.4472,-5.528,-5.5724,-5.5766,-5.5766,-5.619,-5.7065,-5.7405,-5.7983,-5.8759,-5.965,-6.0063,-6.003,-6.0607,-6.0816,-6.0781,-6.0781,-6.0781,-6.0781,-6.0781,-6.0781,-6.0769,-6.0685,-6.0403,-6.0023,-5.9432,-5.9122,-5.8986,-5.8781,-5.8698,-5.8698,-5.8698,-5.8698,-5.8698,-5.8698,-5.8698,-5.8698,-5.8698,-5.8698,-5.8698,-5.8698,-5.8698,-5.8698,-5.8698,-5.8698,-5.8698,-5.8698,-5.8698,-5.8698,-5.8698,-5.8698,-5.8698,-5.8698,-5.8698,-5.8401,-5.7621,-5.6803,-5.5986,-5.5094,-5.4277,-5.3737,-5.36,-5.2806,-5.1825,-5.0667,-5.0425,-5.0285,-5.02,-5.0063,-5.0011,-5.0011,-5.0011,-5.0011,-5.0011,-5.0011,-5.0011,-5.0011,-5.0011,-5.0011,-5.9145,-5.9455,-5.9145,-5.6012,-5.4813,-5.342,-4.9707,-4.9745,-4.9939,-4.7657,-4.8275,-4.901,-4.8205,-4.6419,-4.5026,-4.5026,-4.3595,-4.1661,0.0,-3.8334,0.0,0.0,0.0,0.0,0.0,0.0,-4.148,-4.3496,-4.3866,0.0,0.0,-5.1173,-5.2887,-5.4033,-5.5129,-5.5766,-5.5817,-5.5855,-5.6125,-5.6693,-5.7042,-5.7466,-5.7965,-5.9163,-5.9644,-5.9639,-6.0525,-6.0877,-6.0781,-6.0781,-6.0781,-6.0781,-6.0781,-6.0781,-6.0781,-6.0781,-6.0585,-6.0237,-5.9772,-5.9412,-5.9159,-5.8927,-5.8784,-5.8698,-5.8698,-5.8698,-5.8698,-5.8698,-5.8698,-5.8698,-5.8698,-5.8698,-5.8698,-5.8698,-5.8698,-5.8698,-5.8698,-5.8698,-5.8698,-5.8698,-5.8698,-5.8698,-5.8698,-5.8698,-5.8698,-5.8698,-5.8698,-5.8326,-5.7212,-5.6617,-5.5874,-5.4723,-5.4128,-5.3678,-5.3306,-5.2504,-5.1665,-5.0784,-5.0564,-5.0425,-5.0341,-5.0178,-5.0063,-5.0063,-5.004,-5.0011,-5.0011,-5.0011,-5.0011,-5.0011,-5.0011,-5.0011]},{"header":{"parameterUnit":"m.s-1","parameterCategory":1,"la1":30.6,"la2":29.2853,"lo1":-89.7004,"lo2":-87.6739,"dy":0.0162,"dx":0.0183,"nx":112,"ny":82,"refTime":"2024-07-05T18:00:00:Z","depth":0,"parameterNumber":3,"parameterNumberName":"V-component_of_WINDS"},"data":[0.0,0.0,0.0,0.0,0.0,0.0,0.0,0.0,0.0,0.0,0.0,0.0,0.0,0.0,0.0,0.0,0.0,0.0,0.0,0.0,0.0,0.0,0.0,0.0,0.0,0.0,0.0,0.0,0.0,0.0,0.0,0.0,0.0,0.0,0.0,0.0,0.0,0.0,0.0,0.0,0.0,0.0,0.0,0.0,0.0,0.0,0.0,0.0,0.0,0.0,0.0,0.0,0.0,0.0,0.0,0.0,0.0,0.0,0.0,0.0,0.0,0.0,0.0,0.0,0.0,0.0,0.0,0.0,0.0,0.0,0.0,0.0,0.0,0.0,0.0,0.0,0.0,0.0,0.0,0.0,0.0,0.0,0.0,0.0,0.0,0.0,0.0,0.0,0.0,0.0,-1.2953,-1.5143,-1.7406,-1.847,-1.7683,-1.7093,-1.5472,-1.2493,0.0,0.0,0.0,0.0,0.0,0.0,0.0,0.0,0.0,0.0,0.0,0.0,0.0,0.0,0.0,0.0,0.0,0.0,0.0,0.0,0.0,0.0,0.0,0.0,0.0,0.0,0.0,0.0,0.0,0.0,0.0,0.0,0.0,0.0,0.0,0.0,0.0,0.0,0.0,0.0,0.0,0.0,0.0,0.0,0.0,0.0,0.0,0.0,0.0,0.0,0.0,0.0,0.0,0.0,0.0,0.0,0.0,0.0,0.0,0.0,0.0,0.0,0.0,0.0,0.0,0.0,0.0,0.0,0.0,0.0,0.0,0.0,0.0,0.0,0.0,0.0,0.0,0.0,0.0,0.0,0.0,0.0,0.0,0.0,0.0,0.0,0.0,0.0,0.0,0.0,0.0,0.0,0.0,0.0,0.0,0.0,0.0,0.0,0.0,0.0,0.0,0.0,0.0,0.0,-1.4617,-1.7333,-1.8594,-1.8758,-1.77,-1.6401,-1.4708,-1.2445,0.0,0.0,0.0,0.0,0.0,0.0,0.0,0.0,0.0,0.0,0.0,0.0,0.0,0.0,0.0,0.0,0.0,0.0,0.0,0.0,0.0,0.0,0.0,0.0,0.0,0.0,0.0,0.0,0.0,0.0,0.0,0.0,0.0,0.0,0.0,0.0,0.0,0.0,0.0,0.0,0.0,0.0,0.0,0.0,0.0,0.0,0.0,0.0,0.0,0.0,0.0,0.0,0.0,0.0,0.0,0.0,0.0,0.0,0.0,0.0,0.0,0.0,0.0,0.0,0.0,0.0,0.0,0.0,0.0,0.0,0.0,0.0,0.0,0.0,0.0,0.0,0.0,0.0,0.0,0.0,0.0,0.0,0.0,0.0,0.0,0.0,0.0,0.0,0.0,0.0,0.0,0.0,0.0,0.0,0.0,0.0,0.0,0.0,0.0,0.0,0.0,0.0,0.0,-1.4327,-1.6028,-1.8173,-1.8962,-1.9101,-1.8565,-1.7491,-1.5958,-1.3835,-1.2289,0.0,0.0,0.0,0.0,0.0,0.0,0.0,0.0,0.0,0.0,0.0,0.0,0.0,0.0,0.0,0.0,0.0,0.0,0.0,0.0,0.0,0.0,0.0,0.0,0.0,0.0,0.0,0.0,0.0,0.0,0.0,0.0,0.0,0.0,0.0,0.0,0.0,0.0,0.0,0.0,0.0,0.0,0.0,0.0,0.0,0.0,0.0,0.0,0.0,0.0,0.0,0.0,0.0,0.0,0.0,0.0,0.0,0.0,0.0,0.0,0.0,0.0,0.0,0.0,0.0,0.0,0.0,0.0,0.0,0.0,0.0,0.0,0.0,0.0,0.0,0.0,0.0,0.0,0.0,0.0,0.0,0.0,0.0,0.0,0.0,0.0,0.0,0.0,0.0,0.0,0.0,0.0,0.0,0.0,0.0,0.0,0.0,0.0,0.0,0.0,0.0,0.0,-1.623,-1.7183,-1.8687,-1.9127,-1.9292,-1.9292,-1.8243,-1.6759,-1.4825,-1.2743,0.0,0.0,0.0,0.0,0.0,0.0,0.0,0.0,0.0,0.0,0.0,0.0,0.0,0.0,0.0,0.0,0.0,0.0,0.0,0.0,0.0,0.0,0.0,0.0,0.0,0.0,0.0,0.0,0.0,0.0,0.0,0.0,0.0,0.0,0.0,0.0,0.0,0.0,0.0,0.0,0.0,0.0,0.0,0.0,0.0,0.0,0.0,0.0,0.0,0.0,0.0,0.0,0.0,0.0,0.0,0.0,0.0,0.0,0.0,0.0,0.0,0.0,0.0,0.0,0.0,0.0,0.0,0.0,0.0,0.0,0.0,0.0,0.0,0.0,0.0,0.0,0.0,0.0,0.0,0.0,0.0,0.0,0.0,0.0,0.0,0.0,0.0,0.0,0.0,0.0,0.0,0.0,0.0,0.0,0.0,0.0,0.0,0.0,0.0,0.0,0.0,0.0,-1.6688,-1.788,-1.9127,-1.9292,-1.9292,-1.9292,-1.7236,-1.5428,-1.4231,-1.1817,0.0,0.0,0.0,0.0,0.0,0.0,0.0,0.0,0.0,0.0,0.0,0.0,0.0,0.0,0.0,0.0,0.0,0.0,0.0,0.0,0.0,0.0,0.0,0.0,0.0,0.0,0.0,0.0,0.0,0.0,0.0,0.0,0.0,0.0,0.0,0.0,0.0,0.0,0.0,0.0,0.0,0.0,0.0,0.0,0.0,0.0,0.0,0.0,0.0,0.0,0.0,0.0,0.0,0.0,0.0,0.0,0.0,0.0,0.0,0.0,0.0,0.0,0.0,0.0,0.0,0.0,0.0,0.0,0.0,0.0,0.0,0.0,0.0,0.0,0.0,0.0,0.0,0.0,0.0,0.0,0.0,0.0,0.0,0.0,0.0,0.0,0.0,0.0,0.0,0.0,0.0,0.0,0.0,0.0,0.0,0.0,0.0,0.0,0.0,0.0,0.0,0.0,-1.6523,-1.7678,-1.9146,-1.9292,-1.9292,-1.9292,-1.8021,-1.6634,-1.5186,0.0,0.0,0.0,0.0,0.0,0.0,0.0,0.0,0.0,0.0,0.0,0.0,0.0,0.0,0.0,0.0,0.0,0.0,0.0,0.0,0.0,0.0,0.0,0.0,0.0,0.0,0.0,0.0,0.0,0.0,0.0,0.0,0.0,0.0,0.0,0.0,0.0,0.0,0.0,0.0,0.0,0.0,0.0,0.0,0.0,0.0,0.0,0.0,0.0,0.0,0.0,0.0,0.0,0.0,0.0,0.0,0.0,0.0,0.0,0.0,0.0,0.0,0.0,0.0,0.0,0.0,0.0,0.0,0.0,0.0,0.0,0.0,0.0,0.0,0.0,0.0,0.0,0.0,0.0,0.0,0.0,0.0,0.0,0.0,0.0,0.0,0.0,0.0,0.0,0.0,0.0,0.0,0.0,0.0,0.0,0.0,0.0,0.0,0.0,0.0,0.0,0.0,-1.5404,-1.6633,-1.7807,-1.9164,-1.9292,-1.9292,-1.9292,-1.8229,-1.6948,-1.5544,0.0,0.0,0.0,0.0,0.0,0.0,0.0,0.0,0.0,0.0,0.0,0.0,0.0,0.0,0.0,0.0,0.0,0.0,0.0,0.0,0.0,0.0,0.0,0.0,0.0,0.0,0.0,0.0,0.0,0.0,0.0,0.0,0.0,0.0,0.0,0.0,0.0,0.0,0.0,0.0,0.0,0.0,0.0,0.0,0.0,0.0,0.0,0.0,0.0,0.0,0.0,0.0,0.0,0.0,0.0,0.0,0.0,0.0,0.0,0.0,0.0,0.0,0.0,0.0,0.0,0.0,0.0,0.0,0.0,0.0,0.0,0.0,0.0,0.0,0.0,0.0,0.0,0.0,0.0,0.0,0.0,0.0,0.0,0.0,0.0,0.0,0.0,0.0,0.0,0.0,0.0,0.0,0.0,0.0,0.0,0.0,0.0,0.0,0.0,0.0,0.0,0.0,-1.5478,-1.711,-1.8393,-1.9219,-1.9292,-1.9292,-1.9292,-1.7477,-1.5906,0.0,0.0,0.0,0.0,0.0,0.0,0.0,0.0,0.0,0.0,0.0,0.0,0.0,0.0,0.0,0.0,0.0,0.0,0.0,0.0,0.0,0.0,0.0,0.0,0.0,0.0,0.0,0.0,0.0,0.0,0.0,0.0,0.0,0.0,0.0,0.0,0.0,0.0,0.0,0.0,0.0,0.0,0.0,0.0,0.0,0.0,0.0,0.0,0.0,0.0,0.0,0.0,0.0,0.0,0.0,0.0,0.0,0.0,0.0,0.0,0.0,0.0,0.0,0.0,0.0,0.0,0.0,0.0,0.0,0.0,0.0,0.0,0.0,0.0,0.0,0.0,0.0,0.0,0.0,0.0,0.0,0.0,0.0,0.0,0.0,0.0,0.0,0.0,0.0,0.0,0.0,0.0,0.0,0.0,0.0,0.0,0.0,0.0,0.0,0.0,0.0,0.0,0.0,-1.5478,-1.711,-1.8393,-1.9219,-1.9292,-1.9292,-1.9292,-1.7972,-1.6656,-1.5559,0.0,0.0,0.0,0.0,0.0,0.0,0.0,0.0,0.0,0.0,0.0,0.0,0.0,0.0,0.0,0.0,0.0,0.0,0.0,0.0,0.0,0.0,0.0,0.0,0.0,0.0,0.0,0.0,0.0,0.0,0.0,0.0,0.0,0.0,0.0,0.0,0.0,0.0,0.0,0.0,0.0,0.0,0.0,0.0,0.0,0.0,0.0,0.0,0.0,0.0,0.0,0.0,0.0,0.0,0.0,0.0,0.0,0.0,0.0,0.0,0.0,0.0,0.0,0.0,0.0,0.0,0.0,0.0,0.0,0.0,0.0,0.0,0.0,0.0,0.0,0.0,0.0,0.0,0.0,0.0,0.0,0.0,0.0,0.0,0.0,0.0,0.0,0.0,0.0,0.0,0.0,0.0,0.0,0.0,0.0,0.0,0.0,0.0,0.0,0.0,0.0,0.0,-1.5496,-1.7257,-1.8595,-1.9237,-1.9292,-1.9292,-1.9292,-1.8192,-1.6982,-1.5771,0.0,0.0,0.0,0.0,0.0,0.0,0.0,0.0,0.0,0.0,0.0,0.0,0.0,0.0,0.0,0.0,0.0,0.0,0.0,0.0,0.0,0.0,0.0,0.0,0.0,0.0,0.0,0.0,0.0,0.0,0.0,0.0,0.0,0.0,0.0,0.0,0.0,0.0,0.0,0.0,0.0,0.0,0.0,0.0,0.0,0.0,0.0,0.0,0.0,0.0,0.0,0.0,0.0,0.0,0.0,0.0,0.0,0.0,0.0,0.0,0.0,0.0,0.0,0.0,0.0,0.0,0.0,0.0,0.0,0.0,0.0,0.0,0.0,0.0,0.0,0.0,0.0,0.0,0.0,0.0,0.0,0.0,0.0,0.0,0.0,0.0,0.0,0.0,0.0,0.0,0.0,0.0,0.0,0.0,0.0,0.0,0.0,0.0,0.0,0.0,0.0,0.0,-1.5533,-1.7495,-1.8926,-1.9311,-1.9366,-1.9366,-1.9366,-1.821,-1.7,-1.5826,0.0,0.0,0.0,0.0,0.0,0.0,0.0,0.0,0.0,0.0,0.0,0.0,0.0,0.0,0.0,0.0,0.0,0.0,0.0,0.0,0.0,0.0,0.0,0.0,0.0,0.0,0.0,0.0,0.0,0.0,0.0,0.0,0.0,0.0,0.0,0.0,0.0,0.0,0.0,0.0,0.0,0.0,0.0,0.0,0.0,0.0,0.0,0.0,0.0,0.0,0.0,0.0,0.0,0.0,0.0,0.0,0.0,0.0,0.0,0.0,-0.8596,-0.7942,0.0,0.0,0.0,0.0,0.0,0.0,0.0,0.0,0.0,0.0,0.0,0.0,0.0,0.0,0.0,0.0,0.0,0.0,0.0,0.0,0.0,0.0,0.0,0.0,0.0,0.0,0.0,0.0,0.0,0.0,0.0,0.0,0.0,0.0,0.0,0.0,0.0,0.0,0.0,0.0,-1.557,-1.7734,-1.9329,-1.971,-1.9747,-1.9747,-1.9747,-1.8375,-1.7128,-1.6248,-1.4003,0.0,0.0,0.0,0.0,0.0,0.0,0.0,0.0,0.0,0.0,0.0,0.0,0.0,0.0,0.0,0.0,0.0,0.0,0.0,0.0,0.0,0.0,0.0,0.0,0.0,0.0,0.0,0.0,0.0,0.0,0.0,0.0,0.0,0.0,0.0,0.0,0.0,0.0,0.0,0.0,0.0,0.0,0.0,0.0,0.0,0.0,0.0,0.0,0.0,0.0,0.0,0.0,0.0,0.0,0.0,0.0,0.0,0.0,0.0,-1.0137,-0.9538,0.0,0.0,0.0,0.0,0.0,0.0,0.0,0.0,0.0,0.0,0.0,0.0,0.0,0.0,0.0,0.0,0.0,0.0,0.0,0.0,0.0,0.0,0.0,0.0,0.0,0.0,0.0,0.0,0.0,0.0,0.0,0.0,0.0,0.0,0.0,0.0,0.0,0.0,0.0,0.0,-1.6156,-1.8229,-1.9751,-2.0131,-2.0003,-1.9893,-1.9893,-1.8797,-1.766,-1.667,-1.4854,0.0,0.0,0.0,0.0,0.0,0.0,0.0,0.0,0.0,0.0,0.0,0.0,0.0,0.0,0.0,0.0,0.0,0.0,0.0,0.0,0.0,0.0,0.0,0.0,0.0,0.0,0.0,0.0,0.0,0.0,0.0,0.0,0.0,0.0,0.0,0.0,0.0,0.0,0.0,0.0,0.0,0.0,0.0,0.0,0.0,0.0,0.0,0.0,0.0,0.0,0.0,0.0,0.0,-1.183,-1.1902,-1.2042,-1.2091,-1.2235,-1.2415,-1.1982,-1.1597,-1.1262,-1.0491,0.0,0.0,0.0,0.0,0.0,0.0,0.0,0.0,0.0,0.0,0.0,0.0,0.0,0.0,0.0,0.0,0.0,0.0,0.0,0.0,0.0,0.0,-1.3374,-1.492,-1.573,-1.5402,-1.2913,0.0,0.0,0.0,0.0,0.0,0.0,0.0,0.0,0.0,0.0,0.0,-1.6872,-1.874,-2.0149,-2.0576,-2.0296,-2.0058,-2.0003,-1.9292,-1.8339,-1.7183,-1.5991,-1.4671,0.0,0.0,0.0,0.0,0.0,0.0,0.0,0.0,0.0,0.0,0.0,0.0,0.0,0.0,0.0,0.0,0.0,0.0,0.0,0.0,0.0,0.0,0.0,0.0,0.0,0.0,0.0,0.0,0.0,0.0,0.0,0.0,-0.6016,-0.6433,0.0,0.0,0.0,0.0,0.0,0.0,0.0,0.0,0.0,0.0,0.0,0.0,0.0,-1.1152,-1.1973,-1.2929,-1.3357,-1.3266,-1.4159,-1.4485,-1.4304,-1.4533,-1.4654,-1.469,-1.4618,0.0,-1.2107,-1.1513,0.0,0.0,0.0,0.0,0.0,0.0,0.0,0.0,0.0,0.0,0.0,0.0,0.0,0.0,0.0,0.0,0.0,0.0,0.0,0.0,0.0,0.0,-1.7106,-1.814,-1.849,-1.8326,-1.7596,-1.5326,-1.338,-1.3148,-1.2526,-1.2105,0.0,0.0,0.0,0.0,0.0,0.0,-1.7312,-1.9182,-2.0594,-2.0998,-2.0979,-2.0814,-2.0466,-1.9696,-1.8871,-1.799,-1.68,-1.59,-1.5344,-1.3901,0.0,0.0,0.0,0.0,0.0,0.0,0.0,0.0,0.0,0.0,0.0,0.0,0.0,0.0,0.0,0.0,0.0,0.0,0.0,0.0,0.0,0.0,0.0,0.0,0.0,0.0,0.0,0.0,0.0,-0.5475,-0.6392,-0.7309,-0.7219,-0.6922,0.0,0.0,0.0,0.0,0.0,0.0,0.0,0.0,0.0,-1.2572,-1.2818,-1.3162,-1.3664,-1.4425,-1.4739,-1.4642,-1.5258,-1.5487,-1.5378,-1.5342,-1.533,-1.5318,-1.5173,-1.4642,-1.3821,-1.2988,-1.224,-1.1564,0.0,0.0,0.0,0.0,-1.1068,-1.1276,-1.2258,-1.2949,-1.326,-1.2491,0.0,0.0,0.0,0.0,0.0,0.0,0.0,-1.4423,-1.633,-1.7581,-1.8631,-1.9764,-2.025,-2.0389,-2.0012,-1.8626,-1.7149,-1.5974,-1.5558,-1.5147,-1.4202,-1.4242,0.0,0.0,0.0,-1.7623,-1.8412,-1.9879,-2.1016,-2.1376,-2.1255,-2.0943,-2.0558,-1.9989,-1.9271,-1.8504,-1.7715,-1.7037,-1.6395,-1.5258,-1.4047,0.0,0.0,0.0,0.0,0.0,0.0,0.0,0.0,0.0,0.0,0.0,0.0,0.0,0.0,0.0,0.0,0.0,0.0,0.0,0.0,0.0,0.0,0.0,0.0,0.0,0.0,0.0,0.0,-0.6557,-0.7414,-0.8476,-0.8667,-0.8541,0.0,0.0,0.0,0.0,0.0,0.0,-1.179,-1.2533,-1.3266,-1.4002,-1.4533,-1.4908,-1.5113,-1.5572,-1.5813,-1.5813,-1.6006,-1.6103,-1.6091,-1.5897,-1.5813,-1.5801,-1.5596,-1.5475,-1.533,-1.4268,-1.3423,-1.2771,-1.2324,-1.1982,-1.185,-1.2247,-1.2355,-1.2529,-1.3893,-1.4713,-1.5104,-1.4455,-1.5267,-1.6117,-1.4089,0.0,0.0,0.0,0.0,-1.6286,-1.7803,-1.8841,-1.9802,-2.0779,-2.1379,-2.1614,-2.1346,-2.1034,-2.0283,-1.8467,-1.821,-1.7789,-1.6285,-1.6193,0.0,-1.6046,-1.7385,-1.8705,-1.9512,-2.0484,-2.1273,-2.165,-2.1412,-2.1108,-2.0704,-2.0259,-1.9729,-1.9072,-1.8521,-1.7954,-1.7238,-1.6431,-1.5294,-1.3791,0.0,0.0,0.0,0.0,0.0,0.0,0.0,0.0,0.0,0.0,0.0,0.0,0.0,0.0,0.0,0.0,0.0,0.0,0.0,0.0,0.0,0.0,0.0,0.0,0.0,0.0,0.0,0.0,0.0,-1.0515,-1.1208,0.0,0.0,0.0,0.0,-1.0948,-1.1706,-1.2644,-1.3703,-1.4256,-1.4847,-1.5378,-1.591,-1.6187,-1.6199,-1.6489,-1.6634,-1.6634,-1.6658,-1.6658,-1.6658,-1.6646,-1.6634,-1.6634,-1.6622,-1.6477,-1.6163,-1.5101,-1.4473,-1.4171,-1.3894,-1.3773,-1.3773,-1.3797,-1.4123,-1.4521,-1.4364,-1.4327,-1.4493,-1.5416,-1.5892,-1.6117,-1.5972,-1.561,0.0,0.0,-1.7722,-1.8622,-2.0199,-2.0933,-2.1346,-2.1606,-2.1687,-2.1687,-2.1668,-2.165,-2.1266,-2.0003,-1.9161,-1.865,-1.854,0.0,-1.8081,-1.8485,-1.8944,-1.9531,-2.0356,-2.0833,-2.1273,-2.165,-2.1668,-2.1485,-2.1108,-2.0723,-2.0319,-1.9857,-1.9088,-1.8504,-1.8045,-1.7275,-1.6266,-1.5038,-1.3846,0.0,0.0,0.0,0.0,0.0,0.0,0.0,0.0,0.0,0.0,0.0,0.0,0.0,0.0,0.0,0.0,0.0,0.0,0.0,0.0,0.0,0.0,0.0,0.0,0.0,0.0,0.0,0.0,-1.139,-1.2163,0.0,-1.1893,-1.2332,-1.2877,-1.3389,-1.3825,-1.4497,-1.539,-1.562,-1.5897,-1.626,-1.6453,-1.6549,-1.6549,-1.6815,-1.6948,-1.696,-1.7129,-1.7201,-1.7201,-1.7032,-1.6948,-1.6948,-1.6767,-1.6646,-1.6537,-1.6151,-1.5728,-1.5294,-1.5028,-1.4932,-1.4908,-1.4739,-1.4799,-1.4956,-1.4859,-1.5258,-1.5937,-1.6953,-1.7404,-1.7604,-1.7995,-1.8579,-1.9167,-1.946,-1.9895,-2.0404,-2.0811,-2.1266,-2.1571,-2.1526,-2.1616,-2.1687,-2.1687,-2.1687,-2.1559,-2.1138,-2.0649,-2.0099,-1.9546,-1.9546,-1.9531,-1.9146,-1.9879,-2.0576,-2.0869,-2.1255,-2.1522,-2.1668,-2.1687,-2.1412,-2.0778,-2.0594,-2.0118,-1.9201,-1.8871,-1.8412,-1.7752,-1.744,-1.6597,-1.5129,-1.4671,-1.3406,0.0,0.0,0.0,0.0,0.0,0.0,0.0,0.0,0.0,0.0,0.0,0.0,0.0,0.0,0.0,0.0,0.0,0.0,0.0,0.0,0.0,0.0,0.0,0.0,0.0,-1.0275,-1.1712,-1.223,-1.3149,-1.3688,-1.3411,-1.387,-1.4473,-1.5185,-1.5415,-1.5777,-1.6392,-1.6585,-1.6767,-1.696,-1.7141,-1.7237,-1.7237,-1.7406,-1.7503,-1.7503,-1.7672,-1.7756,-1.7756,-1.7575,-1.7503,-1.7491,-1.731,-1.7189,-1.7092,-1.7092,-1.6827,-1.6392,-1.6042,-1.591,-1.5885,-1.5704,-1.5584,-1.5487,-1.5306,-1.5884,-1.682,-1.7413,-1.7881,-1.8331,-1.8692,-1.9733,-2.0695,-2.0627,-2.1129,-2.1697,-2.1634,-2.1862,-2.2062,-2.1926,-2.1907,-2.1888,-2.1888,-2.1797,-2.1687,-2.1687,-2.1467,-2.1145,-2.0589,-2.0717,-2.0698,-2.0209,-2.0814,-2.131,-2.131,-2.1522,-2.1687,-2.1687,-2.1687,-2.1412,-2.0778,-2.0466,-1.9971,-1.9182,-1.8742,-1.8265,-1.7734,-1.744,-1.667,-1.5331,-1.4763,-1.3626,-1.1908,0.0,0.0,0.0,0.0,0.0,0.0,0.0,0.0,0.0,0.0,0.0,0.0,0.0,0.0,0.0,0.0,0.0,0.0,0.0,0.0,0.0,0.0,0.0,-1.0489,-1.2008,-1.3157,-1.3149,-1.434,-1.504,-1.4787,-1.5234,-1.5753,-1.6272,-1.6332,-1.6465,-1.6742,-1.7237,-1.7503,-1.7503,-1.8022,-1.83,-1.83,-1.83,-1.83,-1.83,-1.83,-1.83,-1.83,-1.83,-1.83,-1.83,-1.83,-1.8143,-1.7889,-1.7889,-1.7732,-1.7443,-1.6923,-1.6718,-1.6706,-1.6706,-1.6537,-1.6247,-1.5716,-1.6187,-1.696,-1.6669,-1.7277,-1.8158,-1.8143,-1.8931,-1.9957,-2.041,-2.134,-2.231,-2.2753,-2.2913,-2.2913,-2.2913,-2.2602,-2.2309,-2.2309,-2.1998,-2.1705,-2.1705,-2.1705,-2.1687,-2.1687,-2.1687,-2.1687,-2.1687,-2.1687,0.0,-2.1687,-2.1687,-2.1687,-2.1687,-2.1687,-2.1522,-2.1145,-2.0351,-1.9893,-1.9857,-1.874,-1.8081,-1.8063,-1.7348,-1.6541,-1.5735,-1.4157,-1.3176,-1.2753,0.0,0.0,0.0,0.0,0.0,0.0,0.0,0.0,0.0,0.0,0.0,0.0,0.0,0.0,0.0,0.0,0.0,0.0,0.0,0.0,0.0,-1.0251,-1.1627,-1.1584,-1.2796,-1.3978,-1.4751,-1.5342,-1.5728,-1.5861,-1.6175,-1.6585,-1.7117,-1.7153,-1.737,-1.7829,-1.7986,-1.807,-1.807,-1.8215,-1.83,-1.83,-1.83,-1.83,-1.83,-1.83,-1.83,-1.83,-1.83,-1.83,-1.83,-1.83,-1.8251,-1.8179,-1.8179,-1.801,-1.7708,-1.7189,-1.6984,-1.696,-1.6767,-1.6658,-1.6573,-1.6416,-1.6399,-1.6473,-1.6398,-1.7541,-1.8869,-1.8636,-1.9962,-2.1601,-2.1473,-2.193,-2.247,-2.2659,-2.28,-2.2913,-2.2913,-2.2821,-2.273,-2.273,-2.24,-2.2126,-2.2126,-2.1888,-2.1687,-2.1687,-2.1687,-2.1687,-2.1687,-2.1687,-2.1687,-2.1687,-2.1687,-2.1687,-2.1687,-2.1687,-2.1522,-2.1145,-2.0649,-1.9948,-1.9109,-1.8429,-1.799,-1.7678,-1.7458,-1.7092,-1.6578,-1.5276,-1.4414,0.0,0.0,0.0,0.0,0.0,0.0,0.0,0.0,0.0,0.0,0.0,0.0,0.0,0.0,0.0,0.0,0.0,0.0,0.0,0.0,0.0,0.0,-1.1871,-1.3101,-1.3574,-1.4289,-1.4968,-1.5596,-1.5994,-1.638,-1.6767,-1.6936,-1.7249,-1.7781,-1.7829,-1.7962,-1.8275,-1.8396,-1.8456,-1.8456,-1.8565,-1.8625,-1.8625,-1.8625,-1.8625,-1.8625,-1.8625,-1.8625,-1.8625,-1.8625,-1.8625,-1.8625,-1.8625,-1.8553,-1.8456,-1.8456,-1.83,-1.801,0.0,0.0,0.0,0.0,-1.6863,-1.6851,-1.6742,-1.6598,-1.6453,-1.6453,-1.7219,-1.809,-1.7779,-1.9347,-2.1123,-2.0916,-2.1769,-2.273,-2.2906,-2.3118,-2.3262,-2.3262,-2.3231,-2.3151,-2.3151,-2.284,-2.2492,-2.2309,-2.2089,0.0,-2.1723,-2.1687,-2.1687,-2.1687,-2.1687,-2.1687,-2.1687,-2.1687,-2.1687,-2.1687,-2.1687,-2.1522,-2.1145,-2.0741,0.0,0.0,0.0,-1.81,-1.7513,-1.7495,0.0,0.0,0.0,0.0,0.0,0.0,0.0,0.0,-1.4323,-1.4584,0.0,0.0,0.0,0.0,0.0,0.0,0.0,0.0,0.0,0.0,0.0,0.0,0.0,0.0,0.0,0.0,-1.3438,-1.4811,-1.5753,-1.597,-1.603,-1.603,-1.6477,-1.6984,-1.7479,-1.7551,-1.7793,-1.83,-1.8336,-1.8348,-1.8384,-1.8601,0.0,0.0,0.0,-1.9072,-1.9072,-1.9072,-1.9072,-1.9072,-1.9072,-1.9072,-1.9072,-1.9072,-1.9072,-1.9072,-1.9072,-1.8939,-1.8734,-1.8734,-1.8577,-1.8312,-1.7998,-1.7732,-1.7491,-1.7237,-1.7141,-1.7105,-1.6875,0.0,0.0,-1.6742,-1.6887,-1.7037,-1.6832,-1.8306,-2.0053,-2.0037,-2.1503,-2.3108,-2.3356,-2.3605,-2.3805,-2.3805,-2.3681,-2.3553,-2.3553,-2.3242,-2.2858,-2.2492,-2.2346,-2.2163,-2.1815,-2.1723,-2.1687,-2.1687,-2.1687,-2.1687,-2.1687,-2.1687,-2.1687,-2.1687,-2.1687,0.0,-2.1218,-2.0814,-2.0411,-1.9985,-1.9274,-1.8504,-1.7734,-1.7697,-1.7513,-1.711,-1.7073,-1.722,-1.7568,-1.7568,-1.7587,-1.7587,-1.5771,-1.6027,0.0,0.0,0.0,0.0,0.0,0.0,0.0,0.0,0.0,0.0,0.0,0.0,0.0,0.0,0.0,-1.2433,-1.4278,-1.5656,-1.5861,-1.6453,-1.6863,-1.6863,-1.7141,-1.7455,-1.7768,-1.7998,-1.8263,-1.8589,-1.8613,-1.8698,-1.8915,-1.8976,-1.9,-1.9,-1.9048,-1.9072,-1.9072,-1.9072,-1.9072,-1.9072,-1.9072,0.0,-1.9072,-1.9072,-1.9072,-1.9072,-1.9072,-1.9048,-1.9,-1.9,-1.8843,-1.8565,-1.807,-1.7841,-1.7768,-1.7503,-1.7406,-1.7406,-1.7346,-1.7189,-1.702,-1.702,-1.8147,-1.9538,-1.9467,-2.1064,0.0,-2.2773,-2.3049,-2.3389,-2.3376,-2.3605,-2.3805,-2.3805,-2.3949,-2.4091,-2.4091,-2.3712,-2.3352,-2.3279,-2.273,-2.23,-2.2181,-2.1906,-2.1687,-2.1687,-2.1687,-2.1687,-2.1687,-2.1687,-2.1687,-2.1687,-2.1687,-2.1668,-2.1577,-2.1236,-2.0814,-2.0429,-1.9912,-1.9436,-1.8962,-1.8944,-1.876,-1.8375,-1.8008,-1.7898,-1.7972,-1.7972,-1.8155,-1.8467,-1.7752,-1.7475,0.0,0.0,0.0,0.0,0.0,0.0,0.0,0.0,0.0,0.0,0.0,-0.9765,-1.0696,0.0,-1.3112,-1.4129,-1.531,-1.6187,-1.6453,-1.6948,-1.7286,-1.7286,-1.7515,-1.7841,-1.8239,-1.8408,-1.8601,-1.8855,-1.8879,-1.8939,-1.9072,-1.9072,-1.9072,-1.9072,-1.9072,-1.9072,-1.9072,-1.9072,-1.9072,-1.9072,-1.9072,-1.9072,-1.9072,-1.9072,-1.9072,-1.9072,-1.9072,-1.9072,-1.9072,-1.9072,-1.9,-1.8843,-1.8432,-1.8203,-1.8046,-1.7781,-1.7684,-1.766,-1.7527,-1.7394,-1.7286,-1.7286,-1.7982,-1.8908,-1.9431,-2.0758,-2.2225,-2.2617,-2.3269,-2.3774,-2.3491,-2.3741,-2.4058,-2.3859,-2.4003,-2.4202,-2.4202,-2.4036,-2.3785,-2.3535,-2.3169,-2.2821,-2.262,-2.2254,-2.1925,-2.1723,-2.1687,-2.1687,-2.1687,-2.1687,-2.1687,-2.1687,-2.1687,-2.1687,-2.1687,-2.1346,-2.1016,-2.0814,-2.0406,-2.0136,-1.9916,-1.9916,-1.9824,-1.9622,-1.9381,-1.9289,-1.9289,-1.9289,-1.9381,-1.9604,-1.9381,-1.9286,0.0,0.0,0.0,0.0,0.0,0.0,0.0,-0.6933,-0.783,-0.8844,-1.0109,-1.1373,-1.259,-1.3475,-1.4396,-1.5743,-1.6247,-1.6622,-1.7105,-1.7394,-1.7599,-1.7708,-1.7901,-1.8203,-1.8638,-1.8734,-1.8843,-1.906,-1.9072,-1.9072,-1.9072,-1.9072,-1.9072,-1.9072,-1.9072,-1.9072,-1.9072,-1.9072,-1.9072,-1.9072,-1.9072,-1.9072,-1.9072,-1.9072,-1.9072,-1.9072,-1.9072,-1.9072,-1.9072,-1.9072,-1.9072,-1.906,-1.8843,-1.8638,-1.8408,-1.8082,-1.795,-1.7913,-1.7648,-1.7563,-1.7551,-1.7503,-1.7655,-1.8015,-1.8766,-1.9751,-2.0914,-2.1845,-2.2881,-2.3735,-2.3583,-2.3909,-2.4227,-2.3903,-2.4008,-2.4202,-2.4202,-2.4202,-2.411,-2.373,-2.3553,-2.3389,-2.3078,-2.2675,-2.2272,-2.187,-2.1742,-2.1687,-2.1687,-2.1687,-2.1687,-2.1687,-2.1687,-2.1687,-2.1687,-2.1376,-2.1236,-2.1236,-2.0882,-2.0723,-2.0631,-2.0631,-2.0594,-2.0521,-2.0521,-2.0521,-2.0521,-2.0521,-2.0521,-2.0521,-2.0594,-2.0745,-0.4208,-0.4551,-0.5031,-0.5514,-0.5599,-0.6369,0.0,-1.0306,-1.0895,-1.3659,-1.4404,-1.4633,-1.5056,-1.5431,-1.5755,-1.6187,-1.667,-1.7105,-1.7394,-1.766,-1.801,-1.8493,-1.8577,-1.8613,-1.8674,-1.8891,-1.9048,-1.9072,-1.9072,-1.9072,-1.9072,-1.9072,-1.9072,-1.9072,-1.9072,-1.9072,-1.9072,-1.9072,-1.9072,-1.9072,-1.9072,-1.9072,-1.9072,-1.9072,-1.9072,-1.9072,-1.9072,-1.9072,-1.9072,-1.9072,-1.9072,-1.9072,-1.9048,-1.9012,-1.8927,-1.8432,-1.8251,-1.8203,-1.7925,-1.7829,-1.7793,-1.7563,-1.8227,-1.9145,-1.9234,-2.0057,-2.124,-2.208,-2.248,-2.2743,-2.3504,-2.3843,-2.3923,-2.3888,-2.4058,-2.4202,-2.4202,-2.4202,-2.4183,-2.4146,-2.3785,-2.348,-2.3444,-2.3096,-2.2693,-2.2272,-2.1925,-2.1687,-2.1687,-2.1687,-2.1687,-2.1687,-2.1687,-2.1687,-2.1687,-2.165,-2.1632,-2.1632,-2.1577,-2.1394,-2.1053,-2.1034,-2.0869,-2.0521,-2.0521,-2.0521,-2.0521,-2.0521,-2.0521,-2.0521,-2.0869,-2.0875,-0.5196,-0.5434,-0.5682,-0.6298,-0.6496,-0.7223,-0.9641,-1.0587,-1.1512,-1.3724,-1.493,-1.5596,-1.5704,-1.6199,-1.6682,-1.6936,-1.7298,-1.7648,-1.7913,-1.8046,-1.8203,-1.8432,-1.8589,-1.8746,-1.8891,-1.9012,-1.9072,-1.9072,-1.9072,-1.9072,-1.9072,-1.9072,-1.9072,-1.9072,-1.9072,-1.9072,-1.9072,-1.9072,-1.9072,-1.9072,-1.9072,-1.9072,-1.9072,-1.9072,-1.9072,-1.9072,-1.9072,-1.9072,-1.9072,-1.9072,-1.9072,-1.9072,-1.9072,-1.9072,-1.9024,-1.8662,-1.8517,-1.8481,-1.8215,-1.801,-1.7853,-1.7744,-1.7954,-1.8402,-1.9087,-2.0113,-2.1329,-2.2448,-2.3363,-2.4052,-2.4201,-2.4421,-2.4456,-2.3996,-2.397,-2.4025,-2.4008,-2.3954,-2.4003,-2.4152,-2.4055,-2.3895,-2.3895,-2.3565,-2.3187,-2.3004,-2.2437,-2.1943,-2.1723,-2.1687,-2.1687,-2.1687,-2.1687,-2.1687,-2.1687,-2.1687,-2.1687,-2.1687,-2.1687,-2.1614,-2.1475,-2.1431,-2.1357,-2.1193,-2.1193,-2.1193,-2.1193,-2.1193,-2.1193,-2.1193,-2.1357,-2.1339,-0.5659,-0.5915,-0.6169,-0.6801,-0.7436,-0.8363,-0.9903,-1.0881,-1.1965,-1.3806,-1.4831,-1.5535,-1.594,-1.6537,-1.7092,-1.743,-1.7708,-1.7998,-1.8348,-1.8336,-1.8324,-1.8396,-1.8505,-1.8686,-1.8939,-1.9036,-1.9072,-1.9072,-1.9072,-1.9072,-1.9072,-1.9072,-1.9072,-1.9072,-1.9072,-1.9072,-1.9072,-1.9072,-1.9072,-1.9072,-1.9072,-1.9072,-1.9072,-1.9072,-1.9072,-1.9072,-1.9072,-1.9072,-1.9072,-1.9072,-1.9072,-1.9072,-1.9072,-1.9072,-1.9048,-1.8867,-1.8794,-1.8758,-1.8493,-1.8263,-1.807,-1.7925,-1.7744,-1.7752,-1.8544,-1.9421,-2.0444,-2.2055,-2.3239,-2.4139,-2.4562,-2.4804,-2.4809,-2.4245,-2.3997,-2.3903,-2.3921,-2.3877,-2.3904,-2.4152,-2.4202,-2.4202,-2.4202,-2.3914,-2.3675,-2.3517,-2.2986,-2.2437,-2.1925,-2.176,-2.1687,-2.1687,-2.1687,-2.1687,-2.1687,-2.1687,-2.1687,-2.1687,-2.1687,-2.1687,-2.1687,-2.1687,-2.1687,-2.1687,-2.1687,-2.1687,-2.1687,-2.1687,-2.1687,-2.1687,-2.1687,-2.1687,-0.527,-0.576,-0.642,-0.696,-0.8315,-1.0,-1.172,-1.213,-1.2886,-1.5323,-1.4965,-1.4678,-1.6029,-1.6525,-1.6887,-1.7394,-1.7708,-1.8058,-1.8601,-1.8456,-1.8384,-1.8638,-1.8456,-1.8408,-1.8674,-1.8927,-1.9072,-1.9072,-1.9072,-1.9072,-1.9072,-1.9072,-1.9072,-1.9072,-1.9072,-1.9072,-1.9072,-1.9072,-1.9072,-1.9072,-1.9072,-1.9072,-1.9072,-1.9072,-1.9072,-1.9072,-1.9072,-1.9072,-1.9072,-1.9072,-1.9072,-1.9072,-1.9072,-1.9072,-1.9072,-1.906,-1.906,-1.9024,-1.8758,-1.8674,-1.8577,-1.8046,-1.7865,-1.7877,-1.7622,-1.7596,-1.811,-2.0501,-2.1187,-2.1756,-2.4167,-2.4686,-2.4609,-2.4574,-2.4228,-2.3992,-2.423,-2.4025,-2.3904,-2.4152,-2.4202,-2.4202,-2.4202,-2.4183,-2.4005,-2.3553,-2.348,-2.3169,-2.2364,-2.1925,-2.1687,-2.1687,-2.1687,-2.1687,-2.1687,-2.1687,-2.1687,-2.1687,-2.1687,-2.1687,-2.1687,-2.1687,-2.1687,-2.1687,-2.1687,-2.1687,-2.1687,-2.1687,-2.1687,-2.1687,-2.1687,-2.1687,-0.6087,-0.6549,-0.7009,-0.7718,-0.8426,-0.9398,-1.0849,-1.117,-1.1891,-1.4309,-1.4493,-1.4568,-1.5803,-1.626,-1.667,-1.737,-1.7708,-1.8118,-1.8843,-1.8722,-1.8517,-1.8432,-1.8505,-1.8517,-1.8432,-1.8662,-1.8891,-1.906,-1.9072,-1.9072,-1.9072,-1.9072,-1.9072,-1.9072,-1.9241,-1.9403,-1.9403,-1.9519,-1.9615,-1.9615,-1.9422,-1.9241,-1.9072,-1.9072,-1.9072,-1.9072,-1.9072,-1.9072,-1.9072,-1.9072,-1.9072,-1.9072,-1.9072,-1.9072,-1.9072,-1.9072,-1.9072,-1.906,-1.8976,-1.8831,-1.865,-1.8469,-1.8167,-1.7853,-1.7768,-1.8202,-1.8855,-1.9666,-2.0501,-2.1301,-2.2112,-2.2935,-2.3474,-2.3212,-2.3648,-2.4087,-2.4047,-2.3936,-2.391,-2.4157,-2.4202,-2.4202,-2.4202,-2.4202,-2.4165,-2.3969,-2.3253,-2.2584,-2.2309,-2.1943,-2.1687,-2.1687,-2.1687,-2.1687,-2.1687,-2.1687,-2.1687,-2.1687,-2.1687,-2.1687,-2.1687,-2.1687,-2.1687,-2.1687,-2.1687,-2.1687,-2.1687,-2.1687,-2.1687,-2.1687,-2.1687,-2.1687,-0.658,-0.6927,-0.729,-0.8115,-0.875,-0.9512,-1.0483,-1.095,-1.1711,-1.3655,-1.3699,-1.3805,-1.5346,-1.5506,-1.5834,-1.7011,-1.7503,-1.8022,-1.8819,-1.8794,-1.8625,-1.8456,-1.8505,-1.8517,-1.8444,-1.8589,-1.8794,-1.906,-1.9072,-1.9072,-1.9072,-1.9169,-1.9217,-1.9217,-1.947,-1.9615,-1.9615,-1.9796,-1.9833,-1.9736,-1.9555,-1.9326,-1.9072,-1.9072,-1.9072,-1.9072,-1.9072,-1.9072,-1.9072,-1.9072,-1.9072,-1.9072,-1.9072,-1.9072,-1.9072,-1.9072,-1.9072,-1.9072,-1.9072,-1.8963,-1.8807,-1.871,-1.8384,-1.801,-1.7901,-1.8277,-1.8752,-1.9158,-1.9883,-2.0558,-2.1016,-2.1699,-2.2348,-2.2577,-2.3096,-2.3698,-2.4193,-2.419,-2.4184,-2.4395,-2.4422,-2.4385,-2.422,-2.4202,-2.4202,-2.4202,-2.3363,-2.2657,-2.2529,-2.2144,-2.1851,-2.1705,-2.1687,-2.1687,-2.1687,-2.1687,-2.1687,-2.1687,-2.1687,-2.1687,-2.1687,-2.1687,-2.1687,-2.1687,-2.1687,-2.1687,-2.1687,-2.1687,-2.1687,-2.1687,-2.1687,-2.1865,-0.6603,-0.6927,-0.7339,-0.8132,-0.9268,-1.0241,-1.0609,-1.1334,-1.2264,-1.3446,-1.2687,-1.2423,-1.4511,-1.4321,-1.4476,-1.6279,-1.7117,-1.7768,-1.8565,-1.8698,-1.8698,-1.8686,-1.8481,-1.8432,-1.8662,-1.8698,-1.8819,-1.9072,-1.9096,-1.9096,-1.9096,-1.935,-1.9495,-1.9495,-1.976,-1.9905,-1.9905,-1.9917,-1.9784,-1.9507,-1.956,-1.935,-1.9096,-1.9084,-1.9072,-1.9072,-1.9072,-1.9072,-1.9072,-1.9072,-1.9072,-1.9072,-1.9072,-1.9072,-1.9072,-1.9072,-1.9072,-1.9072,-1.9072,-1.9072,-1.9036,-1.8782,-1.8529,-1.8263,-1.7986,-1.7708,-1.7784,-1.8868,-1.9216,-1.9492,-2.0616,-2.0959,-2.1301,-2.2523,-2.2593,-2.2905,-2.4609,-2.4757,-2.4576,-2.4783,-2.4794,-2.4647,-2.4275,-2.4202,-2.4202,-2.4202,-2.3822,-2.3389,-2.2986,-2.2547,-2.2126,-2.176,-2.1705,-2.1687,-2.1687,-2.1687,-2.1687,-2.1687,-2.1687,-2.1687,-2.1687,-2.1687,-2.1687,-2.1687,-2.1687,-2.1687,-2.1687,-2.1687,-2.1687,-2.1687,-2.1687,-2.2157,-0.7108,-0.7553,-0.7992,-0.8493,-0.9013,-0.9642,-1.0271,-1.0551,-1.1019,-1.1955,-1.1723,-1.1482,-1.1877,-1.2769,-1.3755,-1.4741,-1.6348,0.0,-1.8565,-1.8855,-1.8903,-1.871,-1.8794,-1.8819,-1.8698,-1.8855,-1.9084,-1.9415,-1.9427,-1.9427,-1.9427,-1.9627,-1.9784,-1.9784,-2.0038,-2.0183,-2.0183,-2.0376,-2.034,-2.0074,-1.9869,-1.9639,-1.9362,-1.9169,-1.9072,-1.9072,-1.9072,-1.9072,-1.9072,-1.9072,-1.9072,-1.9072,-1.9072,-1.9072,-1.9072,-1.9072,-1.9072,-1.9072,-1.9072,-1.9072,-1.906,-1.9,-1.8794,-1.8541,-1.8263,-1.7998,-1.7851,-1.7938,-1.7948,-1.8052,-1.8344,-1.9087,-1.9839,-2.0185,-2.1598,-2.2991,-2.3649,-2.436,-2.5005,-2.5185,-2.4977,-2.4647,-2.4275,-2.4202,-2.4202,-2.4202,-2.411,-2.3859,-2.3389,-2.273,-2.2236,-2.2144,-2.187,-2.1687,-2.1687,-2.1687,-2.1687,-2.1687,-2.1687,-2.1687,-2.1687,-2.1687,-2.1687,-2.1687,-2.1687,-2.1687,-2.1687,-2.1687,-2.1687,-2.1687,-2.1687,-2.182,-0.757,-0.8017,-0.8338,-0.8811,-0.899,-0.9127,-0.9391,-0.9693,-0.9987,-1.0343,-1.0254,-1.0325,-1.104,-1.1827,-1.2816,0.0,0.0,0.0,-1.8396,-1.8843,-1.9024,-1.8879,-1.9084,-1.9193,-1.9048,-1.9277,-1.9495,-1.9639,-1.9543,-1.9519,-1.9639,-1.9905,-2.0062,-2.0062,-2.0315,-2.0448,-2.0448,-2.0593,-2.0533,-2.0279,-2.0014,-1.9736,-1.9524,-1.9193,-1.9072,-1.9072,-1.9072,-1.9072,-1.9072,-1.9072,-1.9072,-1.9072,-1.9072,-1.9072,-1.9072,-1.9072,-1.9072,-1.9072,-1.9072,-1.9072,-1.9072,-1.9072,-1.8903,-1.8662,-1.8505,-1.8191,-1.7841,-1.7696,-1.7575,-1.7479,-1.7479,-1.7994,-1.8635,-1.9145,-2.0357,-2.1783,-2.3275,-2.4069,-2.475,-2.5263,-2.5102,-2.4647,-2.4275,-2.4202,-2.4202,-2.4202,-2.4202,-2.411,-2.384,-2.3253,-2.2748,-2.2565,-2.2199,-2.1943,-2.1943,-2.1797,-2.1687,-2.1687,-2.1687,-2.1687,-2.1687,-2.1687,-2.1687,-2.1687,-2.1687,-2.1687,-2.1687,-2.1687,-2.1687,-2.1687,-2.1687,-2.1909,-0.7917,-0.8292,-0.8555,-0.9047,-0.9076,-0.8838,-0.8505,-0.8928,-0.928,-0.8869,-0.87,-0.9095,-1.0539,-1.095,-1.1796,-1.4259,0.0,-1.7298,-1.8167,-1.871,-1.9048,-1.912,-1.9326,-1.9483,-1.9519,-1.9748,-1.9905,-1.9941,-1.9712,-1.9676,-1.9929,-2.0183,-2.0327,-2.0327,-2.0557,-2.0665,-2.0665,-2.0665,-2.0557,-2.0327,-2.0026,-1.976,-1.9507,-1.9217,-1.9072,-1.9072,-1.9072,-1.9072,-1.9072,-1.9072,-1.9072,-1.9072,-1.9072,-1.9072,-1.9072,-1.9072,-1.9072,-1.9072,-1.9072,-1.9072,-1.9072,-1.9072,-1.8927,-1.8734,-1.8698,-1.836,-1.7962,-1.7889,-1.7708,-1.7527,-1.7491,-1.7479,-1.7772,-1.881,-1.9158,-2.0127,-2.3015,-2.3983,-2.4518,-2.532,-2.5124,-2.4721,-2.4367,-2.4238,-2.4202,-2.4202,-2.4202,-2.4202,-2.4202,-2.3804,-2.337,-2.3023,-2.2602,-2.2364,-2.2364,-2.1998,-2.1778,-2.1778,-2.1723,-2.1687,-2.1687,-2.1687,-2.1687,-2.1687,-2.1687,-2.1687,-2.1687,-2.1687,-2.1687,-2.1687,-2.1687,-2.2113,-0.8043,-0.8402,-0.8698,-0.8916,-0.906,-0.9154,-0.9142,-0.9188,0.0,-0.8284,-0.8288,-0.8131,-0.7366,-0.9067,-1.1007,-1.2252,-1.471,-1.6875,-1.8118,-1.8553,-1.8915,0.0,-1.9434,-1.9621,-1.9784,-1.9857,-1.9977,-2.0195,-2.0158,-2.0158,-2.0207,-2.046,-2.0605,-2.0605,-2.0641,-2.0665,-2.0665,-2.0665,-2.0641,-2.0593,-2.011,-1.9857,-1.9796,-1.9301,-1.9072,-1.9072,-1.9072,-1.9072,-1.9072,-1.9072,-1.9072,-1.9072,-1.9072,-1.9072,-1.9072,-1.9072,-1.9072,-1.9072,-1.9072,-1.9072,-1.9072,-1.9072,-1.9048,-1.8963,-1.8746,-1.8625,-1.8456,-1.7998,-1.7841,-1.7756,-1.7539,-1.7479,-1.7537,-1.7772,-1.8577,-1.9839,-2.187,-2.43,-2.61,-2.5949,-2.5598,-2.5194,-2.479,-2.444,-2.4202,-2.4202,-2.4202,-2.4202,-2.4202,-2.3804,-2.3462,-2.3389,-2.3041,-2.2803,-2.2803,-2.2419,-2.2181,-2.2181,-2.187,-2.1687,-2.1687,-2.1687,-2.1687,-2.1687,-2.1687,-2.1687,-2.1687,-2.1687,-2.1687,-2.1687,-2.1687,-2.1776,-0.8026,-0.8289,-0.8588,-0.8857,-0.9255,-0.9356,-0.8477,0.0,0.0,-0.7063,-0.6824,-0.682,-0.6791,-0.8599,0.0,-1.1905,-1.4132,-1.6199,-1.766,-1.8094,-1.8565,-1.9374,-1.9591,-1.9796,-2.0062,-2.0207,-2.0352,-2.0472,-2.0484,-2.0484,-2.0484,-2.0605,-2.0665,-2.0665,-2.0665,-2.0665,-2.0665,-2.0665,-2.0665,-2.0665,-2.0134,-1.9881,-1.9869,-1.9326,-1.9072,-1.9072,-1.9072,-1.9072,-1.9072,-1.9072,-1.9072,-1.9072,-1.9072,-1.9072,-1.9072,-1.9072,-1.9072,-1.9072,-1.9072,-1.9072,-1.9072,-1.9072,-1.9072,-1.9048,-1.8927,-1.8794,-1.8601,-1.8203,-1.7986,-1.7817,-1.7551,-1.7479,-1.7479,-1.7479,-1.868,-2.0171,-2.1684,-2.3911,-2.5736,-2.5987,-2.5855,-2.5598,-2.5161,-2.4808,-2.4532,-2.4532,-2.4349,-2.4202,-2.4202,-2.3987,-2.3859,-2.3859,-2.3444,-2.3206,-2.3206,-2.284,-2.251,-2.2291,-2.2108,-2.1906,-2.1705,-2.1687,-2.1687,-2.1687,-2.1687,-2.1687,-2.1687,-2.1687,-2.1687,-2.1687,-2.1687,-2.1687,-0.795,-0.8193,-0.8551,-0.8753,-0.9257,-0.9326,-0.7601,-0.7522,0.0,-0.5909,-0.5534,-0.577,-0.6712,-0.8172,-0.9778,0.0,-1.3332,-1.5203,-1.6936,-1.7541,-1.8227,0.0,-1.9748,0.0,-2.0327,-2.0545,0.0,-2.0665,-2.0665,-2.0665,-2.0665,-2.0665,-2.0665,-2.0665,-2.0665,-2.0665,-2.0665,-2.0665,-2.0665,-2.0665,-2.0195,-1.9941,-1.9869,-1.9386,-1.9132,-1.9072,-1.9072,-1.9072,-1.9072,-1.9072,-1.9072,-1.9072,-1.9072,-1.9072,-1.9072,-1.9072,-1.9072,-1.9072,-1.9072,-1.9072,-1.9072,-1.9072,-1.9072,-1.9072,-1.9072,-1.8927,-1.871,-1.8444,-1.8179,-1.7901,-1.7636,-1.7527,-1.7479,-1.7479,-1.8855,-2.0458,-2.1741,-2.3391,-2.4968,-2.5936,-2.6076,-2.5911,-2.5598,-2.5161,-2.4886,-2.4794,-2.4551,-2.4312,-2.422,-2.4202,-2.4202,-2.4202,-2.3859,-2.3627,-2.3627,-2.3261,-2.2895,-2.2565,-2.2455,-2.2272,-2.1961,-2.187,-2.1815,-2.1815,-2.1742,-2.1687,-2.1687,-2.1687,-2.1687,-2.1687,-2.1687,-2.1687,-0.7799,-0.8262,-0.8787,-0.8512,-0.8754,-0.8649,-0.7318,0.0,-0.6296,-0.5427,-0.5281,-0.5434,-0.5864,-0.6933,-0.8224,-0.954,-1.1526,-1.3663,0.0,0.0,0.0,-1.9664,0.0,0.0,-2.0581,-2.0653,-2.0665,-2.0665,-2.0665,-2.0665,-2.0665,-2.0665,-2.0665,-2.0665,-2.0665,-2.0665,-2.0665,-2.0665,-2.0665,-2.0735,-2.0376,-2.0122,-1.9881,-1.9567,-1.9301,-1.9072,-1.9072,-1.9072,-1.9072,-1.9072,-1.9072,-1.9072,-1.9072,-1.9072,-1.9072,-1.9072,-1.9072,-1.9072,-1.9072,-1.9072,-1.9072,-1.9072,-1.9072,-1.9072,-1.9072,-1.906,-1.8988,-1.8722,-1.8456,-1.8191,-1.7913,-1.766,-1.7479,-1.7479,-1.8693,-2.0228,-2.1684,-2.3207,-2.4782,-2.6245,-2.6278,-2.6002,-2.5966,-2.5635,-2.5197,-2.4831,-2.4757,-2.4592,-2.4257,-2.4202,-2.4202,-2.4202,-2.4165,-2.4146,-2.4146,-2.373,-2.3425,-2.3389,-2.3041,-2.284,-2.2803,-2.2437,-2.2217,-2.2217,-2.187,-2.1687,-2.1687,-2.1687,-2.1687,-2.1687,-2.1687,-2.1687,-0.7552,-0.7849,-0.8303,-0.816,-0.8577,-0.8635,-0.707,-0.6814,-0.6559,-0.5267,-0.5025,-0.5111,-0.5552,-0.6513,-0.7617,-0.8698,-1.0504,-1.2178,-1.3431,0.0,0.0,-1.8088,-1.89,0.0,0.0,0.0,-2.0665,-2.0665,-2.0665,-2.0665,-2.0665,-2.0665,-2.0665,-2.0665,-2.0665,-2.0665,-2.0665,-2.0665,-2.0665,-2.0665,-2.0243,-1.9989,-1.9869,-1.9434,-1.9169,-1.9072,-1.9072,-1.9072,-1.9072,-1.9072,-1.9072,-1.9072,-1.9072,-1.9072,-1.9072,-1.9072,-1.9072,-1.9072,-1.9072,-1.9072,-1.9072,-1.9072,-1.9072,-1.9072,-1.9072,-1.9072,-1.9024,-1.8758,-1.8613,-1.8432,-1.7986,-1.7684,-1.7479,-1.7479,-1.824,-1.9332,-2.0616,-2.2266,-2.3911,-2.5293,-2.5937,-2.6334,-2.6334,-2.6058,-2.5727,-2.5561,-2.5341,-2.5047,-2.4643,-2.4587,-2.4477,-2.4238,-2.4202,-2.4202,-2.4202,-2.4055,-2.3804,-2.3517,-2.3352,-2.3151,-2.2913,-2.2748,-2.2657,-2.2657,-2.2492,-2.2419,-2.2419,-2.2419,-2.2419,-2.2419,-2.2419,-2.2419,-0.7287,-0.7577,-0.7948,-0.7875,-0.8289,-0.8302,-0.6762,-0.6649,-0.6492,-0.5284,-0.4968,-0.5051,-0.5574,-0.623,-0.6993,-0.7895,-0.9371,-1.0706,-1.1578,-1.3383,0.0,0.0,0.0,-1.8829,-2.0219,-2.0533,-2.0665,-2.0665,-2.0665,-2.0665,-2.0665,-2.0665,-2.0665,-2.0665,-2.0665,-2.0665,-2.0665,-2.0665,-2.0665,-2.0665,-2.0219,-1.9965,-1.9869,-1.9398,-1.9157,-1.9072,-1.9072,-1.9072,-1.9072,-1.9072,-1.9072,-1.9072,-1.9072,-1.9072,-1.9072,-1.9072,-1.9072,-1.9072,-1.9072,-1.9072,-1.9072,-1.9072,-1.9072,-1.9072,-1.9072,-1.9072,-1.9036,-1.8855,-1.8746,-1.8553,-1.8022,-1.7732,-1.7575,-1.7503,-1.7901,-1.8648,-1.994,-2.1601,-2.3255,-2.4556,-2.5789,-2.6591,-2.6591,-2.6334,-2.6149,-2.6039,-2.5782,-2.5451,-2.5014,-2.4849,-2.4666,-2.4422,-2.4275,-2.4202,-2.4202,-2.4202,-2.4073,-2.3749,-2.373,-2.3602,-2.3327,-2.3151,-2.3078,-2.3078,-2.2968,-2.2913,-2.2913,-2.2913,-2.2913,-2.2913,-2.2913,-2.2913,-0.7172,-0.7618,-0.7922,-0.7673,-0.7636,-0.748,-0.652,-0.6063,-0.5752,-0.5436,-0.528,-0.537,-0.5885,-0.5993,-0.6227,-0.6831,-0.7946,-0.9196,-1.06,-1.1864,0.0,0.0,-1.6385,-1.7326,-1.9333,-2.0195,-2.0665,-2.0665,-2.0665,-2.0665,-2.0665,-2.0665,-2.0665,-2.0665,-2.0665,-2.0665,-2.0665,-2.0665,-2.0665,-2.0735,-2.04,-2.0134,-1.9881,-1.9591,-1.9326,-1.9072,-1.9072,-1.9072,-1.9072,-1.9072,-1.9072,-1.9072,-1.9072,-1.9072,-1.9072,-1.9072,-1.9072,-1.9072,-1.9072,-1.9072,-1.9072,-1.9072,-1.9072,-1.9072,-1.9072,-1.9072,-1.9072,-1.9072,-1.8879,-1.8553,-1.8022,-1.7865,-1.7805,-1.7539,-1.7784,-1.8428,-1.9883,-2.1415,-2.2942,-2.4501,-2.5789,-2.6591,-2.6591,-2.6591,-2.6444,-2.6076,-2.6002,-2.5855,-2.547,-2.5084,-2.4776,-2.4776,-2.4459,-2.4202,-2.4202,-2.4202,-2.4202,-2.4202,-2.4202,-2.4202,-2.4183,-2.3749,-2.348,-2.348,-2.3096,-2.2913,-2.2913,-2.2913,-2.2913,-2.2913,-2.2913,-2.2913,-0.6443,-0.6824,-0.7115,-0.6787,-0.6749,-0.6545,-0.5919,-0.5641,-0.5431,-0.5061,-0.5102,-0.5304,-0.5594,-0.5844,-0.656,-0.8269,-0.8682,-0.9165,-1.0346,0.0,0.0,-1.4962,-1.7647,-1.9598,-2.0267,-2.0521,-2.0665,-2.0665,-2.0665,-2.0665,-2.0665,-2.0665,-2.0665,-2.0665,-2.0665,-2.0665,-2.0665,-2.0665,-2.0665,-2.0665,-2.0219,-1.9965,-1.9869,-1.941,-1.9157,-1.9072,-1.9072,-1.9072,-1.9072,-1.9072,-1.9072,-1.9072,-1.9072,-1.9072,-1.9072,-1.9072,-1.9072,-1.9072,-1.9072,-1.9072,-1.9072,-1.9072,-1.9072,-1.9072,-1.9072,-1.9072,-1.9072,-1.9072,-1.8891,-1.8601,-1.8251,-1.8022,-1.7805,-1.7539,-1.7901,-1.8428,-1.8868,-2.1031,-2.2974,-2.348,-2.5238,-2.6591,-2.6591,-2.6591,-2.6536,-2.6408,-2.6389,-2.6243,-2.5874,-2.5708,-2.5433,-2.4849,-2.4716,-2.4514,-2.422,-2.4202,-2.4202,-2.4202,-2.4202,-2.4202,-2.4202,-2.4073,-2.395,-2.395,-2.384,-2.3767,-2.3767,-2.3767,-2.3767,-2.3767,-2.3767,-2.3767,-0.5893,-0.6236,-0.6469,-0.6198,-0.61,-0.5964,-0.5572,-0.5388,-0.5265,-0.5035,-0.5139,-0.5333,-0.5607,-0.5809,-0.6603,-0.8545,-0.844,-0.8783,-1.0628,-1.2156,-1.3655,-1.5135,-1.8197,-2.0323,-2.0364,-2.0557,-2.0665,-2.0665,-2.0665,-2.0665,-2.0665,-2.0665,-2.0665,-2.0665,-2.0665,-2.0665,-2.0665,-2.0665,-2.0617,-2.0521,-2.0086,-1.9833,-1.9712,-1.9277,-1.9072,-1.9072,-1.9072,-1.9072,0.0,-1.9072,-1.9072,-1.9072,-1.9072,-1.9072,-1.9072,-1.9072,-1.9072,-1.9072,-1.9072,-1.9072,-1.9072,-1.9072,-1.9072,-1.9072,-1.9072,-1.9072,-1.9072,-1.9072,-1.8963,-1.877,-1.8505,-1.8239,-1.7962,-1.7696,-1.7975,-1.8311,-1.8357,-2.0357,-2.2281,-2.2862,-2.4556,-2.6081,-2.6537,-2.6591,-2.6591,-2.6591,-2.6591,-2.6499,-2.6278,-2.6113,-2.5819,-2.5341,-2.4959,-2.4684,-2.4459,-2.4293,-2.4202,-2.4202,-2.4202,-2.4202,-2.4202,-2.4202,-2.4202,-2.4202,-2.4202,-2.4202,-2.4202,-2.4202,-2.4202,-2.4202,-2.4202,-2.4202,0.0,-0.5822,-0.598,-0.5844,-0.5741,-0.5605,-0.5413,-0.5276,0.0,-0.5251,-0.5267,-0.5428,-0.5847,-0.5925,-0.6416,-0.7982,-0.7628,-0.8237,-1.1266,-1.1558,-1.2728,-1.6339,-1.8419,-1.9652,-1.9917,-2.0388,-2.0665,-2.0665,-2.0665,-2.0665,-2.0665,-2.0665,-2.0665,-2.0665,-2.0665,-2.0665,-2.0665,-2.0665,-2.0533,-2.0279,-2.0014,-1.9736,-1.9524,-1.9193,-1.9072,-1.9072,-1.9072,-1.9072,-1.9072,-1.9072,-1.9072,-1.9072,-1.9072,-1.9072,-1.9072,-1.9072,-1.9072,-1.9072,-1.9072,-1.9072,-1.9072,-1.9072,-1.9072,-1.9072,-1.9072,-1.9072,-1.9072,-1.9072,-1.9072,-1.9012,-1.8758,-1.8505,-1.8251,-1.795,-1.7993,-1.8102,-1.8369,-1.9608,-2.1145,-2.2692,-2.3999,-2.5183,-2.6409,-2.6591,-2.6591,-2.6591,-2.6591,-2.6591,-2.6591,-2.6243,-2.6039,-2.6021,-2.5359,-2.4849,-2.4831,-2.4459,-2.4202,-2.4202,-2.4202,-2.4202,-2.4202,-2.4202,-2.4202,-2.4202,-2.4202,-2.4202,-2.4202,-2.4202,-2.4202,-2.4202,-2.4202,-2.4202,-0.473,0.0,-0.5219,-0.504,-0.4996,-0.4968,0.0,-0.4871,-0.4909,-0.492,-0.5022,-0.5337,-0.5925,-0.6096,-0.6874,-0.9203,-0.8542,-0.8927,-1.2231,-1.4316,-1.6428,-1.8788,-1.9891,-2.0412,-2.0484,-2.0593,-2.0665,-2.0665,-2.0665,-2.0665,-2.0665,-2.0665,-2.0665,-2.0665,-2.0665,-2.0665,-2.0665,-2.0665,-2.0533,-2.0279,-2.0014,-1.9736,-1.9524,-1.9193,-1.9072,-1.9072,-1.9072,-1.9072,-1.9072,-1.9072,-1.9072,-1.9072,-1.9072,-1.9072,-1.9072,-1.9072,-1.9072,-1.9072,-1.9072,-1.9072,-1.9072,-1.9072,-1.9072,-1.9072,-1.9072,-1.9072,-1.9072,-1.9072,-1.9072,-1.9012,-1.8758,-1.8638,-1.8469,-1.7986,-1.814,-1.8339,-1.8407,-1.9608,-2.1145,-2.2692,-2.3999,-2.5183,-2.6409,-2.6591,-2.6591,-2.6591,-2.6591,-2.6591,-2.6591,-2.6499,-2.6316,-2.6039,-2.5837,-2.5617,-2.5304,-2.4624,-2.4202,-2.4202,-2.4202,-2.4202,-2.4202,-2.4202,-2.4202,-2.4202,-2.4202,-2.4202,-2.4202,-2.4202,-2.4202,-2.4202,-2.4202,-2.4202,-0.4393,-0.4735,-0.5061,-0.4969,-0.4991,-0.5061,-0.5035,-0.4947,-0.4882,-0.4882,-0.4991,-0.5395,-0.6579,-0.6825,-0.7605,-0.99,-0.9883,-1.0519,-1.3022,-1.5411,-1.7476,-1.8785,-1.9266,-1.983,-2.0653,-2.0028,-1.9611,-1.9611,-1.896,-1.8611,-1.8611,-1.9251,-1.9611,-1.9611,-2.02,-2.0484,-2.0484,-2.0484,-2.0291,-1.9905,-1.976,-1.9555,-1.9277,-1.9145,-1.9072,-1.9072,-1.9072,-1.9072,-1.9072,-1.9072,-1.9072,-1.9072,-1.9072,-1.9072,-1.9072,-1.9072,-1.9072,-1.9072,-1.9072,-1.9072,-1.9072,-1.9072,-1.9072,-1.9072,-1.9072,-1.9072,-1.9072,-1.9072,-1.9072,-1.9048,-1.8903,-1.877,-1.8613,-1.8312,-1.824,-1.826,-1.8526,-1.9134,-2.0127,-2.1843,-2.3143,-2.439,-2.5569,-2.6245,-2.6591,-2.6591,-2.6591,-2.6591,-2.6591,-2.6591,-2.6499,-2.6279,-2.6131,-2.5929,-2.5708,-2.512,-2.4679,-2.4496,-2.4312,-2.4202,-2.4202,-2.4202,-2.4202,-2.4202,-2.4202,-2.4202,-2.4202,-2.4202,-2.4202,-2.4202,-2.4202,-2.4202,-0.4365,-0.479,-0.5197,-0.5121,-0.5265,-0.538,-0.5364,-0.5159,-0.5023,-0.504,-0.5045,-0.5598,-0.7379,-0.7636,-0.8233,-1.023,-1.1266,-1.2375,-1.4015,-1.5982,-1.7489,-1.805,-1.8382,-1.898,-2.0225,-1.9181,-1.8261,-1.8051,-1.6846,-1.6131,-1.6131,-1.7518,-1.8347,-1.8347,-1.9587,-2.0195,-2.0158,-2.0195,-1.9965,-1.9536,-1.9536,-1.9326,-1.9072,-1.9072,-1.9072,-1.9072,-1.9072,-1.9072,-1.9072,-1.9072,-1.9072,-1.9072,-1.9072,-1.9072,-1.9072,-1.9072,-1.9072,-1.9072,-1.9072,-1.9072,-1.9072,-1.9072,-1.9072,-1.9072,-1.9072,-1.9072,-1.9072,-1.9072,-1.9072,-1.9072,-1.9072,-1.8915,-1.8734,-1.8698,-1.8336,-1.8155,-1.8608,-1.8585,-1.905,-2.1002,-2.224,-2.3424,-2.4834,-2.5916,-2.6591,-2.6591,-2.6591,-2.6591,-2.6591,-2.6591,-2.6591,-2.6591,-2.6315,-2.6113,-2.6113,-2.5745,-2.5378,-2.4977,-2.4569,-2.4275,-2.4202,-2.4202,-2.4202,-2.4202,-2.4202,-2.4202,-2.4202,-2.4202,-2.4202,-2.4202,-2.4202,-2.4202,-0.4634,-0.504,-0.5287,-0.4876,-0.5018,-0.5186,-0.5094,-0.5045,-0.5045,-0.5143,-0.5325,-0.5993,-0.7856,-0.7724,-0.8018,-1.0011,-1.2099,-1.4074,-1.582,-1.7656,-1.9006,-1.9476,-1.984,-1.9679,-1.8809,-1.8552,-1.784,-1.6554,-1.6202,-1.6131,-1.6131,-1.7364,-1.8089,-1.8089,-1.932,-1.9833,-1.9657,-1.9833,-1.9784,-1.9536,-1.9536,-1.9326,-1.9072,-1.9072,-1.9072,-1.9072,-1.9072,-1.9072,-1.9072,-1.9072,-1.9072,-1.9072,-1.9072,-1.9072,-1.9072,-1.9072,-1.9072,-1.9072,-1.9072,-1.9072,-1.9072,-1.9072,-1.9072,-1.9072,-1.9072,-1.9072,-1.9072,-1.9072,-1.9072,-1.9072,-1.9072,-1.9048,-1.8963,-1.8734,-1.8625,-1.8556,-1.8468,-1.863,-1.9449,-2.1873,-2.2677,-2.372,-2.5971,-2.6482,-2.6591,-2.6591,-2.6591,-2.6591,-2.6591,-2.6591,-2.6591,-2.6591,-2.6536,-2.6499,-2.6499,-2.6168,-2.5892,-2.5837,-2.5139,-2.4569,-2.422,-2.4202,-2.4202,-2.4202,-2.4202,-2.4202,-2.4202,-2.4202,-2.4202,-2.4202,-2.4202,-2.4202,-0.4577,-0.4947,-0.5276,-0.5117,-0.5812,-0.653,-0.6467,-0.6342,-0.6248,-0.6304,-0.5947,-0.6387,-0.8966,-0.9321,-1.0252,-1.3446,-1.47,-1.5575,-1.642,-1.7349,-1.7835,-1.7464,-1.7537,-1.7417,-1.6963,-1.6156,-1.5395,-1.4701,-1.3936,-1.3448,-1.3448,-1.4751,-1.5864,-1.6606,-1.7905,-1.8866,-1.947,-1.9458,-1.9386,-1.9253,-1.9253,-1.9193,-1.9072,-1.9072,-1.9072,-1.9072,-1.9072,-1.9072,-1.9072,-1.9072,-1.9072,-1.9072,-1.9072,-1.9072,-1.9072,-1.9072,-1.9072,-1.9072,-1.9072,-1.9072,-1.9072,-1.9072,-1.9072,-1.9072,-1.9072,-1.9072,-1.9072,-1.9072,-1.9072,-1.9072,-1.9072,-1.9072,-1.9048,-1.8927,-1.8794,-1.8738,-1.8791,-1.8809,-1.92,-2.0522,-2.1449,-2.258,-2.4334,-2.5183,-2.5844,-2.6482,-2.6591,-2.6591,-2.6591,-2.6591,-2.6591,-2.6591,-2.6591,-2.6591,-2.6591,-2.6408,-2.6168,-2.5727,-2.5359,-2.5065,-2.4863,-2.4661,-2.4551,-2.4551,-2.4312,-2.4202,-2.4202,-2.4202,-2.4202,-2.4202,-2.4202,-2.4202,-0.4545,-0.4887,-0.5235,-0.5484,-0.6394,-0.7282,-0.738,-0.7435,-0.7545,-0.7696,-0.7402,-0.7783,-1.025,-1.1047,-1.2509,-1.5814,-1.6508,-1.6757,-1.7133,-1.7064,-1.6676,-1.5926,-1.5481,-1.5223,-1.5159,-1.4096,-1.3283,-1.294,-1.1848,-1.1234,-1.1234,-1.2559,-1.3823,-1.49,-1.6185,-1.7456,-1.8906,-1.8706,-1.8752,-1.9072,-1.9072,-1.9072,-1.9072,-1.9072,-1.9072,-1.9072,-1.9072,-1.9072,-1.9072,-1.9072,-1.9072,-1.9072,-1.9072,-1.9072,-1.9072,-1.9072,-1.9072,-1.9072,-1.9072,-1.9072,-1.9072,-1.9072,-1.9072,-1.9072,-1.9072,-1.9072,-1.9072,-1.9072,-1.9072,-1.9072,-1.9072,-1.9072,-1.9072,-1.9072,-1.8927,-1.8821,-1.8999,-1.9024,-1.9133,-1.9608,-2.0578,-2.1792,-2.3271,-2.4217,-2.5238,-2.6427,-2.6591,-2.6591,-2.6591,-2.6591,-2.6591,-2.6591,-2.6591,-2.6591,-2.6591,-2.6591,-2.6316,-2.5693,-2.5617,-2.5525,-2.5381,-2.5087,-2.4922,-2.4922,-2.4661,-2.4496,-2.4496,-2.4496,-2.4496,-2.4496,-2.4496,-2.4496,-0.4855,-0.5078,-0.5295,-0.5752,-0.5933,-0.6095,-0.6432,-0.7332,-0.8306,-0.894,-1.0117,-1.116,-1.1452,-1.2366,-1.336,-1.4099,-1.578,-1.7387,-1.8716,-1.7818,-1.7066,-1.7258,-1.6078,-1.4831,-1.3669,-1.3489,-1.2803,-1.1434,-1.1234,-1.1234,-1.1234,-1.2376,-1.3092,-1.3151,-1.4442,-1.5779,-1.7195,-1.7184,-1.7829,-1.9072,-1.9072,-1.9072,-1.9072,-1.9072,-1.9072,-1.9072,-1.9072,-1.9072,-1.9072,-1.9072,-1.9072,-1.9072,-1.9072,-1.9072,-1.9072,-1.9072,-1.9072,-1.9072,-1.9072,-1.9072,-1.9072,-1.9072,-1.9072,-1.9072,-1.9072,-1.9072,-1.9072,-1.9072,-1.9072,-1.9072,-1.9072,-1.9072,-1.9072,-1.9072,-1.906,-1.8976,-1.8797,-1.9225,-1.9918,-2.0818,-2.1287,-2.2311,-2.4668,-2.4889,-2.5238,-2.6427,-2.6591,-2.6591,-2.6591,-2.6591,-2.6591,-2.6591,-2.6591,-2.6591,-2.6591,-2.6591,-2.6554,-2.6499,-2.6186,-2.58,-2.5433,-2.5396,-2.5378,-2.5378,-2.5341,-2.5341,-2.5341,-2.5341,-2.5341,-2.5341,-2.5341,-2.5341,-0.4739,-0.5079,-0.5382,-0.5714,-0.6018,-0.6626,-0.8299,-0.9231,-0.9815,-1.0109,-1.094,-1.1722,-1.1948,-1.4109,-1.5675,-1.5267,-1.6213,-1.7173,-1.77,-1.6592,-1.5388,-1.4622,-1.4104,-1.3211,-1.1881,-1.1687,-1.1485,-1.0954,-1.0887,-1.0887,-1.0887,-1.1294,-1.1992,-1.2847,-1.3309,-1.4707,-1.698,-1.698,-1.77,-1.9072,-1.9072,-1.9072,-1.9072,-1.9072,-1.9072,-1.9072,-1.9072,-1.9072,-1.9072,-1.9072,-1.9072,-1.9072,-1.9072,-1.9072,-1.9072,-1.9072,-1.9072,-1.9072,-1.9072,-1.9072,-1.9072,-1.9072,-1.9072,-1.9072,-1.9072,-1.9072,-1.9072,-1.9072,-1.9072,-1.9072,-1.9072,-1.9072,-1.9072,-1.9072,-1.9072,-1.9048,-1.8951,-1.9173,-1.9511,-2.009,-2.0315,-2.118,-2.3646,-2.4016,-2.453,-2.6336,-2.6591,-2.6591,-2.6591,-2.6591,-2.6591,-2.6591,-2.6591,-2.6591,-2.6591,-2.6591,-2.6591,-2.6591,-2.6444,-2.6279,-2.6133,-2.5929,-2.5782,-2.5782,-2.5543,-2.5414,-2.5414,-2.5414,-2.5414,-2.5414,-2.5414,-2.5414,-0.475,-0.5121,-0.554,-0.5784,-0.6458,-0.7718,-0.9972,-1.0724,-1.0987,-1.1233,-1.1321,-1.1737,-1.2815,-1.4781,-1.6021,-1.5327,-1.6201,-1.685,-1.6398,-1.5098,-1.3866,-1.2882,-1.2421,-1.1769,-1.0784,-1.0717,-1.0717,-1.0717,-1.0717,-1.0717,-1.0717,-1.0717,-1.1115,-1.2099,-1.2165,-1.3267,-1.5674,-1.6138,-1.7044,-1.8419,-1.888,-1.9072,-1.9072,-1.9072,-1.9072,-1.9072,-1.9072,-1.9072,-1.9072,-1.9072,-1.9072,-1.9072,-1.9072,-1.9072,-1.9072,-1.9072,-1.9072,-1.9072,-1.9072,-1.9072,-1.9072,-1.9072,-1.9072,-1.9072,-1.9072,-1.9072,-1.9072,-1.9072,-1.9072,-1.9072,-1.9072,-1.9072,-1.9072,-1.9072,-1.9072,-1.9072,-1.9072,-1.9181,-1.9361,-1.9764,-1.9846,-2.0537,-2.2748,-2.3293,-2.4049,-2.5909,-2.6391,-2.6591,-2.6591,-2.6591,-2.6591,-2.6591,-2.6591,-2.6591,-2.6591,-2.6591,-2.6591,-2.6591,-2.6591,-2.6591,-2.6591,-2.637,-2.6205,-2.6205,-2.5947,-2.5766,-2.5766,-2.5766,-2.5766,-2.5766,-2.5766,-2.5766,-0.4947,-0.5324,-0.5745,-0.6029,-0.7383,-0.9087,-1.0951,-1.1405,-1.1608,-1.2275,-1.1492,-1.1537,-1.4318,-1.4223,-1.372,-1.3688,-1.5535,-1.6462,-1.5043,-1.3669,-1.275,-1.275,-1.1571,-1.0717,-1.0717,-1.0717,-1.0717,-1.0717,-1.0717,-1.0717,-1.0717,-1.0717,-1.0717,-1.0717,-1.0717,-1.1372,-1.2816,-1.4193,-1.5619,-1.7044,-1.8419,-1.9072,-1.9072,-1.9072,-1.9072,-1.9072,-1.9072,-1.9072,-1.9072,-1.9072,-1.9072,-1.9072,-1.9072,-1.9072,-1.9072,-1.9072,-1.9072,-1.9072,-1.9072,-1.9072,-1.9072,-1.9072,-1.9072,-1.9072,-1.9072,-1.9072,-1.9072,-1.9072,-1.9072,-1.9072,-1.9072,-1.9072,-1.9072,-1.9072,-1.9072,-1.9072,-1.9072,-1.9392,-1.9711,-2.0043,-2.0129,-2.0681,-2.2241,-2.3016,-2.3786,-2.5043,-2.5983,-2.6591,-2.6591,-2.6591,-2.6591,-2.6591,-2.6591,-2.6591,-2.6591,-2.6591,-2.6591,-2.6591,-2.6591,-2.6591,-2.6591,-2.6591,-2.6591,-2.6591,-2.6591,-2.6591,-2.6591,-2.6591,-2.6591,-2.6591,-2.6591,-2.6591,-0.4866,-0.5259,-0.5766,-0.6132,-0.7698,-0.9314,-1.0004,-1.095,-1.2183,-1.3816,-1.2927,-1.2455,-1.4405,-1.4702,-1.4376,-1.3404,-1.3531,-1.353,-1.3144,-1.2033,-1.1306,-1.1306,-1.0982,-1.0717,-1.0717,-1.0717,-1.0717,-1.0717,-1.0717,-1.0717,-1.0717,-1.0717,-1.0717,-1.0717,-1.0717,-1.1372,-1.2816,-1.4193,-1.5619,-1.7044,-1.8419,-1.9072,-1.9072,-1.9072,-1.9072,-1.9072,-1.9072,-1.9072,-1.9072,-1.9072,-1.9072,-1.9072,-1.9072,-1.9072,-1.9072,-1.9072,-1.9072,-1.9072,-1.9072,-1.9072,-1.9072,-1.9072,-1.9072,-1.9072,-1.9072,-1.9072,-1.9072,-1.9072,-1.9072,-1.9072,-1.9072,-1.9072,-1.9072,-1.9072,-1.9072,-1.9072,-1.9072,-1.92,-1.9392,-1.9979,-2.0106,-2.0595,-2.2223,-2.2629,-2.3345,-2.4956,-2.541,-2.5869,-2.6518,-2.6591,-2.6591,-2.6591,-2.6591,-2.6591,-2.6591,-2.6591,-2.6591,-2.6591,-2.6591,-2.6591,-2.6591,-2.6591,-2.6591,-2.6591,-2.6591,-2.6591,-2.6591,-2.6591,-2.6591,-2.6591,-2.6591,-2.6591,-0.5301,-0.5735,-0.6338,-0.7316,-0.851,-0.9545,-0.9842,-1.0623,-1.1948,-1.4392,-1.3181,-1.2298,-1.4373,-1.4519,-1.3906,-1.2564,-1.2342,-1.2091,-1.1571,-1.1049,-1.0717,-1.0717,-1.0717,-1.0717,-1.0717,-1.0717,-1.0717,-1.0717,-1.0717,-1.0717,-1.0717,-1.0717,-1.0717,-1.0717,-1.0717,-1.1115,-1.1967,-1.3341,-1.4772,-1.6203,-1.7571,-1.8547,-1.9072,-1.9072,-1.9072,-1.9072,-1.9072,-1.9072,-1.9072,-1.9072,-1.9072,-1.9072,-1.9072,-1.9072,-1.9072,-1.9072,-1.9072,-1.9072,-1.9072,-1.9072,-1.9072,-1.9072,-1.9072,-1.9072,-1.9072,-1.9072,-1.9072,-1.9072,-1.9072,-1.9072,-1.9072,-1.9072,-1.9072,-1.9072,-1.9072,-1.9072,-1.9072,-1.9072,-1.9264,-1.9775,-2.0043,-2.0423,-2.1541,-2.2143,-2.29,-2.3959,-2.4713,-2.5375,-2.5842,-2.63,-2.6591,-2.6591,-2.6591,-2.6591,-2.6591,-2.6591,-2.6591,-2.6591,-2.6591,-2.6591,-2.6591,-2.6591,-2.6591,-2.6591,-2.6591,-2.6591,-2.6591,-2.6591,-2.6591,-2.6591,-2.6591,-2.6591,-0.592,-0.6393,-0.7174,-0.8798,-0.935,-0.9633,-1.0236,-1.0234,-1.0983,-1.3887,-1.2352,-1.138,-1.4214,-1.3708,-1.2475,-1.1336,-1.1696,-1.1637,-1.0326,-1.0459,-1.0717,-1.0717,-1.0717,-1.0717,-1.0717,-1.0717,-1.0717,-1.0717,-1.0717,-1.0717,-1.0717,-1.0717,-1.0717,-1.0717,-1.0717,-1.0717,-1.0717,-1.2099,-1.3538,-1.4912,-1.6333,-1.7765,-1.9072,-1.9072,-1.9072,-1.9072,-1.9072,-1.9072,-1.9072,-1.9072,-1.9072,-1.9072,-1.9072,-1.9072,-1.9072,-1.9072,-1.9072,-1.9072,-1.9072,-1.9072,-1.9072,-1.9072,-1.9072,-1.9072,-1.9072,-1.9072,-1.9072,-1.9072,-1.9072,-1.9072,-1.9072,-1.9072,-1.9072,-1.9072,-1.9072,-1.9072,-1.9072,-1.9072,-1.92,-1.952,-1.9839,-2.0234,-2.0539,-2.1555,-2.2393,-2.2486,-2.3959,-2.5014,-2.4881,-2.5787,-2.6518,-2.6591,-2.6591,-2.6591,-2.6591,-2.6591,-2.6591,-2.6591,-2.6591,-2.6591,-2.6591,-2.6591,-2.6591,-2.6591,-2.6591,-2.6591,-2.6591,-2.6591,-2.6591,-2.6591,-2.6591,-2.6591,-0.5594,-0.6031,-0.67,-0.7533,-0.8225,-0.9015,-1.034,-0.9732,-0.9474,-1.1219,-1.1073,-1.119,-1.2923,-1.2111,-1.1125,-1.0829,-1.0512,-1.0127,-0.9861,-1.0326,-1.0717,-1.0717,-1.0717,-1.0717,-1.0717,-1.0717,-1.0717,-1.0717,-1.0717,-1.0717,-1.0717,-1.0717,-1.0717,-1.0717,-1.0717,-1.0717,-1.0717,-1.2099,-1.3538,-1.4912,-1.6333,-1.7765,-1.9072,-1.9072,-1.9072,-1.9072,-1.9072,-1.9072,-1.9072,-1.9072,-1.9072,-1.9072,-1.9072,-1.9072,-1.9072,-1.9072,-1.9072,-1.9072,-1.9072,-1.9072,-1.9072,-1.9072,-1.9072,-1.9072,-1.9072,-1.9072,-1.9072,-1.9072,-1.9072,-1.9072,-1.9072,-1.9072,-1.9072,-1.9072,-1.9072,-1.9072,-1.9072,-1.9072,-1.92,-1.952,-1.9839,-2.0234,-2.0539,-2.1056,-2.1673,-2.2407,-2.3394,-2.435,-2.5031,-2.5336,-2.5793,-2.65,-2.6591,-2.6591,-2.6591,-2.6591,-2.6591,-2.6591,-2.6591,-2.6591,-2.6591,-2.6591,-2.6591,-2.6591,-2.6591,-2.6591,-2.6591,-2.6591,-2.6591,-2.6591,-2.6591,-2.6591,-0.573,-0.6246,-0.6872,-0.753,-0.8638,-0.9563,-0.9697,-0.9117,-0.8784,-0.9516,-1.024,-1.0902,-1.1688,-1.116,-1.0505,-0.9775,-0.9516,-0.9455,-0.9661,-1.0127,-1.0525,-1.0651,-1.0717,-1.0717,-1.0717,-1.0717,-1.0717,-1.0717,-1.0717,-1.0717,-1.0717,-1.0717,-1.0717,-1.0717,-1.0717,-1.0717,-1.0717,-1.1439,-1.2487,-1.3923,-1.5294,-1.712,-1.9072,-1.9072,-1.9072,-1.9072,-1.9072,-1.9072,-1.9072,-1.9072,-1.9072,-1.9072,-1.9072,-1.9072,-1.9072,-1.9072,-1.9072,-1.9072,-1.9072,-1.9072,-1.9072,-1.9072,-1.9072,-1.9072,-1.9072,-1.9072,-1.9072,-1.9072,-1.9072,-1.9072,-1.9072,-1.9072,-1.9072,-1.9072,-1.9072,-1.9072,-1.9072,-1.9072,-1.9136,-1.9328,-1.9647,-1.9979,-2.0297,-2.0792,-2.1191,-2.1575,-2.2522,-2.3479,-2.4253,-2.5023,-2.5861,-2.6792,-2.6866,-2.6866,-2.6866,-2.6701,-2.6591,-2.6591,-2.6591,-2.6591,-2.6591,-2.6591,-2.6591,-2.6591,-2.6591,-2.6591,-2.6591,-2.6591,-2.6591,-2.6591,-2.6591,-2.6591,-0.5757,-0.6431,-0.7182,-0.7997,-0.9222,-1.0016,-0.8845,-0.859,-0.859,-0.859,-0.9516,-1.0373,-1.0373,-1.0373,-0.9975,-0.8784,-0.8851,-0.925,-0.9661,-0.9994,-1.0326,-1.0651,-1.0717,-1.0717,-1.0717,-1.0717,-1.0717,-1.0717,-1.0717,-1.0717,-1.0717,-1.0717,-1.0717,-1.0717,-1.0717,-1.0717,-1.0717,-1.0717,-1.1439,-1.2816,-1.4446,-1.6602,-1.9072,-1.9072,-1.9072,-1.9072,-1.9072,-1.9072,-1.9072,-1.9072,-1.9072,-1.9072,-1.9072,-1.9072,-1.9072,-1.9072,-1.9072,-1.9072,-1.9072,-1.9072,-1.9072,-1.9072,-1.9072,-1.9072,-1.9072,-1.9072,-1.9072,-1.9072,-1.9072,-1.9072,-1.9072,-1.9072,-1.9072,-1.9072,-1.9072,-1.9072,-1.9072,-1.9072,-1.9072,-1.9072,-1.9392,-1.9711,-2.0106,-2.0666,-2.0966,-2.0788,-2.1602,-2.2476,-2.3169,-2.4379,-2.5666,-2.6857,-2.6933,-2.7009,-2.7178,-2.6885,-2.6664,-2.6591,-2.6591,-2.6591,-2.6591,-2.6591,-2.6591,-2.6591,-2.6591,-2.6591,-2.6591,-2.6591,-2.6591,-2.6591,-2.6591,-2.6591,-0.511,-0.6051,-0.716,-0.7955,-0.8386,-0.8662,-0.8629,-0.859,-0.859,-0.859,-0.8717,-0.8851,-0.8851,-0.8851,-0.8784,-0.8651,-0.8851,-0.925,-0.9661,-0.9994,-1.0326,-1.0651,-1.0717,-1.0717,-1.0717,-1.0717,-1.0717,-1.0717,-1.0717,-1.0717,-1.0717,-1.0717,-1.0717,-1.0717,-1.0717,-1.0717,-1.0717,-1.0717,-1.1439,-1.2816,-1.5489,-1.7571,-1.9072,-1.9072,-1.9072,-1.9072,-1.9072,-1.9072,-1.9072,-1.9072,-1.9072,-1.9072,-1.9072,-1.9072,-1.9072,-1.9072,-1.9072,-1.9072,-1.9072,-1.9072,-1.9072,-1.9072,-1.9072,-1.9072,-1.9072,-1.9072,-1.9072,-1.9072,-1.9072,-1.9072,-1.9072,-1.9072,-1.9072,-1.9072,-1.9072,-1.9072,-1.9072,-1.9072,-1.9072,-1.9072,-1.9392,-1.9775,-2.0412,-2.0615,-2.0716,-2.0992,-2.1168,-2.161,-2.252,-2.2809,-2.3727,-2.5782,-2.5979,-2.6316,-2.714,-2.7123,-2.6958,-2.6609,-2.6591,-2.6591,-2.6591,-2.6591,-2.6591,-2.6591,-2.6591,-2.6591,-2.6591,-2.6591,-2.6591,-2.6591,-2.6591,-2.6591,-0.542,-0.6236,-0.7056,-0.7834,-0.8133,-0.8345,-0.8465,-0.8541,-0.859,-0.859,-0.859,-0.859,-0.859,-0.859,-0.859,-0.859,-0.8723,-0.9056,-0.9594,-0.9794,-1.0127,-1.0651,-1.0717,-1.0717,-1.0717,-1.0717,-1.0717,-1.0717,-1.0717,-1.0717,-1.0717,-1.0717,-1.0717,-1.0717,-1.0717,-1.0717,-1.0717,-1.0717,-1.1439,-1.2816,-1.4838,-1.6527,-1.7958,-1.8752,-1.9072,-1.9072,-1.9072,-1.9072,-1.9072,-1.9072,-1.9072,-1.9072,-1.9072,-1.9072,-1.9072,-1.9072,-1.9072,-1.9072,-1.9072,-1.9072,-1.9072,-1.9072,-1.9072,-1.9072,-1.9072,-1.9072,-1.9072,-1.9072,-1.9072,-1.9072,-1.9072,-1.9072,-1.9072,-1.9072,-1.9072,-1.9072,-1.9072,-1.9072,-1.9072,-1.9072,-1.9392,-1.9699,-1.9966,-2.0348,-2.0666,-2.0792,-2.0982,-2.1428,-2.2407,-2.2693,-2.3413,-2.486,-2.5713,-2.622,-2.6373,-2.6895,-2.7013,-2.6609,-2.6591,-2.6591,-2.6591,-2.6591,-2.6591,-2.6591,-2.6591,-2.6591,-2.6591,-2.6591,-2.6591,-2.6591,-2.6591,-2.6591,-0.5551,0.0,-0.6671,-0.7453,-0.7872,-0.8138,0.0,0.0,-0.8546,-0.8546,-0.8568,-0.859,-0.859,-0.859,-0.859,-0.859,-0.859,-0.879,-0.9461,-0.9661,-0.9927,-1.0525,-1.0651,-1.0717,-1.0717,-1.0717,-1.0717,-1.0717,-1.0717,-1.0717,-1.0717,-1.0717,-1.0717,-1.0717,-1.0717,-1.0717,-1.0717,-1.0717,-1.1439,-1.2816,-1.3866,-1.5294,-1.7044,-1.8086,-1.8752,-1.9072,-1.9072,-1.9072,-1.9072,-1.9072,-1.9072,-1.9072,-1.9072,-1.9072,-1.9072,-1.9072,-1.9072,-1.9072,-1.9072,-1.9072,-1.9072,-1.9072,-1.9072,-1.9072,-1.9072,-1.9072,-1.9072,-1.9072,-1.9072,-1.9072,-1.9072,-1.9072,-1.9072,-1.9072,-1.9072,-1.9072,-1.9072,-1.9072,-1.9072,-1.9072,-1.9328,-1.952,-1.9584,-2.0094,-2.0488,-2.0615,-2.0856,-2.1344,-2.2029,-2.2386,-2.2988,-2.3947,-2.4944,-2.5601,-2.5809,-2.6452,-2.677,-2.6628,-2.6591,-2.6591,-2.6591,-2.6591,-2.6591,-2.6591,-2.6591,-2.6591,-2.6591,-2.6591,-2.6591,-2.6591,-2.6591,-2.6591,-0.5007,-0.542,0.0,-0.6796,-0.7383,-0.779,0.0,0.0,-0.8426,-0.8426,-0.8513,-0.859,-0.859,-0.859,-0.859,-0.859,-0.859,-0.8723,-0.905,-0.9455,-0.9861,-1.0193,-1.0525,-1.0717,-1.0717,-1.0717,-1.0717,-1.0717,-1.0717,-1.0717,-1.0717,-1.0717,-1.0717,-1.0717,-1.0717,-1.0717,-1.0717,-1.0717,-1.1439,-1.2816,-1.2882,-1.4381,-1.698,-1.7109,-1.7829,-1.9072,-1.9072,-1.9072,-1.9072,-1.9072,-1.9072,-1.9072,-1.9072,-1.9072,-1.9072,-1.9072,-1.9072,-1.9072,-1.9072,-1.9072,-1.9072,-1.9072,-1.9072,-1.9072,-1.9072,-1.9072,-1.9072,-1.9072,-1.9072,-1.9072,-1.9072,-1.9072,-1.9072,-1.9072,-1.9072,-1.9072,-1.9072,-1.9072,-1.9072,-1.9072,-1.9136,-1.92,-1.9571,-1.9903,-2.0234,-2.0552,-2.0856,-2.1096,-2.1145,-2.1159,-2.1713,-2.3047,-2.3234,-2.3947,-2.5652,-2.5857,-2.6062,-2.6573,-2.6591,-2.6591,-2.6591,-2.6591,-2.6591,-2.6591,-2.6591,-2.6591,-2.6591,-2.6591,-2.6591,-2.6591,-2.6591,-2.6591,-0.4766,0.0,0.0,-0.6361,-0.6888,-0.7307,-0.754,-0.7899,-0.8182,-0.8182,-0.828,-0.8361,-0.8361,-0.8486,-0.859,-0.859,-0.859,-0.8717,-0.905,-0.9455,-0.9794,-1.0193,-1.0525,-1.0717,-1.0717,-1.0717,-1.0717,-1.0717,-1.0717,-1.0717,-1.0717,-1.0717,-1.0717,-1.0717,-1.0717,-1.0717,-1.0717,-1.0717,-1.0982,-1.1439,-1.3276,-1.4707,-1.5684,-1.7507,-1.8612,-1.9072,-1.9072,-1.9072,-1.9072,-1.9072,-1.9072,-1.9072,-1.9072,-1.9072,-1.9072,-1.9072,-1.9072,-1.9072,-1.9072,-1.9072,-1.9072,-1.9072,-1.9072,-1.9072,-1.9072,-1.9072,-1.9072,-1.9072,-1.9072,-1.9072,-1.9072,-1.9072,-1.9072,-1.9072,-1.9072,-1.9072,-1.9072,-1.9072,-1.9072,-1.9072,-1.9072,-1.9136,-1.9264,-1.9584,-1.9839,-1.9966,-2.0412,-2.0792,-2.0792,-2.0982,-2.1299,-2.179,-2.2405,-2.3248,-2.4392,-2.5134,-2.5835,-2.6573,-2.6591,-2.6591,-2.6591,-2.6591,-2.6591,-2.6591,-2.6591,-2.6591,-2.6591,-2.6591,-2.6591,-2.6591,-2.6591,-2.6591,-0.4536,0.0,0.0,0.0,-0.6415,-0.6785,-0.7187,-0.7557,-0.7834,-0.7921,-0.8062,-0.8187,-0.8161,-0.8361,-0.8481,-0.8524,-0.8562,-0.8651,-0.8917,-0.9256,-0.9655,-0.9994,-1.0326,-1.0585,-1.0717,-1.0717,-1.0717,-1.0717,-1.0717,-1.0717,-1.0717,-1.0717,-1.0717,-1.0717,-1.0717,-1.0717,-1.0717,-1.0717,-1.0717,-1.0717,-1.2618,-1.3997,-1.4977,-1.6333,-1.7507,-1.8419,-1.8419,-1.8676,-1.9072,-1.9072,-1.9072,-1.9072,-1.9072,-1.9072,-1.9072,-1.9072,-1.9072,-1.9072,-1.9072,-1.9072,-1.9072,-1.9072,-1.9072,-1.9072,-1.9072,-1.9072,-1.9072,-1.9072,-1.9072,-1.9072,-1.9072,-1.9072,-1.9072,-1.9072,-1.9072,-1.9072,-1.9072,-1.9072,-1.9072,-1.9072,-1.9072,-1.9072,-1.9072,-1.9392,-1.9571,-1.9571,-2.0094,-2.0488,-2.0615,-2.0792,-2.0982,-2.1109,-2.1638,-2.228,-2.3152,-2.4153,-2.5116,-2.5934,-2.6354,-2.6591,-2.6591,-2.6591,-2.6591,-2.6591,-2.6591,-2.6591,-2.6591,-2.6591,-2.6591,-2.6591,-2.6591,-2.6591,0.0,0.0,0.0,0.0,0.0,0.0,-0.7013,0.0,-0.7377,-0.7627,-0.7861,-0.8062,-0.8193,-0.8156,-0.8263,-0.8388,-0.8508,-0.8584,-0.8584,-0.8917,-0.925,-0.9661,-0.9994,-1.0326,-1.0658,-1.0717,-1.0717,-1.0717,-1.0717,-1.0717,-1.0717,-1.0717,-1.0717,-1.0717,-1.0717,-1.0717,-1.0717,-1.0717,-1.0717,-1.0717,-1.0717,-1.2231,-1.4847,-1.3473,-1.4381,-1.698,-1.698,-1.7765,-1.9008,-1.9072,-1.9072,-1.9072,-1.9072,-1.9072,-1.9072,-1.9072,-1.9072,-1.9072,-1.9072,-1.9072,-1.9072,-1.9072,-1.9072,-1.9072,-1.9072,-1.9072,-1.9072,-1.9072,-1.9072,-1.9072,-1.9072,-1.9072,-1.9072,-1.9072,-1.9072,-1.9072,-1.9072,-1.9072,-1.9072,-1.9072,-1.9072,-1.9072,-1.9072,-1.9392,-1.9584,-1.9584,-1.9839,-2.017,-2.0552,-2.0602,-2.0729,-2.1046,-2.0842,-2.1087,-2.1975,-2.2859,-2.3796,-2.4795,-2.5971,-2.6591,-2.6591,-2.6591,-2.6591,-2.6591,-2.6591,-2.6591,-2.6591,-2.6591,-2.6591,-2.6591,-2.6591,-2.6591,-0.4387,0.0,0.0,0.0,0.0,0.0,0.0,0.0,-0.6681,-0.71,-0.7236,-0.7399,-0.778,-0.7915,-0.8013,-0.8133,-0.8329,-0.8465,-0.8465,-0.88,-0.925,-0.9661,-0.9994,-1.0326,-1.0658,-1.0717,-1.0717,0.0,-1.0717,-1.0717,-1.0717,-1.0717,-1.0717,-1.0717,-1.0717,-1.0717,-1.0717,-1.0717,-1.0717,-1.0717,-1.1703,-1.3144,-1.4912,-1.452,-1.5294,-1.6915,-1.5944,-1.6268,-1.7636,-1.8676,-1.9072,-1.9072,-1.9072,-1.9072,-1.9072,-1.9072,-1.9072,-1.9072,-1.9072,-1.9072,-1.9072,-1.9072,-1.9072,-1.9072,-1.9072,-1.9072,-1.9072,-1.9072,-1.9072,-1.9072,-1.9072,-1.9072,-1.9072,-1.9072,-1.9072,-1.9072,-1.9072,-1.9072,-1.9072,-1.9072,-1.9072,-1.9072,-1.9072,-1.92,-1.9264,-1.9264,-1.952,-1.9775,-1.9839,-2.0284,-2.0615,-2.0729,-2.0469,-2.1157,-2.3121,-2.3163,-2.3987,-2.5971,-2.6427,-2.6591,-2.6591,-2.6591,-2.6591,-2.6591,-2.6591,-2.6591,-2.6591,-2.6591,-2.6591,-2.6591,-2.6591,-2.6591,-0.4762,-0.4958,-0.5284,-0.5366,0.0,0.0,-0.6024,-0.6159,-0.6328,0.0,-0.6948,-0.7084,-0.741,-0.7568,-0.7687,-0.7812,-0.803,-0.8225,-0.8329,-0.853,-0.8896,-0.949,-0.9686,-1.0012,-1.0469,-1.0534,-1.0534,-1.0534,-1.0534,-1.0561,-1.0622,-1.0683,-1.0717,-1.0717,-1.0717,-1.0717,-1.0717,-1.0717,-1.0717,-1.0717,-1.1505,-1.2684,-1.3997,-1.3407,-1.3923,-1.5219,-1.4381,-1.4838,-1.6203,-1.7636,-1.8547,-1.9072,-1.9072,-1.9072,-1.9072,-1.9072,-1.9072,-1.9072,-1.9072,-1.9072,-1.9072,-1.9072,-1.9072,-1.9072,-1.9072,-1.9072,-1.9072,-1.9072,-1.9072,-1.9072,-1.9072,-1.9072,-1.9072,-1.9072,-1.9072,-1.9072,-1.9072,-1.9072,-1.9072,-1.9072,-1.9072,-1.9072,-1.9072,-1.9072,-1.9072,-1.9072,-1.9264,-1.9456,-1.9584,-1.9966,-2.0284,-2.0539,-2.0217,-2.0818,-2.2884,-2.3027,-2.3832,-2.5734,-2.63,-2.6591,-2.6591,-2.6591,-2.6591,-2.6591,-2.6591,-2.6591,-2.6591,-2.6591,-2.6591,-2.6591,-2.6591,-2.6591,-0.5268,-0.5333,-0.5561,-0.5795,-0.5665,0.0,-0.6187,-0.6187,-0.6187,0.0,-0.679,-0.691,-0.7122,-0.7192,-0.7317,-0.7442,-0.7671,-0.7921,-0.8176,-0.8225,-0.8486,-0.9188,-0.9252,-0.957,-1.0149,-1.0283,-1.0283,-1.0283,-1.0283,-1.0337,-1.046,-1.0616,-1.0697,-1.0697,-1.0711,-1.0711,-1.0697,-1.0711,-1.0711,-1.0697,-1.0711,-1.1439,-1.275,-1.1314,-1.1439,-1.2816,-1.2618,-1.3341,-1.4772,-1.6203,-1.77,-1.9072,-1.9072,-1.9072,-1.9072,-1.9072,-1.9072,-1.9072,-1.9072,-1.9072,-1.9072,-1.9072,-1.9072,-1.9072,-1.9072,-1.9072,-1.9072,-1.9072,-1.9072,-1.9072,-1.9072,-1.9072,-1.9072,-1.9072,-1.9072,-1.9072,-1.9072,-1.9072,-1.9072,-1.9072,-1.9072,-1.9072,-1.9072,-1.9072,-1.9072,-1.9072,-1.9072,-1.92,-1.952,-1.9584,-1.9839,-2.0412,-2.0155,-2.053,-2.2006,-2.2797,-2.3704,-2.4889,-2.6026,-2.6591,-2.6591,-2.6591,-2.6591,-2.6591,-2.6591,-2.6591,-2.6591,-2.6591,-2.6591,-2.6591,-2.6591,-2.6591,-0.5551,-0.5708,-0.5893,-0.5632,-0.5855,0.0,-0.5654,-0.5763,-0.5964,0.0,-0.6094,-0.6241,-0.6649,-0.6823,-0.6948,-0.7067,-0.7372,-0.7703,-0.804,-0.8176,-0.8364,-0.8869,-0.9124,-0.9443,-0.9888,-1.0149,-1.0283,-1.0283,-1.0283,-1.029,-1.0324,-1.046,-1.0534,-1.0534,-1.0656,-1.0663,-1.0534,-1.0656,-1.0656,-1.0534,-1.0663,-1.1439,-1.275,-1.1314,-1.1439,-1.275,-1.1571,-1.1901,-1.3341,-1.4707,-1.6796,-1.9072,-1.9072,-1.9072,-1.9072,-1.9072,-1.9072,-1.9072,-1.9072,-1.9072,-1.9072,-1.9072,-1.9072,-1.9072,-1.9072,-1.9072,-1.9072,-1.9072,-1.9072,-1.9072,-1.9072,-1.9072,-1.9072,-1.9072,-1.9072,-1.9072,-1.9072,-1.9072,-1.9072,-1.9072,-1.9072,-1.9072,-1.9072,-1.9072,-1.9072,-1.9072,-1.9072,-1.9136,-1.92,-1.9456,-1.9635,-1.9775,-2.0623,-2.1646,-2.2928,-2.3886,-2.4944,-2.619,-2.6482,-2.6591,-2.6591,-2.6591,-2.6591,-2.6591,-2.6591,-2.6591,-2.6591,-2.6591,-2.6591,-2.6591,-2.6591,-2.6591,-0.6024,-0.604,-0.6159,-0.6052,-0.6132,0.0,0.0,-0.5947,-0.5969,-0.6208,-0.6072,-0.6029,-0.6448,-0.6535,-0.6594,-0.6774,-0.7056,-0.7334,-0.7632,-0.7818,-0.8071,-0.8372,-0.8543,-0.8879,-0.9432,-0.963,-0.9848,-1.0046,-1.012,-1.0168,-1.0168,-1.0304,-1.0385,-1.0385,-1.046,-1.0466,-1.0385,-1.046,-1.05,-1.0493,-1.0568,-1.0972,-1.1703,-1.1049,-1.1115,-1.1703,-1.0982,-1.1505,-1.2882,-1.3538,-1.5098,-1.712,-1.8547,-1.9072,-1.9072,-1.9072,-1.9072,-1.9072,-1.9072,-1.9072,-1.9072,-1.9072,-1.9072,-1.9072,-1.9072,-1.9072,-1.9072,-1.9072,-1.9072,-1.9072,-1.9072,-1.9072,-1.9072,-1.9072,-1.9072,-1.9072,-1.9072,-1.9072,-1.9072,-1.9072,-1.9072,-1.9072,-1.9072,-1.9072,-1.9072,-1.9072,-1.9072,-1.9072,-1.9072,-1.9264,-1.9343,-1.9385,-1.9804,-2.0616,-2.1876,-2.3032,-2.4189,-2.5368,-2.619,-2.6591,-2.6591,-2.6591,-2.6591,-2.6591,-2.6591,-2.6591,-2.6591,-2.6591,-2.6591,-2.6591,-2.6591,-2.6591,-0.6585,-0.6525,-0.6529,-0.66,-0.6491,-0.6382,0.0,0.0,0.0,-0.642,-0.6192,0.0,0.0,0.0,0.0,0.0,0.0,0.0,0.0,-0.7301,0.0,-0.78,-0.791,-0.8188,-0.8967,-0.9078,-0.9308,-0.972,-0.9822,-0.9842,-0.9903,-1.0134,-1.0236,-1.0236,-1.0263,-1.0263,-1.0236,-1.0263,-1.0337,-1.0453,-1.048,-1.0575,-1.0717,-1.0717,-1.0717,-1.0717,-1.0717,-1.138,-1.2421,-1.2684,-1.3473,-1.4782,-1.7313,-1.8483,-1.8688,-1.8688,-1.888,-1.9072,-1.9072,-1.9072,-1.9072,-1.9072,-1.9072,-1.9072,-1.9072,-1.9072,-1.9072,-1.9072,-1.9072,-1.9072,-1.9072,-1.9072,-1.9072,-1.9072,-1.9072,-1.9072,-1.9072,-1.9072,-1.9072,-1.9072,-1.9072,-1.9072,-1.9072,-1.9072,-1.9072,-1.9072,-1.9072,-1.9072,-1.9072,-1.9024,-1.9042,-1.9074,-1.9062,-1.9425,-2.0541,-2.1952,-2.3223,-2.4228,-2.5661,-2.6537,-2.6591,-2.6591,-2.6591,-2.6591,-2.6591,-2.6591,-2.6591,-2.6591,-2.6591,-2.6591,-2.6591,-2.6591,-0.721,-0.7214,-0.7252,-0.6747,-0.6991,-0.7116,-0.6192,0.0,-0.6431,-0.6062,0.0,0.0,0.0,0.0,0.0,0.0,0.0,0.0,-0.6448,-0.6681,-0.6975,-0.7282,-0.7477,-0.7871,-0.8343,-0.8696,-0.9074,-0.9408,-0.932,-0.9374,-0.9646,-0.9862,-1.0011,-1.0011,-1.0209,-1.0215,-1.0017,-1.0209,-1.029,-1.0304,-1.0432,-1.0575,-1.0717,-1.0717,-1.0717,-1.0717,-1.0717,-1.0784,-1.1049,-1.2289,-1.2882,-1.321,-1.4772,-1.6138,-1.7238,-1.7238,-1.8022,-1.9072,-1.9072,-1.9072,-1.9072,-1.9072,-1.9072,-1.9072,-1.9072,-1.9072,-1.9072,-1.9072,-1.9072,-1.9072,-1.9072,-1.9072,-1.9072,-1.9072,-1.9072,-1.9072,-1.9072,-1.9072,-1.9072,-1.9072,-1.9072,-1.9072,-1.9072,-1.9072,-1.9072,-1.9072,-1.9072,-1.9072,-1.9072,-1.8879,-1.8722,-1.8749,-1.9542,-2.0083,-2.0219,-2.2409,-2.3911,-2.4283,-2.5496,-2.63,-2.6591,-2.6591,-2.6591,-2.6591,-2.6591,-2.6591,-2.6591,-2.6591,-2.6591,-2.6591,-2.6591,-2.6591,-0.7308,-0.7279,-0.7334,-0.7013,-0.7073,-0.7073,-0.6545,-0.642,-0.6399,-0.6333,0.0,0.0,0.0,0.0,0.0,0.0,-0.6214,0.0,0.0,0.0,-0.642,0.0,0.0,0.0,-0.7883,-0.8192,-0.8562,-0.9053,-0.895,-0.9044,-0.9462,-0.968,-0.9829,-0.9856,-0.9978,-0.9985,-0.9856,-0.9985,-1.0107,-1.0283,-1.0337,-1.0493,-1.0717,-1.0717,-1.0717,-1.0717,-1.0717,-1.0717,-1.0717,-1.1314,-1.1571,-1.1637,-1.2231,-1.3792,-1.5749,-1.5749,-1.6656,-1.7893,-1.7893,-1.8419,-1.9072,-1.9072,-1.9072,-1.9072,-1.9072,-1.9072,-1.9072,-1.9072,-1.9072,-1.9072,-1.9072,-1.9072,-1.9072,-1.9072,-1.9072,-1.9072,-1.9072,-1.9072,-1.9072,-1.9072,-1.9072,-1.9072,-1.9072,-1.9072,-1.9072,-1.9072,-1.9072,-1.9072,-1.9072,-1.8843,-1.8625,-1.8469,-1.8701,-1.8805,-1.8652,-2.1046,-2.2605,-2.2702,-2.4872,-2.6245,-2.6591,-2.6591,-2.6591,-2.6591,-2.6591,-2.6591,-2.6591,-2.6591,-2.6591,-2.6591,-2.6591,-2.6591,-0.755,-0.7491,-0.7513,-0.7281,-0.7116,-0.7013,-0.6757,-0.6551,-0.6442,-0.6545,-0.6344,0.0,0.0,0.0,-0.6024,-0.6078,0.0,-0.6034,0.0,0.0,0.0,0.0,0.0,0.0,0.0,-0.7586,-0.7973,-0.8574,-0.844,-0.8633,-0.9239,-0.9442,-0.9612,-0.9761,-0.9802,-0.9822,-0.9822,-0.9822,-0.9958,-1.0215,-1.0263,-1.0412,-1.0656,-1.0704,-1.0717,-1.0717,-1.0717,-1.0717,-1.0717,-1.0717,-1.0717,-1.0717,-1.0717,-1.1967,-1.3801,-1.4193,-1.5229,-1.6462,-1.685,-1.7893,-1.9072,-1.9072,-1.9072,-1.9072,-1.9072,-1.9072,-1.9072,-1.9072,-1.9072,-1.9072,-1.9072,-1.9072,-1.9072,-1.9072,-1.9072,-1.9072,-1.9072,-1.9072,-1.9072,-1.9072,-1.9072,-1.9072,-1.9072,-1.9072,-1.9072,-1.9072,-1.9072,-1.9048,-1.8976,-1.8746,-1.8481,-1.8203,-1.7925,-1.7862,-1.796,-2.0113,-2.1756,-2.2548,-2.4816,-2.619,-2.6464,-2.6537,-2.6591,-2.6591,-2.6591,-2.6591,-2.6591,-2.6591,-2.6591,-2.6591,-2.6591,-2.6591,-0.8158,-0.8111,-0.8035,-0.7391,-0.7241,-0.7115,-0.6532,-0.6622,-0.6719,-0.6441,-0.6622,-0.6703,-0.643,-0.6339,-0.6268,-0.6105,-0.6083,0.0,0.0,0.0,0.0,0.0,0.0,0.0,0.0,-0.6852,-0.7233,0.0,-0.78,-0.8072,-0.8865,-0.9232,-0.9456,-0.9612,-0.9747,-0.9822,-0.9822,-0.9822,-0.9897,-0.9997,-1.0209,-1.0358,-1.0507,-1.0656,-1.0717,-1.0717,-1.0717,-1.0717,-1.0717,-1.0717,-1.0717,-1.0717,-1.0717,-1.0784,-1.0982,-1.2355,-1.3735,-1.5173,-1.6527,-1.7893,-1.9072,-1.9072,-1.9072,-1.9072,-1.9072,-1.9072,-1.9072,-1.9072,-1.9072,-1.9072,-1.9072,-1.9072,-1.9072,-1.9072,-1.9072,-1.9072,-1.9072,-1.9072,-1.9072,-1.9072,-1.9072,-1.9072,-1.9072,-1.9072,-1.9072,-1.9072,-1.9072,-1.8988,-1.8734,-1.8469,-1.8203,-1.7913,-1.7648,-1.7948,-1.9145,-2.0386,-2.2266,-2.4944,-2.5734,-2.6118,-2.6118,-2.6409,-2.6591,-2.6591,-2.6591,-2.6591,-2.6591,-2.6591,-2.6591,-2.6591,-2.6591,-2.6591,-0.8198,-0.8263,-0.822,-0.7655,-0.7486,-0.7323,-0.6796,-0.6806,-0.6828,-0.6452,-0.6698,-0.6823,-0.6446,-0.6344,-0.6306,-0.6262,-0.6072,-0.5882,0.0,0.0,0.0,0.0,0.0,0.0,0.0,0.0,0.0,-0.7172,-0.7217,0.0,-0.8438,-0.888,-0.9222,-0.9605,-0.9747,-0.97,-0.9457,-0.9457,-0.9529,-0.9741,-0.9606,-0.9703,-1.0031,-0.9915,-1.0051,-1.0248,-1.0346,-1.0518,-1.0717,-1.0717,-1.0717,-1.0717,-1.0717,-1.0717,-1.0784,-1.1247,-1.2289,-1.3857,-1.6203,-1.7302,-1.7893,-1.8816,-1.9072,-1.9072,-1.9072,-1.9072,-1.9072,-1.9072,-1.9072,-1.9072,-1.9072,-1.9072,-1.9072,-1.9072,-1.9072,-1.9072,-1.9072,-1.9072,-1.9072,-1.9072,-1.9072,-1.9072,-1.9072,-1.9072,-1.9072,-1.9072,-1.9072,-1.8976,-1.8722,-1.8456,-1.8191,-1.7901,-1.7636,-1.7655,-1.8064,-1.994,-2.2266,-2.5055,-2.5624,-2.5898,-2.6063,-2.6409,-2.6591,-2.6591,-2.6591,-2.6591,-2.6591,-2.6591,-2.6591,-2.6591,-2.6591,-2.6591,-0.8312,-0.8356,-0.8312,-0.7872,-0.7703,-0.7508,-0.6986,-0.6991,-0.7018,-0.6698,-0.6785,-0.6888,-0.6721,-0.6524,-0.6328,-0.6328,-0.6127,-0.5855,0.0,-0.5388,0.0,0.0,0.0,0.0,0.0,0.0,-0.6014,-0.6792,-0.6703,0.0,0.0,-0.8506,-0.891,-0.9163,-0.9473,-0.9457,-0.9153,-0.9159,-0.9203,-0.936,-0.9162,-0.923,-0.957,-0.9503,-0.9714,-0.998,-1.0128,-1.0392,-1.0717,-1.0717,-1.0717,-1.0717,-1.0717,-1.0717,-1.0717,-1.0717,-1.1571,-1.3079,-1.4903,-1.6128,-1.7173,-1.8086,-1.8676,-1.9072,-1.9072,-1.9072,-1.9072,-1.9072,-1.9072,-1.9072,-1.9072,-1.9072,-1.9072,-1.9072,-1.9072,-1.9072,-1.9072,-1.9072,-1.9072,-1.9072,-1.9072,-1.9072,-1.9072,-1.9072,-1.9072,-1.9072,-1.9072,-1.8951,-1.8589,-1.8396,-1.8155,-1.7781,-1.7587,-1.783,-1.868,-2.0616,-2.2733,-2.4906,-2.5348,-2.5624,-2.5789,-2.619,-2.6409,-2.6409,-2.6537,-2.6591,-2.6591,-2.6591,-2.6591,-2.6591,-2.6591,-2.6591]}]]